[[{"header":{"parameterUnit":"m.s-1","parameterCategory":1,"la1":30.6,"la2":28.766,"lo1":-90.7593,"lo2":-88.6598,"dx":0.0162,"dy":0.0183,"nx":116,"ny":114,"refTime":"2022-12-25T18:00:00:Z","depth":0,"parameterNumber":2,"parameterNumberName":"U-component_of_WINDS"},"data":[0.0,0.0,0.0,0.0,0.0,0.0,0.0,0.0,0.0,0.0,0.0,0.0,0.0,0.0,0.0,0.0,0.0,0.0,0.0,0.0,0.0,0.0,0.0,0.0,0.0,0.0,0.0,0.0,0.0,0.0,0.0,0.0,0.0,0.0,0.0,0.0,0.0,0.0,0.0,0.0,0.0,0.0,0.0,0.0,0.0,0.0,0.0,0.0,0.0,0.0,0.0,0.0,0.0,0.0,0.0,0.0,0.0,0.0,0.0,0.0,0.0,0.0,0.0,0.0,0.0,0.0,0.0,0.0,0.0,0.0,0.0,0.0,0.0,0.0,0.0,0.0,0.0,0.0,0.0,0.0,0.0,0.0,0.0,0.0,0.0,0.0,0.0,0.0,0.0,0.0,0.0,0.0,0.0,0.0,0.0,0.0,0.0,0.0,0.0,0.0,0.0,0.0,0.0,0.0,0.0,0.0,0.0,0.0,0.0,0.0,0.0,0.0,0.0,0.0,0.0,0.0,0.0,0.0,0.0,0.0,0.0,0.0,0.0,0.0,0.0,0.0,0.0,0.0,0.0,0.0,0.0,0.0,0.0,0.0,0.0,0.0,0.0,0.0,0.0,0.0,0.0,0.0,0.0,0.0,0.0,0.0,0.0,0.0,0.0,0.0,0.0,0.0,0.0,0.0,0.0,0.0,0.0,0.0,0.0,0.0,0.0,0.0,0.0,0.0,0.0,0.0,0.0,0.0,0.0,0.0,0.0,0.0,0.0,0.0,0.0,0.0,0.0,0.0,0.0,0.0,0.0,0.0,0.0,0.0,0.0,0.0,0.0,0.0,0.0,0.0,0.0,0.0,0.0,0.0,0.0,0.0,0.0,0.0,0.0,0.0,0.0,0.0,0.0,0.0,0.0,0.0,0.0,0.0,0.0,0.0,0.0,0.0,0.0,0.0,0.0,0.0,0.0,0.0,0.0,0.0,0.0,0.0,0.0,0.0,0.0,0.0,0.0,0.0,0.0,0.0,0.0,0.0,0.0,0.0,0.0,0.0,0.0,0.0,0.0,0.0,0.0,0.0,0.0,0.0,0.0,0.0,0.0,0.0,0.0,0.0,0.0,0.0,0.0,0.0,0.0,0.0,0.0,0.0,0.0,0.0,0.0,0.0,0.0,0.0,0.0,0.0,0.0,0.0,0.0,0.0,0.0,0.0,0.0,0.0,0.0,0.0,0.0,0.0,0.0,0.0,0.0,0.0,0.0,0.0,0.0,0.0,0.0,0.0,0.0,0.0,0.0,0.0,0.0,0.0,0.0,0.0,0.0,0.0,0.0,0.0,0.0,0.0,0.0,0.0,0.0,0.0,0.0,0.0,0.0,0.0,0.0,0.0,0.0,0.0,0.0,0.0,0.0,0.0,0.0,0.0,0.0,0.0,0.0,0.0,0.0,0.0,0.0,0.0,0.0,0.0,0.0,0.0,0.0,0.0,0.0,0.0,0.0,0.0,0.0,0.0,0.0,0.0,0.0,0.0,0.0,0.0,0.0,0.0,0.0,0.0,0.0,0.0,0.0,0.0,0.0,0.0,0.0,0.0,0.0,0.0,0.0,0.0,0.0,0.0,0.0,0.0,0.0,0.0,0.0,0.0,0.0,0.0,0.0,0.0,0.0,0.0,0.0,0.0,0.0,0.0,0.0,0.0,0.0,0.0,0.0,0.0,0.0,0.0,0.0,0.0,0.0,0.0,0.0,0.0,0.0,0.0,0.0,0.0,0.0,0.0,0.0,0.0,0.0,0.0,0.0,0.0,0.0,0.0,0.0,0.0,0.0,0.0,0.0,0.0,0.0,0.0,0.0,0.0,0.0,0.0,0.0,0.0,0.0,0.0,0.0,0.0,0.0,0.0,0.0,0.0,0.0,0.0,0.0,0.0,0.0,0.0,0.0,0.0,0.0,0.0,0.0,0.0,0.0,0.0,0.0,0.0,0.0,0.0,0.0,0.0,0.0,0.0,0.0,0.0,0.0,0.0,0.0,0.0,0.0,0.0,0.0,0.0,0.0,0.0,0.0,0.0,0.0,0.0,0.0,0.0,0.0,0.0,0.0,0.0,0.0,0.0,0.0,0.0,0.0,0.0,0.0,0.0,0.0,0.0,0.0,0.0,0.0,0.0,0.0,0.0,0.0,0.0,0.0,0.0,0.0,0.0,0.0,0.0,0.0,0.0,0.0,0.0,0.0,0.0,0.0,0.0,0.0,0.0,0.0,0.0,0.0,0.0,0.0,0.0,0.0,0.0,0.0,0.0,0.0,0.0,0.0,0.0,0.0,0.0,0.0,0.0,0.0,0.0,0.0,0.0,0.0,0.0,0.0,0.0,0.0,0.0,0.0,0.0,0.0,0.0,0.0,0.0,0.0,0.0,0.0,0.0,0.0,0.0,0.0,0.0,0.0,0.0,0.0,0.0,0.0,0.0,0.0,0.0,0.0,0.0,0.0,0.0,0.0,0.0,0.0,0.0,0.0,0.0,0.0,0.0,0.0,0.0,0.0,0.0,0.0,0.0,0.0,0.0,0.0,0.0,0.0,0.0,0.0,0.0,0.0,0.0,0.0,0.0,0.0,0.0,0.0,0.0,0.0,0.0,0.0,0.0,0.0,0.0,0.0,0.0,0.0,0.0,0.0,0.0,0.0,0.0,0.0,0.0,0.0,0.0,0.0,0.0,0.0,0.0,0.0,0.0,0.0,0.0,0.0,0.0,0.0,0.0,0.0,0.0,0.0,0.0,0.0,0.0,0.0,0.0,0.0,0.0,0.0,0.0,0.0,0.0,0.0,0.0,0.0,0.0,0.0,0.0,0.0,0.0,0.0,0.0,0.0,0.0,0.0,0.0,0.0,0.0,0.0,0.0,0.0,0.0,0.0,0.0,0.0,0.0,0.0,0.0,0.0,0.0,0.0,0.0,0.0,0.0,0.0,0.0,0.0,0.0,0.0,0.0,0.0,0.0,0.0,0.0,0.0,0.0,0.0,0.0,0.0,0.0,0.0,0.0,0.0,0.0,0.0,0.0,0.0,0.0,0.0,0.0,0.0,0.0,0.0,0.0,0.0,0.0,0.0,0.0,0.0,0.0,0.0,0.0,0.0,0.0,0.0,0.0,0.0,0.0,0.0,0.0,0.0,0.0,0.0,0.0,0.0,0.0,0.0,0.0,0.0,0.0,0.0,0.0,0.0,0.0,0.0,0.0,0.0,0.0,0.0,0.0,0.0,0.0,0.0,0.0,0.0,0.0,0.0,0.0,0.0,0.0,0.0,0.0,0.0,0.0,0.0,0.0,0.0,0.0,0.0,0.0,0.0,0.0,0.0,0.0,0.0,0.0,0.0,0.0,0.0,0.0,0.0,0.0,0.0,0.0,0.0,0.0,0.0,0.0,0.0,0.0,0.0,0.0,0.0,0.0,0.0,0.0,0.0,0.0,0.0,0.0,0.0,0.0,0.0,0.0,0.0,0.0,0.0,0.0,0.0,0.0,0.0,0.0,0.0,0.0,0.0,0.0,0.0,0.0,0.0,0.0,0.0,0.0,0.0,0.0,0.0,0.0,0.0,0.0,0.0,0.0,0.0,0.0,0.0,0.0,0.0,0.0,0.0,0.0,0.0,0.0,0.0,0.0,0.0,0.0,0.0,0.0,0.0,0.0,0.0,0.0,0.0,0.0,0.0,0.0,0.0,0.0,0.0,0.0,0.0,0.0,0.0,0.0,0.0,0.0,0.0,0.0,0.0,0.0,0.0,0.0,0.0,0.0,0.0,0.0,0.0,0.0,0.0,0.0,0.0,0.0,0.0,0.0,0.0,0.0,0.0,0.0,0.0,0.0,0.0,0.0,0.0,0.0,0.0,0.0,0.0,0.0,0.0,0.0,0.0,0.0,0.0,0.0,0.0,0.0,0.0,0.0,0.0,0.0,0.0,0.0,0.0,0.0,0.0,0.0,0.0,0.0,0.0,0.0,0.0,0.0,0.0,0.0,0.0,0.0,0.0,0.0,0.0,0.0,0.0,0.0,0.0,0.0,0.0,0.0,0.0,0.0,0.0,0.0,0.0,0.0,0.0,0.0,0.0,0.0,0.0,0.0,0.0,0.0,0.0,0.0,0.0,0.0,0.0,0.0,0.0,0.0,0.0,0.0,0.0,0.0,0.0,0.0,0.0,0.0,0.0,0.0,0.0,0.0,0.0,0.0,0.0,0.0,0.0,0.0,0.0,0.0,0.0,0.0,0.0,0.0,0.0,0.0,0.0,0.0,0.0,0.0,0.0,0.0,0.0,0.0,0.0,0.0,0.0,0.0,0.0,0.0,0.0,0.0,0.0,0.0,0.0,0.0,0.0,0.0,0.0,0.0,0.0,0.0,0.0,0.0,0.0,0.0,0.0,0.0,0.0,0.0,0.0,0.0,0.0,0.0,0.0,0.0,0.0,0.0,0.0,0.0,0.0,0.0,0.0,0.0,0.0,0.0,0.0,0.0,0.0,0.0,0.0,0.0,0.0,0.0,0.0,0.0,0.0,0.0,0.0,0.0,0.0,0.0,0.0,0.0,0.0,0.0,0.0,0.0,0.0,0.0,0.0,0.0,0.0,0.0,0.0,0.0,0.0,0.0,0.0,0.0,0.0,0.0,0.0,0.0,0.0,0.0,0.0,0.0,0.0,0.0,0.0,0.0,0.0,0.0,0.0,0.0,0.0,0.0,0.0,0.0,0.0,0.0,0.0,0.0,0.0,0.0,0.0,0.0,0.0,0.0,0.0,0.0,0.0,0.0,0.0,0.0,0.0,0.0,0.0,0.0,0.0,0.0,0.0,0.0,0.0,0.0,0.0,0.0,0.0,0.0,0.0,0.0,0.0,0.0,0.0,0.0,0.0,0.0,0.0,0.0,0.0,0.0,0.0,0.0,0.0,0.0,0.0,0.0,0.0,0.0,0.0,0.0,0.0,0.0,0.0,0.0,0.0,0.0,0.0,0.0,0.0,0.0,0.0,0.0,0.0,0.0,0.0,0.0,0.0,0.0,0.0,0.0,0.0,0.0,0.0,0.0,0.0,0.0,0.0,0.0,0.0,0.0,0.0,0.0,0.0,0.0,0.0,0.0,0.0,0.0,0.0,0.0,0.0,0.0,0.0,0.0,0.0,0.0,0.0,0.0,0.0,0.0,0.0,0.0,0.0,0.0,0.0,0.0,0.0,0.0,0.0,0.0,0.0,0.0,0.0,0.0,0.0,0.0,0.0,0.0,0.0,0.0,0.0,0.0,0.0,0.0,0.0,0.0,0.0,0.0,0.0,0.0,0.0,0.0,0.0,0.0,0.0,0.0,0.0,0.0,0.0,0.0,0.0,0.0,0.0,0.0,0.0,0.0,0.0,0.0,0.0,0.0,0.0,0.0,0.0,0.0,0.0,0.0,0.0,0.0,0.0,0.0,0.0,0.0,0.0,0.0,0.0,0.0,0.0,0.0,0.0,0.0,0.0,0.0,0.0,0.0,0.0,0.0,0.0,0.0,0.0,0.0,0.0,0.0,0.0,0.0,0.0,0.0,0.0,0.0,0.0,0.0,0.0,0.0,0.0,0.0,0.0,0.0,0.0,0.0,0.0,0.0,0.0,0.0,0.0,0.0,0.0,0.0,0.0,0.0,0.0,0.0,0.0,0.0,0.0,0.0,0.0,0.0,0.0,0.0,0.0,0.0,0.0,0.0,0.0,0.0,0.0,0.0,0.0,0.0,0.0,0.0,0.0,0.0,0.0,0.0,0.0,0.0,0.0,0.0,0.0,0.0,0.0,0.0,0.0,0.0,0.0,0.0,0.0,0.0,0.0,0.0,0.0,0.0,0.0,0.0,0.0,0.0,0.0,0.0,0.0,0.0,0.0,0.0,0.0,0.0,0.0,0.0,0.0,0.0,0.0,0.0,0.0,0.0,0.0,0.0,0.0,0.0,0.0,0.0,0.0,0.0,0.0,0.0,0.0,0.0,0.0,0.0,0.0,0.0,0.0,0.0,0.0,0.0,0.0,0.0,0.0,0.0,0.0,0.0,0.0,0.0,0.0,0.0,0.0,0.0,0.0,0.0,0.0,0.0,-4.1976,0.0,0.0,0.0,0.0,0.0,0.0,0.0,0.0,0.0,0.0,0.0,0.0,0.0,0.0,0.0,0.0,0.0,0.0,0.0,0.0,0.0,0.0,0.0,0.0,-4.7767,-4.7834,-4.6346,-4.7225,0.0,0.0,0.0,0.0,0.0,0.0,0.0,0.0,0.0,-4.6786,-4.6786,-4.7158,-4.7518,-4.7881,-4.7111,-4.6758,-4.6678,0.0,0.0,0.0,0.0,0.0,0.0,0.0,0.0,0.0,0.0,0.0,0.0,0.0,0.0,0.0,0.0,0.0,0.0,0.0,0.0,0.0,0.0,0.0,0.0,0.0,0.0,0.0,0.0,0.0,0.0,0.0,0.0,0.0,0.0,0.0,0.0,0.0,0.0,0.0,0.0,0.0,0.0,0.0,0.0,0.0,0.0,0.0,0.0,0.0,0.0,0.0,0.0,0.0,0.0,0.0,0.0,0.0,0.0,0.0,0.0,0.0,0.0,0.0,0.0,0.0,0.0,0.0,0.0,0.0,0.0,0.0,-4.1323,0.0,0.0,0.0,0.0,0.0,0.0,0.0,0.0,0.0,0.0,0.0,0.0,0.0,0.0,0.0,0.0,0.0,0.0,0.0,0.0,0.0,-4.8041,-4.7906,-4.868,-4.8612,-4.7124,-4.8206,-4.8477,-4.7259,-4.7056,0.0,0.0,0.0,0.0,-4.7361,-4.7361,-4.7665,-4.8277,-4.8256,-4.8182,-4.8067,-4.8198,-4.8129,-4.7863,-4.634,0.0,0.0,0.0,0.0,0.0,0.0,0.0,0.0,0.0,0.0,0.0,0.0,0.0,0.0,0.0,0.0,0.0,0.0,0.0,0.0,0.0,0.0,0.0,0.0,0.0,0.0,0.0,0.0,0.0,0.0,0.0,0.0,0.0,0.0,0.0,0.0,0.0,0.0,0.0,0.0,0.0,0.0,0.0,0.0,0.0,0.0,0.0,0.0,0.0,0.0,0.0,0.0,0.0,0.0,0.0,0.0,0.0,0.0,0.0,0.0,0.0,0.0,0.0,-4.1945,-4.1799,-4.1799,-4.1799,-4.1462,-4.0742,-4.0553,-4.055,-4.0653,0.0,0.0,0.0,0.0,0.0,0.0,0.0,0.0,0.0,0.0,0.0,0.0,0.0,0.0,0.0,0.0,0.0,0.0,0.0,0.0,-4.8612,-4.7973,-4.912,-4.9357,-4.7872,-4.8511,-4.8917,-4.8714,-4.8105,0.0,0.0,0.0,-4.8917,-4.9627,-4.9661,-4.9695,-4.9796,-4.9758,-4.9393,-4.8795,-4.9356,-4.9254,-4.8479,-4.6539,-4.507,-4.4043,0.0,0.0,0.0,0.0,0.0,0.0,0.0,0.0,0.0,0.0,0.0,0.0,0.0,0.0,0.0,0.0,0.0,0.0,0.0,0.0,0.0,0.0,0.0,0.0,0.0,0.0,0.0,0.0,0.0,0.0,0.0,0.0,0.0,0.0,0.0,0.0,0.0,0.0,0.0,0.0,0.0,-4.3169,-4.2409,0.0,0.0,0.0,0.0,0.0,0.0,0.0,0.0,0.0,0.0,0.0,0.0,0.0,-4.4031,-4.4172,-4.2618,-4.1895,-4.1929,-4.0594,-3.9955,-3.9955,-3.9955,-3.9886,-3.979,-3.9749,0.0,-4.0968,-4.0968,0.0,0.0,0.0,0.0,0.0,0.0,0.0,0.0,0.0,0.0,0.0,0.0,0.0,0.0,0.0,0.0,0.0,0.0,0.0,0.0,0.0,-4.9086,-4.9221,-4.8578,-4.8815,-4.9187,-4.9593,-4.8951,0.0,0.0,-4.9627,-4.9763,-5.0067,-5.0101,-4.9898,-4.9492,-4.9883,-4.9692,-4.8961,-4.8799,-4.8546,-4.8123,-4.6785,-4.5873,-4.5249,-4.5187,0.0,0.0,0.0,0.0,0.0,0.0,0.0,0.0,0.0,0.0,0.0,0.0,0.0,0.0,0.0,0.0,0.0,0.0,0.0,0.0,0.0,0.0,0.0,0.0,0.0,0.0,0.0,0.0,0.0,0.0,0.0,0.0,0.0,0.0,0.0,0.0,0.0,0.0,0.0,-4.294,-4.2163,-4.1824,-4.2079,-4.2293,0.0,0.0,0.0,0.0,0.0,0.0,0.0,0.0,0.0,-4.203,-4.182,-4.1788,-4.2112,-4.1437,-4.1126,-4.1323,-4.0644,-4.027,-4.0122,-4.0122,-4.0122,-4.0122,-4.027,-4.0491,-4.0657,-4.0192,-4.0609,-4.1526,0.0,0.0,0.0,0.0,-4.0248,-3.9634,0.0,0.0,0.0,0.0,0.0,0.0,0.0,0.0,0.0,0.0,0.0,0.0,-4.9289,-4.9289,-4.9289,-4.9289,-4.9289,-4.9424,-4.9796,-4.9289,0.0,-4.9796,-4.983,-4.9898,-5.0101,-5.0101,-4.9999,-4.983,-4.9978,-4.9758,-4.9218,-4.8771,-4.8482,-4.8263,-4.784,-4.725,-4.6573,-4.6234,-4.5895,-4.5588,0.0,0.0,0.0,0.0,0.0,0.0,0.0,0.0,0.0,0.0,0.0,0.0,0.0,0.0,0.0,0.0,0.0,0.0,0.0,0.0,0.0,0.0,0.0,0.0,0.0,0.0,0.0,0.0,0.0,0.0,0.0,0.0,0.0,0.0,0.0,0.0,0.0,-4.2164,-4.1427,-4.1267,-4.1495,-4.1819,0.0,0.0,0.0,0.0,0.0,0.0,-4.2241,-4.1314,-4.0683,-4.0635,-4.0132,-4.0031,-4.0447,-4.0447,-4.0633,-4.1002,-4.1002,-4.0977,-4.0927,-4.0927,-4.0927,-4.0927,-4.1132,-4.1081,-4.085,-4.0044,-4.0184,-4.0802,-4.0261,-4.0161,-4.0277,-3.9723,-3.9225,-3.8777,0.0,0.0,0.0,0.0,0.0,0.0,0.0,0.0,0.0,0.0,0.0,-5.0033,-5.0033,-5.0033,-5.0033,-5.0033,-5.0033,-4.9763,-4.9086,-4.9018,-4.9018,-4.9052,-4.9052,-4.939,-5.0067,-5.0101,-5.0777,-5.2131,-5.0693,-4.9972,-4.9867,-5.0491,-5.0348,-4.9643,-5.0248,-4.9035,-4.6634,-4.725,-4.6757,-4.5649,-4.6296,0.0,0.0,0.0,0.0,0.0,0.0,0.0,0.0,0.0,0.0,0.0,0.0,0.0,0.0,0.0,0.0,0.0,0.0,0.0,0.0,0.0,0.0,0.0,0.0,0.0,0.0,0.0,0.0,0.0,0.0,0.0,0.0,0.0,0.0,0.0,0.0,0.0,0.0,-4.0268,-4.1412,0.0,0.0,0.0,0.0,-4.1156,-4.0292,-3.9673,-3.9433,-3.9803,-3.9941,-3.9668,-4.0183,-4.0491,-4.0516,-4.0516,-4.0747,-4.1311,-4.1311,-4.1541,-4.2,-4.2,-4.2,-4.2,-4.2053,-4.2053,-4.195,-4.1437,-4.0919,-4.0515,-4.0148,-3.9842,-3.949,-3.8438,-3.8338,-3.87,0.0,0.0,0.0,0.0,0.0,-4.635,-4.6747,-4.824,-4.939,-4.9661,-5.0744,-5.1352,-5.0879,-5.0811,-5.0811,-5.0811,-5.0811,-5.071,-5.0439,-5.0879,-5.071,-4.9729,-5.0608,-5.0811,-5.0101,-5.1522,-5.1826,-5.0879,-5.1799,-5.1959,-5.1375,-5.1571,-5.1495,-5.1111,-5.0832,-5.0143,-4.9189,-4.8543,-4.7989,-4.7558,-4.7804,-4.7219,0.0,0.0,0.0,0.0,0.0,0.0,0.0,0.0,0.0,0.0,0.0,0.0,0.0,0.0,0.0,0.0,0.0,0.0,0.0,0.0,0.0,0.0,0.0,0.0,0.0,0.0,0.0,0.0,0.0,0.0,0.0,0.0,0.0,0.0,0.0,0.0,0.0,-3.9879,-4.0541,0.0,-4.0675,-4.0826,-4.0939,-4.0939,-4.0473,-4.0151,-4.0052,-4.0232,-4.0414,-4.0671,-4.0875,-4.1157,-4.1541,-4.1541,-4.1513,-4.1559,-4.1559,-4.1554,-4.1597,-4.1597,-4.1597,-4.1597,-4.1757,-4.1757,-4.1572,-4.1747,-4.1697,-4.1463,-4.0998,-4.0896,-4.0897,-4.0309,-4.0206,-4.0334,0.0,0.0,0.0,-4.7843,-4.7334,-4.7228,-4.792,-4.8981,-4.9898,-5.0405,-5.1319,-5.1758,-5.1219,-5.142,-5.1589,-5.1589,-5.1589,-5.1386,-5.0879,-5.1522,-5.1386,-5.0135,-5.1285,-5.1589,-5.0845,-5.2334,-5.2604,-5.1623,-5.3112,-5.3407,-5.2528,-5.272,-5.2477,-5.1831,-5.1512,-5.1374,-5.1313,-5.0143,-4.9404,-4.8974,-4.8974,-4.845,-4.7711,0.0,0.0,0.0,0.0,0.0,0.0,0.0,0.0,0.0,0.0,0.0,0.0,0.0,0.0,0.0,0.0,0.0,0.0,0.0,0.0,0.0,0.0,0.0,0.0,0.0,0.0,0.0,0.0,0.0,0.0,0.0,0.0,0.0,0.0,0.0,-4.0278,-3.9913,-4.0285,-4.0575,-4.0575,-4.0713,-4.0822,-4.1002,-4.0875,-4.0824,-4.09,-4.09,-4.1027,-4.1304,-4.1304,-4.1482,-4.1811,-4.1811,-4.1859,-4.1875,-4.1875,-4.1868,-4.1882,-4.1882,-4.1882,-4.1882,-4.2045,-4.2045,-4.1882,-4.2261,-4.237,-4.2344,-4.1695,-4.149,-4.1518,-4.1182,-4.1125,-4.1175,0.0,0.0,-4.8644,-4.8609,-4.7733,-4.7801,-5.0011,-4.965,-4.9593,-5.0982,-5.1251,-5.1252,-5.1252,-5.1928,-5.2367,-5.2367,-5.2367,-5.1725,-5.0236,-5.0879,-5.0947,-5.0202,-5.0845,-5.1589,-5.2266,-5.2367,-5.3112,-5.46,-5.4634,-5.4195,-5.3272,-5.3912,-5.3331,-5.1775,-5.2421,-5.2698,-5.2667,-5.2021,-5.0974,-4.9774,-4.9743,-4.9712,-4.962,0.0,0.0,0.0,0.0,0.0,0.0,0.0,0.0,0.0,0.0,0.0,0.0,0.0,0.0,0.0,0.0,0.0,0.0,0.0,0.0,0.0,0.0,0.0,0.0,0.0,0.0,0.0,0.0,0.0,0.0,0.0,0.0,0.0,-3.9782,-4.0095,-4.0461,-4.0412,-4.0735,-4.0922,-4.0948,-4.0695,-4.0722,-4.1285,-4.131,-4.1384,-4.1653,-4.1679,-4.1597,-4.1354,-4.13,-4.1326,-4.1326,-4.1326,-4.1656,-4.2238,-4.2238,-4.2514,-4.2986,-4.2986,-4.2986,-4.2986,-4.2986,-4.2986,-4.2986,-4.2986,-4.2986,-4.2916,-4.2052,-4.1594,-4.1275,-4.0802,-4.0927,-4.115,-5.0011,-4.9658,-4.9227,-4.8712,-4.8621,-4.8791,-4.9403,-5.0127,-5.0744,-5.1151,-5.2198,-5.2875,-5.2875,-5.3044,-5.3382,-5.3923,-5.3484,-5.2739,-5.1758,-5.2435,-5.2536,-5.1725,-5.1894,-5.2097,-5.23,-5.3382,-5.416,-5.46,-5.5649,-5.5429,-5.3945,-5.4657,-5.4104,-5.2452,-5.2637,-5.2698,-5.2698,-5.2513,-5.2206,-5.1836,-5.1344,-5.0574,-4.9712,0.0,0.0,0.0,0.0,0.0,0.0,0.0,0.0,0.0,0.0,0.0,0.0,0.0,0.0,0.0,0.0,0.0,0.0,0.0,0.0,0.0,0.0,0.0,0.0,0.0,0.0,0.0,0.0,0.0,0.0,0.0,0.0,-4.054,-4.0226,-4.0697,-4.1119,-4.1308,-4.1414,-4.157,-4.1722,-4.1564,-4.1457,-4.1557,-4.1423,-4.1339,-4.1436,-4.1383,-4.1559,-4.1907,-4.1932,-4.2133,-4.2534,-4.2534,-4.261,-4.276,-4.276,-4.2891,-4.2986,-4.2986,-4.2986,-4.2986,-4.2986,-4.2986,-4.2986,-4.2986,-4.2986,-4.3017,-4.2746,-4.2564,-4.2509,-4.2359,-4.2133,-4.1882,-5.0011,-4.9889,-4.9629,-4.9159,-4.9227,-4.9494,-5.0079,-5.05,-5.0845,-5.1183,-5.2266,-5.301,-5.301,-5.3315,-5.3788,-5.4532,-5.3923,-5.3179,-5.2367,-5.3044,-5.3416,-5.3281,-5.3551,-5.3721,-5.3721,-5.4905,-5.5513,-5.5513,-5.6697,-5.6545,-5.5208,-5.564,-5.4902,-5.3214,-5.3214,-5.3024,-5.2698,-5.2698,-5.2698,-5.2667,-5.2298,-5.1652,-5.0974,-5.1067,-5.0205,-4.8912,-4.9035,-4.8604,-4.8081,-4.8481,0.0,0.0,0.0,0.0,0.0,0.0,0.0,0.0,0.0,0.0,0.0,0.0,0.0,0.0,0.0,0.0,0.0,0.0,0.0,0.0,0.0,0.0,0.0,0.0,-4.1063,-4.1141,-4.1141,-4.1455,-4.1771,-4.2035,-4.1983,-4.1903,-4.1919,-4.1704,-4.1619,-4.1872,-4.1789,-4.1781,-4.2007,-4.2032,-4.2183,-4.2539,-4.2564,-4.266,-4.2986,-4.2986,-4.2986,-4.2986,-4.2986,-4.2986,-4.2986,-4.2986,-4.2986,0.0,-4.2986,-4.2986,-4.2986,-4.2986,-4.2986,0.0,0.0,0.0,0.0,0.0,-4.2816,-4.2514,-5.0011,-5.0011,-4.9918,-4.9767,-4.9619,-4.9949,-5.1196,-5.0699,-5.0369,-5.1014,-5.1792,-5.23,-5.23,-5.3078,-5.3923,-5.4668,-5.4059,-5.3315,-5.2604,-5.3247,-5.3923,-5.4566,-5.531,-5.5681,-5.5681,-5.6427,-5.6833,-5.6934,-5.7577,-5.7443,-5.6614,-5.6614,-5.5716,-5.4147,-5.4019,-5.3577,-5.2833,-5.2835,-5.2821,-5.2821,-5.2914,-5.2852,-5.2637,-5.1959,-5.1313,-5.0728,-5.0051,-4.9374,-4.885,-4.885,0.0,0.0,0.0,0.0,0.0,0.0,0.0,0.0,0.0,0.0,0.0,0.0,0.0,0.0,0.0,0.0,0.0,0.0,0.0,0.0,0.0,0.0,0.0,0.0,-4.1533,-4.2291,-4.2395,-4.2369,-4.2398,-4.2603,-4.2444,-4.2179,-4.1856,-4.1613,-4.1731,-4.2263,-4.2313,-4.2514,-4.2961,0.0,0.0,0.0,0.0,-4.2986,-4.2986,-4.2986,-4.2986,-4.2986,-4.2986,-4.2986,-4.2986,-4.2986,-4.2986,-4.2986,-4.2986,-4.2986,-4.2986,-4.2986,-4.2986,-4.2986,-4.2986,-4.2986,-4.2986,-4.2986,-4.2986,-4.2911,-5.0011,-5.0011,-4.9982,-4.9952,-4.9801,-4.9898,-5.067,-5.055,-5.0326,-5.0335,-5.1488,-5.23,-5.23,-5.3551,-5.4668,-5.5446,-5.4803,-5.4329,-5.416,-5.4296,-5.4431,-5.4566,-5.531,-5.5681,-5.5681,-5.6427,-5.7103,-5.7679,-5.7814,-5.7443,-5.6614,-5.6614,-5.6034,-5.5026,-5.4317,-5.3891,-5.3738,-5.3568,-5.3529,-5.356,-5.4068,-5.3683,-5.2637,-5.1959,-5.1621,-5.1436,-5.0759,-5.042,-5.0297,-5.0297,-5.0297,-5.0112,-4.8974,0.0,0.0,0.0,0.0,0.0,0.0,0.0,0.0,0.0,0.0,0.0,0.0,0.0,0.0,0.0,0.0,0.0,0.0,0.0,0.0,-4.1742,-4.2396,-4.3023,-4.3467,-4.3308,-4.3095,-4.2956,-4.2849,-4.2812,-4.2776,-4.2715,-4.271,-4.2811,-4.2866,-4.2861,-4.2961,-4.2986,-4.2986,-4.2986,-4.2986,-4.2986,-4.2986,-4.2986,-4.2986,-4.2986,0.0,0.0,-4.2986,-4.2986,-4.2986,-4.2986,-4.2986,-4.2986,-4.2986,-4.2986,-4.2986,-4.2986,-4.2986,-4.2986,-4.2986,-4.2986,-4.2986,-4.2961,-5.0011,-5.0011,-4.9982,-4.986,-4.9767,-4.9894,-5.0438,-5.0076,-4.9882,-5.0065,-5.0744,-5.1352,-5.1725,-5.3145,-5.4363,-5.5108,-5.4803,-5.4769,-5.5141,-5.4803,-5.4905,-5.5649,-5.6055,-5.6427,-5.6799,-5.7171,-5.7509,-5.7881,-5.7881,-5.7698,-5.7256,-5.7256,-5.6768,-5.5915,-5.5067,-5.4592,-5.4502,-5.3937,-5.3899,-5.4222,-5.456,-5.4283,-5.3683,-5.3345,-5.3221,-5.3129,-5.2452,-5.199,-5.1652,-5.1313,-5.0974,-5.0574,-4.9866,-4.9189,-4.8696,0.0,0.0,0.0,0.0,0.0,0.0,0.0,0.0,0.0,0.0,0.0,0.0,0.0,0.0,-4.1716,0.0,0.0,-4.2265,-4.2552,-4.2971,-4.3334,-4.362,-4.3638,-4.3601,-4.3464,-4.3274,-4.3157,-4.2992,-4.2986,-4.2986,-4.2986,-4.2986,-4.2986,-4.2986,-4.2986,-4.2986,-4.2986,-4.3237,-4.3388,-4.3388,-4.3664,-4.379,-4.379,-4.3514,-4.3388,-4.3388,-4.3112,-4.2986,-4.2986,-4.2986,-4.2986,-4.2986,-4.2986,-4.2986,-4.2986,-4.2986,-4.2986,-4.2986,-4.2986,-4.2986,-4.2986,-5.0011,-5.0011,-4.9952,-4.9801,-4.9737,-4.9855,-5.0233,-4.9699,-4.9403,-4.9859,-5.0031,-5.0338,-5.0913,-5.2503,-5.3856,-5.4735,-5.4803,-5.5141,-5.5886,-5.5344,-5.5547,-5.6765,-5.6934,-5.7205,-5.7679,-5.7814,-5.7881,-5.7881,-5.7881,-5.7881,-5.7881,-5.7881,-5.7517,-5.6806,-5.5955,-5.5536,-5.5495,-5.4545,-5.4544,-5.5148,-5.5115,-5.5037,-5.4868,-5.4868,-5.4714,-5.4406,-5.3775,-5.3191,-5.2637,-5.2082,-5.1528,-5.1067,-5.0944,-5.0112,-4.9435,-5.0574,-4.967,0.0,0.0,0.0,0.0,0.0,0.0,0.0,0.0,0.0,-4.3023,-4.3023,-4.3023,-4.3023,-4.3023,-4.3127,-4.318,-4.318,-4.3438,-4.3642,-4.3588,-4.3756,-4.3899,-4.3819,-4.3572,-4.3295,-4.3042,-4.2986,-4.2986,-4.2986,-4.2986,-4.2986,-4.2986,-4.3087,-4.3137,-4.3137,-4.3664,-4.3966,-4.3966,-4.4392,-4.4618,-4.4618,-4.4166,-4.3966,-4.394,-4.3388,-4.3137,-4.3137,-4.3037,-4.2986,-4.2986,-4.2986,-4.2986,-4.2986,-4.2986,-4.3037,-4.3112,-4.3011,-4.3037,-4.3137,-5.0011,-5.0011,-5.0011,-4.9982,-4.9982,-4.9923,-4.9816,-4.9599,-4.9415,-4.9301,-4.9788,-5.0135,-5.0202,-5.2198,-5.4059,-5.548,-5.5581,-5.5919,-5.663,-5.6596,-5.663,-5.6799,-5.7408,-5.7509,-5.6934,-5.7543,-5.7881,-5.7881,-5.7881,-5.7881,-5.7881,-5.7881,-5.7845,-5.7735,-5.6844,-5.6816,-5.735,-5.6219,-5.6167,-5.6846,-5.665,-5.6146,-5.5592,-5.5592,-5.4853,-5.3699,-5.3067,-5.276,-5.2698,-5.2637,-5.2544,-5.239,-5.1775,-5.1498,-5.1374,-5.1559,0.0,-5.068,-4.9681,0.0,0.0,-4.3099,-4.2788,-4.284,0.0,0.0,-4.3023,-4.3023,-4.3023,-4.3023,-4.3023,-4.3441,-4.3781,-4.3781,-4.4198,-4.4481,-4.4209,-4.4013,-4.3789,-4.3517,-4.3406,-4.3295,-4.3042,-4.2986,-4.2986,-4.2986,-4.2986,-4.2986,-4.2986,-4.3438,-4.3714,-4.3714,-4.4242,-4.4543,-4.4543,-4.4593,-4.4618,-4.4618,-4.4568,-4.4543,-4.4518,-4.3966,-4.3714,-4.3689,-4.3187,-4.2986,-4.2986,-4.2986,-4.2986,-4.2986,-4.2986,-4.3263,-4.3639,-4.3162,-4.3288,-4.3714,-5.0068,-5.0011,-5.0011,-5.0011,-5.0011,-4.9918,-4.9737,-4.9649,-4.956,-4.9381,-4.9501,-4.9582,-4.9582,-5.1519,-5.3416,-5.4938,-5.5446,-5.6021,-5.6765,-5.6393,-5.6562,-5.7408,-5.7306,-5.7509,-5.8084,-5.7949,-5.8084,-5.8558,-5.8084,-5.7881,-5.7881,-5.7881,-5.7881,-5.7879,-5.7463,-5.7641,-5.8217,-5.7096,-5.7073,-5.7677,-5.7039,-5.6378,-5.5653,-5.5284,-5.4545,-5.3745,-5.3791,-5.3622,0.0,0.0,-5.3037,-5.2667,-5.239,-5.2021,-5.1775,-5.2175,-5.1328,0.0,-4.7836,0.0,0.0,0.0,-4.3258,-4.352,-4.352,-4.3781,-4.3963,-4.3963,-4.3963,-4.3963,-4.3963,-4.4199,-4.4382,0.0,-4.4403,-4.4526,-4.4808,-4.4416,-4.4209,-4.4345,-4.42,-4.3778,-4.3092,-4.3263,-4.3313,-4.3011,-4.3564,-4.379,-4.3463,-4.3991,-4.4292,-4.4292,-4.4819,-4.5121,-4.5121,-4.5447,-4.5598,-4.5598,-4.5271,-4.5121,-4.5095,-4.4543,-4.4292,-4.4292,-4.4392,-4.4242,-4.394,-4.394,-4.394,-4.394,-4.394,-4.4091,-4.4217,-4.3664,-4.3815,-4.4292,-5.0092,-5.0011,-5.0011,-5.0011,-5.0011,-4.9952,-4.9796,-4.9737,-4.9679,-4.956,-4.935,-4.9267,-4.9409,-5.0773,-5.23,-5.3822,-5.4668,-5.5513,-5.6461,-5.619,-5.6664,-5.8152,-5.7679,-5.8017,-5.9302,-5.8761,-5.8761,-5.9302,-5.8558,-5.8186,-5.8186,-5.7983,-5.7881,-5.7915,-5.7792,-5.8158,-5.8734,-5.7871,-5.7865,-5.8243,-5.7277,-5.6325,-5.5442,-5.47,-5.3976,-5.3498,-5.3945,-5.3868,0.0,0.0,-5.3129,-5.2698,-5.2698,-5.239,-5.2082,-5.2575,-5.1077,-4.8769,-4.6497,0.0,0.0,-4.3807,-4.4042,-4.4408,-4.4565,-4.4905,-4.5218,-4.5218,-4.5218,-4.5218,-4.5218,-4.5218,-4.5218,-4.5218,-4.5054,-4.5045,-4.5378,-4.5007,-4.4763,-4.5055,-4.4792,-4.4317,-4.3514,-4.394,-4.4091,-4.3689,-4.4543,-4.492,-4.4518,-4.502,-4.5321,-4.5321,-4.5874,-4.615,-4.615,-4.6552,-4.6753,-4.6753,-4.6351,-4.615,-4.6125,-4.5573,-4.5246,-4.5121,-4.5522,-4.5397,-4.4869,-4.4869,-4.4769,-4.4618,-4.4618,-4.4719,-4.4819,-4.4418,-4.4518,-4.4869,-5.0092,-5.0011,-5.0011,-5.0011,-5.0011,-5.0011,-5.0011,-4.983,-4.9708,-4.9708,-4.9411,-4.9409,-4.9997,-5.0101,-5.0744,-5.2232,-5.3112,-5.4194,-5.5649,-5.6393,-5.7442,-5.893,-5.8964,-5.9302,-6.0047,-6.0047,-6.0047,-6.008,-5.9336,-5.8998,-5.8964,-5.822,-5.7881,-5.7881,-5.7915,-5.8284,-5.8987,-5.874,-5.868,-5.8584,-5.752,-5.627,-5.4907,-5.4033,-5.3345,-5.276,-5.276,0.0,0.0,0.0,-5.2729,-5.2698,-5.2698,-5.2698,-5.2698,-5.2698,-5.0815,-4.8404,0.0,0.0,-4.4826,-4.5401,-4.5503,-4.5715,-4.6264,-4.6421,-4.6421,-4.6421,-4.6421,-4.6421,-4.6421,-4.6421,-4.6421,-4.6421,-4.6421,-4.6308,-4.6026,-4.5768,-4.5425,-4.5164,-4.4792,-4.4618,0.0,-4.5095,-4.5422,-4.5422,-4.5949,-4.625,-4.6225,-4.6753,-4.6993,-4.6993,-4.7556,-4.7832,-4.7832,-4.7857,-4.7857,-4.7857,-4.7832,-4.7832,-4.7807,-4.7305,-4.6753,-4.625,-4.6276,-4.5974,-4.5472,-4.5472,-4.5121,-4.4618,-4.4618,-4.497,-4.5472,-4.5447,-4.5447,-4.5472,-5.0921,-5.0735,-5.0597,-5.008,-5.0011,-5.0011,-5.0011,-4.9918,-4.9889,-4.9889,-4.9624,0.0,0.0,0.0,0.0,0.0,-5.2469,-5.3721,-5.4228,-5.5852,-5.7036,-5.7509,-5.8017,-5.8626,-5.937,-5.937,-5.9607,-6.0114,-5.9844,-5.9742,-5.9708,-5.8998,-5.8896,-5.9336,-5.8863,-5.9032,-5.97,-5.9551,-5.919,-5.8566,-5.7032,-5.5588,-5.4269,-5.3365,-5.2359,-5.1498,0.0,0.0,0.0,0.0,0.0,-5.2698,-5.2698,-5.2698,-5.27,-5.2626,-5.0773,-4.8631,0.0,0.0,-4.5454,-4.6055,-4.6186,-4.6238,-4.6421,-4.6473,-4.6473,-4.6473,-4.6473,-4.6473,-4.6473,-4.6473,-4.6473,-4.6473,-4.6473,-4.6547,-4.6825,-4.6475,-4.6199,-4.6499,-4.602,0.0,0.0,0.0,0.0,-4.5522,-4.6652,-4.723,-4.6878,-4.7355,-4.7657,-4.7657,-4.7807,-4.7908,-4.7908,-4.7908,-4.7908,-4.7908,-4.7908,-4.7908,-4.7908,-4.8134,-4.7908,-4.738,-4.7782,-4.7606,-4.7079,-4.7079,-4.6979,-4.6803,-4.6803,-4.6702,-4.6577,-4.6577,-4.6351,-4.6024,0.0,-5.1287,-5.0976,-5.0493,-5.0183,0.0,0.0,0.0,0.0,0.0,0.0,0.0,0.0,0.0,0.0,0.0,0.0,-5.2503,-5.3044,-5.4668,-5.5987,-5.6765,-5.7509,-5.8254,-5.8998,-5.9268,-5.9505,-5.9708,-5.9438,-5.9302,-5.9302,-5.8558,-5.8626,-5.9268,-5.8829,-5.8863,-5.9299,-5.9237,-5.9031,-5.8613,-5.6353,-5.5219,-5.4677,-5.2971,-5.1805,0.0,0.0,0.0,0.0,0.0,-5.2513,-5.2667,-5.2421,-5.2698,-5.2871,-5.2021,-5.0632,-4.9257,0.0,-4.7297,-4.6055,-4.663,-4.6787,-4.6839,-4.7048,-4.71,-4.71,-4.71,-4.71,-4.71,-4.71,-4.71,-4.7153,-4.7362,-4.7414,-4.7545,-4.7911,-4.7496,-4.717,-4.718,-4.6755,-4.6522,0.0,0.0,0.0,-4.6376,-4.7682,-4.836,-4.8033,-4.8335,-4.851,-4.851,-4.851,-4.851,-4.851,-4.851,-4.851,-4.851,-4.851,-4.851,-4.8535,-4.8887,-4.8862,-4.8535,-4.8912,-4.8736,-4.8209,-4.8209,-4.8083,-4.7908,-4.7908,-4.7707,-4.7405,-4.7405,-4.7079,-4.6577,0.0,0.0,-5.1218,0.0,0.0,0.0,0.0,0.0,0.0,0.0,0.0,0.0,0.0,0.0,0.0,0.0,0.0,0.0,-5.2164,-5.3044,-5.4465,-5.6596,-5.7374,-5.8118,-5.8896,-5.9607,-5.9641,-5.8964,-5.8287,-5.7915,-5.7881,-5.7137,-5.7171,-5.7881,-5.7848,-5.7814,-5.7848,-5.7881,-5.8287,-5.8612,-5.5548,-5.5094,-5.5892,-5.2828,0.0,0.0,0.0,0.0,0.0,0.0,-5.2144,-5.2544,-5.1959,-5.2637,-5.3254,-5.1143,-5.0531,-5.0091,-4.802,-4.6995,-4.6656,-4.7231,-4.733,-4.7519,-4.8068,-4.8172,-4.8146,-4.8172,-4.8172,-4.8146,0.0,0.0,-4.8381,-4.8956,-4.9035,-4.9035,-4.9035,-4.8797,-4.8205,0.0,0.0,0.0,0.0,0.0,0.0,-4.7958,0.0,-4.959,-4.959,-4.959,-4.959,-4.959,-4.959,-4.959,-4.959,-4.959,-4.959,-4.959,-4.959,-4.959,-4.959,-4.959,-4.959,-4.959,-4.959,-4.9289,-4.8812,-4.8812,-4.8485,-4.7983,-4.7983,-4.7983,-4.7958,-4.7958,-4.7631,-4.7043,0.0,0.0,0.0,0.0,0.0,0.0,0.0,0.0,0.0,0.0,0.0,0.0,0.0,0.0,0.0,0.0,0.0,0.0,-5.142,-5.2739,-5.3991,0.0,0.0,0.0,0.0,0.0,0.0,-5.8186,-5.8558,-5.8457,-5.7881,-5.7137,-5.7171,-5.7881,-5.734,-5.707,-5.7103,-5.7645,-5.7679,-5.7161,-5.5115,-5.4226,-5.3873,0.0,0.0,0.0,0.0,0.0,0.0,0.0,-5.1805,-5.2021,-5.2359,-5.2698,-5.3038,-5.3467,-5.1797,-5.0013,-5.0897,-4.9172,-4.7257,-4.7832,-4.7963,-4.8015,-4.8146,-4.7858,-4.7675,-4.8094,-4.7832,-4.7675,0.0,0.0,0.0,-4.8381,-4.8407,0.0,-4.8407,-4.8172,0.0,-4.7586,0.0,-4.744,-4.7445,-4.817,0.0,0.0,-4.9188,-4.959,-4.959,-4.959,-4.959,-4.959,-4.959,-4.959,-4.959,-4.959,-4.959,-4.959,-4.959,-4.959,-4.959,-4.959,-4.959,-4.959,-4.959,-4.9515,-4.9389,-4.9389,-4.9289,-4.9163,-4.9163,-4.8912,-4.856,-4.856,-4.8184,-4.7682,0.0,0.0,0.0,0.0,0.0,0.0,0.0,0.0,0.0,0.0,0.0,0.0,0.0,0.0,0.0,0.0,0.0,0.0,0.0,-5.1522,-5.2469,0.0,0.0,0.0,0.0,0.0,0.0,0.0,0.0,-5.7814,-5.7408,-5.7002,-5.7171,-5.7881,-5.7476,-5.7103,-5.6833,-5.7239,-5.7374,0.0,0.0,-5.402,0.0,0.0,0.0,0.0,0.0,0.0,0.0,0.0,0.0,-5.1867,-5.2852,-5.3345,-5.3699,-5.4234,0.0,-5.0976,-5.1563,-4.9746,-4.778,-4.812,-4.8172,-4.825,-4.8512,-4.812,-4.7885,-4.846,-4.812,0.0,0.0,0.0,0.0,0.0,0.0,0.0,-4.859,-4.8446,-4.8269,0.0,-4.7932,0.0,-4.8277,-4.8598,-4.8862,0.0,-4.9414,-4.959,-4.959,-4.959,-4.959,-4.959,-4.959,-4.959,-4.959,-4.959,-4.959,-4.959,-4.959,-4.959,-4.959,-4.959,-4.959,-4.959,0.0,-4.959,-4.959,-4.959,-4.959,-4.959,-4.959,-4.9543,-4.9393,-4.9393,-4.9078,-4.8697,0.0,0.0,0.0,0.0,0.0,0.0,0.0,0.0,0.0,0.0,-5.0086,0.0,0.0,0.0,0.0,0.0,0.0,0.0,0.0,0.0,-5.0811,-5.2097,0.0,0.0,0.0,0.0,0.0,0.0,0.0,0.0,-5.6528,-5.6528,-5.6799,-5.7306,-5.7408,-5.7103,-5.6528,-5.6596,-5.7036,-5.7369,-5.4625,-5.4185,0.0,0.0,0.0,0.0,0.0,0.0,0.0,0.0,-5.2329,-5.2052,-5.3314,-5.4129,-5.4667,-5.4287,-5.3414,-5.2358,-5.1214,-4.9716,-4.8405,-4.823,-4.8172,-4.8329,-4.8852,-4.8564,-4.8329,-4.8852,0.0,-4.8172,-4.8172,-4.8172,-4.8355,-4.8878,0.0,-4.8956,-4.8956,-4.8956,-4.8897,-4.8599,-4.8343,-4.8528,-4.9277,-4.9166,-4.919,-4.9629,-4.9654,-4.9654,-4.959,-4.959,-4.959,-4.959,-4.959,-4.959,-4.959,-4.959,-4.959,-4.959,-4.959,-4.959,-4.959,-4.959,-4.959,-4.959,0.0,0.0,-4.959,-4.9719,-4.9719,-4.9654,-4.9719,-4.9912,-5.0168,-5.0168,-5.0053,-4.9933,0.0,0.0,0.0,0.0,0.0,0.0,0.0,0.0,0.0,0.0,-5.2066,-5.1535,0.0,0.0,0.0,0.0,0.0,0.0,0.0,0.0,0.0,-5.1386,0.0,0.0,0.0,0.0,0.0,0.0,0.0,0.0,-5.4972,-5.4972,-5.4735,-5.4296,-5.4905,-5.5074,-5.5006,-5.5649,-5.5987,-5.5984,-5.4722,-5.4018,0.0,0.0,0.0,0.0,0.0,0.0,0.0,0.0,-5.2637,-5.2667,-5.3468,-5.4129,-5.4728,-5.4996,-5.4121,-5.2916,-5.2063,-5.0768,-4.9362,-4.8463,-4.8172,-4.8224,-4.8329,-4.825,0.0,0.0,-4.825,-4.8172,-4.8172,-4.8172,-4.8224,-4.8329,0.0,0.0,0.0,0.0,-4.8329,0.0,0.0,0.0,0.0,0.0,0.0,0.0,0.0,-4.9847,-4.959,-4.959,-4.959,-4.959,-4.959,-4.959,-4.959,-4.959,-4.959,-4.959,-4.959,-4.959,-4.959,-4.959,-4.959,-4.959,-4.9847,0.0,-4.9654,-5.0232,-5.0295,-5.004,-5.0359,-5.0461,-5.055,-5.055,-5.0473,-5.046,0.0,0.0,0.0,0.0,0.0,0.0,0.0,-5.3946,-5.4425,-5.5598,-5.5361,-5.4372,-5.2635,-5.1933,-5.1537,0.0,0.0,0.0,0.0,0.0,0.0,0.0,0.0,0.0,0.0,0.0,0.0,0.0,0.0,0.0,0.0,0.0,0.0,0.0,0.0,0.0,0.0,-5.5412,-5.548,0.0,0.0,0.0,0.0,0.0,0.0,0.0,0.0,0.0,0.0,0.0,-5.2944,-5.3345,-5.3976,-5.4699,-5.5329,-5.5765,-5.4929,-5.3671,-5.2423,-5.1154,-4.9788,-4.8495,-4.7963,-4.7911,-4.8512,0.0,0.0,0.0,-4.8643,-4.8643,-4.8643,-4.8643,0.0,0.0,0.0,0.0,0.0,0.0,0.0,0.0,0.0,0.0,0.0,0.0,0.0,0.0,0.0,-5.0232,-4.9847,-5.004,-5.004,-4.9873,-4.9847,-4.9783,-4.959,-4.959,-4.959,-4.959,-4.9783,-4.9847,-4.9873,-5.004,-5.0104,-5.0168,-5.0295,0.0,-5.0168,-5.0461,-5.055,-5.0359,-5.0525,-5.0715,-5.0867,-5.0867,-5.0968,-5.1094,0.0,0.0,0.0,0.0,0.0,0.0,0.0,-5.5874,-5.6495,-5.8185,-5.8116,-5.698,-5.4645,-5.3357,-5.255,0.0,0.0,0.0,0.0,0.0,0.0,0.0,0.0,0.0,0.0,0.0,0.0,0.0,0.0,0.0,0.0,0.0,0.0,0.0,0.0,0.0,0.0,0.0,0.0,0.0,0.0,0.0,0.0,0.0,0.0,0.0,0.0,0.0,0.0,0.0,-5.3375,-5.4052,-5.4683,-5.5284,-5.579,-5.6255,-5.5739,-5.4595,-5.2987,-5.1618,-5.0351,-4.8828,-4.788,-4.7597,-4.8643,-4.8538,0.0,-4.8956,-4.9087,-4.9035,-4.8904,-4.8982,-4.9087,0.0,0.0,0.0,0.0,0.0,0.0,0.0,0.0,0.0,0.0,0.0,0.0,0.0,0.0,0.0,-5.0232,-5.0423,-5.0359,-5.0129,-5.0129,-4.9976,-4.9719,-4.9783,-4.9783,-4.9847,-5.0104,-5.0232,-5.0232,-5.0487,-5.0588,-5.0588,-5.0652,0.0,0.0,-5.0778,-5.0778,-5.0715,-5.0778,-5.0994,-5.1246,-5.1246,-5.1346,-5.1596,0.0,0.0,0.0,0.0,0.0,0.0,0.0,-5.6702,-5.7495,-5.9702,-5.8771,-5.8047,-5.8427,-5.6918,-5.5518,0.0,0.0,0.0,0.0,0.0,0.0,0.0,0.0,0.0,0.0,0.0,0.0,0.0,0.0,0.0,0.0,0.0,0.0,0.0,0.0,0.0,0.0,0.0,0.0,0.0,0.0,0.0,0.0,0.0,0.0,0.0,0.0,0.0,0.0,0.0,0.0,-5.4714,-5.5407,-5.5653,-5.579,-5.6255,0.0,0.0,-5.442,-5.2958,-5.1506,-4.9776,-4.8332,-4.7492,-4.812,0.0,-4.8355,-4.8956,-4.9087,-4.8904,-4.8355,-4.8721,-4.9087,0.0,0.0,0.0,0.0,0.0,0.0,0.0,0.0,0.0,0.0,0.0,0.0,0.0,0.0,0.0,-5.0588,-5.0295,-5.0129,-5.0129,-5.0129,-5.0129,-5.0065,-5.0359,-5.0525,-5.0525,-5.0525,-5.0525,-5.0525,-5.0588,-5.0588,-5.0588,-5.0931,0.0,0.0,-5.1283,-5.1346,-5.1057,-5.1408,-5.1534,-5.1534,-5.1534,-5.1596,-5.1596,0.0,0.0,0.0,0.0,0.0,0.0,-5.7288,-5.746,-5.8288,-6.0565,-6.0323,-6.0254,-6.1013,-5.9422,-5.7397,-5.5212,0.0,0.0,0.0,0.0,0.0,0.0,0.0,0.0,0.0,0.0,0.0,0.0,0.0,0.0,0.0,0.0,0.0,0.0,0.0,0.0,0.0,0.0,0.0,0.0,0.0,0.0,0.0,0.0,0.0,0.0,0.0,0.0,0.0,0.0,0.0,0.0,-5.5345,-5.5438,-5.5206,0.0,-5.6278,-5.625,-5.435,-5.2849,-5.1456,-4.9885,-4.815,-4.697,-4.7545,0.0,-4.859,-4.812,-4.859,-4.9008,-4.8773,-4.8616,-4.8773,0.0,0.0,0.0,0.0,0.0,0.0,0.0,0.0,0.0,0.0,0.0,0.0,0.0,0.0,0.0,-5.122,-5.1094,-5.0931,-5.0677,-5.0677,-5.0614,-5.0423,-5.0525,-5.0588,-5.0588,-5.0804,-5.0931,-5.0931,-5.1094,-5.122,-5.122,-5.1346,0.0,0.0,-5.1471,-5.1534,-5.1408,-5.1534,-5.1596,-5.1596,-5.1596,-5.1596,-5.1596,0.0,0.0,0.0,0.0,0.0,-5.6736,-5.8047,-5.8254,-5.8978,-6.1047,-6.1116,-6.1253,-6.1975,-6.0587,-5.8627,-5.6235,-5.5179,0.0,0.0,0.0,0.0,0.0,0.0,0.0,0.0,0.0,-5.4329,-5.5378,-5.4566,0.0,0.0,0.0,0.0,0.0,0.0,0.0,0.0,0.0,0.0,0.0,0.0,0.0,0.0,0.0,0.0,0.0,0.0,0.0,0.0,0.0,0.0,-5.4237,-5.5592,-5.5684,-5.5376,-5.5622,-5.593,-5.5831,-5.4364,-5.2767,-5.1223,-4.9895,-4.8163,-4.6855,0.0,0.0,-4.8381,-4.7728,-4.825,-4.8773,-4.859,-4.8512,-4.8721,0.0,0.0,0.0,0.0,0.0,0.0,0.0,0.0,0.0,0.0,0.0,0.0,0.0,0.0,0.0,-5.1596,-5.1596,-5.1471,-5.112,-5.112,-5.0994,-5.0715,-5.0842,-5.0905,-5.0905,-5.112,-5.1246,-5.1246,-5.1471,-5.1596,-5.1596,0.0,0.0,0.0,-5.1596,-5.1596,-5.1596,-5.1596,-5.1596,-5.1596,-5.1596,-5.1596,-5.1596,0.0,0.0,0.0,0.0,0.0,0.0,-5.8875,-5.9012,-5.9564,-6.1116,-6.0668,-6.0425,-6.0968,-6.017,-5.9204,-5.8241,0.0,0.0,0.0,0.0,0.0,0.0,0.0,0.0,0.0,0.0,-5.46,-5.46,-5.5344,-5.5647,-5.5716,-5.5647,-5.531,-5.4566,0.0,0.0,0.0,0.0,-5.3923,0.0,0.0,0.0,-5.6586,0.0,0.0,0.0,0.0,0.0,0.0,0.0,0.0,0.0,0.0,-5.6779,-5.6656,-5.5899,-5.5253,-5.4714,-5.4683,-5.3066,-5.1143,-4.9975,-4.8503,-4.7277,0.0,-4.7278,-4.7461,-4.8068,-4.8172,-4.8015,-4.7466,-4.8303,-4.9087,0.0,0.0,0.0,0.0,0.0,0.0,0.0,0.0,0.0,0.0,0.0,0.0,0.0,0.0,0.0,-5.1596,-5.1596,-5.1471,-5.112,-5.112,-5.112,-5.112,-5.1408,-5.1596,-5.1596,-5.1596,-5.1596,-5.1596,-5.1596,-5.1596,0.0,0.0,0.0,0.0,-5.1596,-5.1596,-5.1596,-5.1596,-5.1596,-5.1596,-5.1596,-5.1596,-5.1596,0.0,0.0,0.0,0.0,0.0,0.0,0.0,-5.9012,-5.9392,-6.0427,-6.0218,-6.0249,-6.0933,-6.0027,-5.9264,-5.8989,0.0,0.0,0.0,0.0,0.0,0.0,0.0,0.0,0.0,0.0,-5.5852,-5.6833,-5.6596,-5.6697,-5.7171,-5.6697,-5.6055,-5.5344,-5.5344,-5.5243,0.0,-5.5006,-5.5141,0.0,0.0,-5.6596,-5.6653,0.0,0.0,0.0,0.0,0.0,0.0,0.0,0.0,0.0,0.0,0.0,0.0,-5.5099,-5.5561,-5.5807,-5.4422,-5.3187,-5.2062,-5.1128,-4.9494,-4.8001,-4.7469,-4.7622,-4.7623,-4.663,-4.6734,-4.697,-4.6787,-4.7048,-4.7702,-4.8878,0.0,0.0,0.0,0.0,0.0,0.0,0.0,0.0,0.0,0.0,0.0,0.0,0.0,0.0,-5.1596,-5.1596,-5.1534,-5.1471,-5.1408,-5.1408,-5.1408,-5.1534,-5.1596,-5.1596,-5.1596,-5.1596,-5.1596,-5.1596,-5.1596,0.0,0.0,0.0,0.0,-5.1596,-5.1596,-5.1596,-5.1596,-5.1596,-5.1596,-5.1596,-5.1596,-5.1596,0.0,0.0,0.0,0.0,0.0,0.0,0.0,-5.9012,-5.9185,-5.9668,-5.9633,-5.9767,-6.0414,-5.9581,-5.906,-5.9186,0.0,0.0,0.0,0.0,0.0,0.0,0.0,0.0,-5.5006,-5.6021,-5.6833,-5.7476,-5.7577,-5.7712,-5.7881,-5.7712,-5.7103,-5.6156,-5.6427,-5.6224,0.0,-5.6596,-5.663,-5.6258,-5.7509,-5.7712,-5.7094,0.0,0.0,0.0,0.0,0.0,0.0,0.0,0.0,0.0,0.0,0.0,0.0,0.0,-5.5315,-5.6023,-5.4514,-5.3533,-5.2792,-5.1771,-5.0186,-4.8625,-4.7645,-4.7291,-4.6917,-4.5846,-4.5924,-4.6212,-4.6447,-4.6656,-4.731,-4.8826,-4.859,0.0,0.0,0.0,0.0,0.0,0.0,0.0,0.0,0.0,0.0,0.0,0.0,0.0,-5.1596,-5.1596,-5.1596,-5.1596,-5.1596,-5.1596,-5.1596,-5.1596,-5.1596,-5.1596,-5.1596,-5.1596,-5.1596,-5.1596,-5.1596,0.0,0.0,0.0,0.0,-5.1596,-5.1596,-5.1596,-5.1596,-5.1596,-5.1596,-5.1596,-5.1596,-5.1596,0.0,0.0,0.0,0.0,0.0,0.0,0.0,-5.9012,-5.9012,-5.9012,-5.8978,-5.9116,-5.9447,-5.8864,-5.8585,0.0,0.0,0.0,0.0,0.0,0.0,0.0,0.0,0.0,-5.5886,-5.7239,-5.7679,-5.7137,-5.849,-5.8829,-5.8152,-5.8863,-5.8389,-5.7002,-5.7679,-5.7205,-5.6021,-5.8051,-5.8152,-5.707,-5.9133,-5.9099,0.0,0.0,0.0,0.0,0.0,0.0,0.0,0.0,0.0,0.0,0.0,0.0,0.0,0.0,0.0,0.0,0.0,-5.4182,-5.3398,-5.2059,-5.0709,-4.9322,-4.7864,-4.6637,0.0,-4.5637,-4.5634,-4.5898,-4.6395,-4.7022,-4.7806,-4.8852,-4.8616,0.0,0.0,-4.9374,0.0,0.0,0.0,0.0,0.0,0.0,0.0,0.0,0.0,0.0,-5.1596,-5.1596,-5.1596,-5.1596,-5.1596,-5.1596,-5.1596,-5.1596,-5.1596,-5.1596,-5.1596,-5.1596,-5.1596,-5.1596,-5.1596,0.0,0.0,0.0,0.0,-5.1596,-5.1596,-5.1596,-5.1596,-5.1596,-5.1596,-5.1596,-5.1596,-5.1596,0.0,0.0,0.0,0.0,0.0,0.0,0.0,0.0,0.0,0.0,-5.8771,-5.8664,-5.8729,-5.8343,-5.8058,0.0,0.0,0.0,0.0,0.0,0.0,0.0,0.0,0.0,-5.7374,-5.8287,-5.9235,-6.025,-6.0588,-6.0689,-6.0486,-6.0689,-5.9945,-5.849,-5.866,-5.8254,-5.7408,-5.7949,-5.7949,-5.7679,-5.8186,-5.8186,0.0,0.0,0.0,0.0,-5.3935,-5.2664,0.0,0.0,0.0,0.0,0.0,0.0,0.0,0.0,-5.3129,-5.4145,-5.3991,0.0,-5.4962,-5.404,-5.2733,-5.1252,0.0,-4.8299,-4.7219,-4.5849,-4.626,-4.6839,-4.6525,-4.7675,-4.8616,-4.8433,-4.9008,-4.9453,-4.9296,0.0,0.0,0.0,0.0,0.0,0.0,0.0,0.0,0.0,0.0,-5.1596,-5.1596,-5.1596,-5.1596,-5.1596,-5.1596,-5.1596,-5.1596,-5.1596,-5.1596,-5.1596,-5.1596,-5.1596,-5.1596,-5.1596,-5.1596,0.0,0.0,0.0,-5.1596,-5.1596,-5.1596,-5.1596,-5.1596,-5.1596,-5.1596,-5.1596,-5.1596,-5.1596,0.0,0.0,0.0,0.0,0.0,0.0,0.0,0.0,0.0,0.0,0.0,0.0,0.0,0.0,0.0,0.0,0.0,0.0,0.0,0.0,0.0,0.0,0.0,-5.849,-5.8896,-5.9674,-6.0283,-6.0757,-6.1129,-6.1129,-6.0757,-6.1129,-6.0655,-5.9505,-5.9167,-5.8795,-5.8423,-5.8761,-5.8524,-5.7949,-5.8626,0.0,0.0,0.0,0.0,0.0,-5.3783,-5.2597,0.0,-5.1652,-5.1498,-5.1221,0.0,0.0,0.0,0.0,-5.2206,-5.279,-5.279,-5.3991,-5.5125,-5.4612,-5.28,-5.0921,-5.0079,-4.8382,-4.6892,-4.6477,-4.6834,-4.7414,-4.7623,-4.8015,-4.8355,-4.8564,-4.8669,0.0,0.0,0.0,0.0,0.0,0.0,0.0,0.0,0.0,0.0,0.0,0.0,-5.1596,-5.1596,-5.1596,-5.1596,-5.1596,-5.1596,-5.1596,-5.1596,-5.1596,-5.1596,-5.1596,-5.1596,-5.1596,-5.1596,-5.1596,-5.1596,0.0,0.0,0.0,-5.1596,-5.1596,-5.1596,-5.1596,-5.1596,-5.1596,-5.1596,-5.1596,-5.1596,-5.1596,0.0,0.0,0.0,0.0,0.0,0.0,0.0,0.0,0.0,0.0,0.0,0.0,0.0,0.0,0.0,0.0,0.0,0.0,0.0,0.0,0.0,0.0,0.0,-6.0148,-6.0283,-6.096,-6.1028,-6.0452,-6.1129,-6.1129,-6.0452,-6.1163,-6.1028,-6.025,-5.9404,-5.9032,-5.9032,-5.9539,-5.9032,-5.7983,-5.9268,0.0,0.0,0.0,0.0,0.0,0.0,0.0,0.0,-5.1159,-5.1313,-5.1682,-5.159,0.0,0.0,0.0,0.0,0.0,-5.1405,-5.2729,-5.4144,-5.4256,-5.2131,-5.0058,-5.0441,-4.8245,-4.6428,-4.7388,-4.7675,-4.7989,-4.8799,-4.8198,0.0,0.0,0.0,0.0,-4.893,-4.9401,0.0,0.0,0.0,0.0,0.0,0.0,0.0,0.0,0.0,-5.1596,-5.1596,-5.1596,-5.1596,-5.1596,-5.1596,-5.1596,-5.1596,-5.1596,-5.1596,-5.1596,-5.1596,-5.1596,-5.1596,-5.1596,-5.1596,-5.1596,0.0,0.0,-5.1596,-5.1596,-5.1596,-5.1596,-5.1596,-5.1596,-5.1596,-5.1596,-5.1596,-5.1596,0.0,0.0,0.0,0.0,0.0,0.0,0.0,0.0,0.0,0.0,0.0,0.0,0.0,0.0,0.0,0.0,0.0,0.0,0.0,0.0,0.0,0.0,-6.0419,-6.0419,-6.1095,-6.1231,-6.1535,-6.2042,-6.2144,-6.2144,-6.2042,-6.2144,-6.1839,-6.1061,-5.9641,-5.9032,-5.8998,-5.8457,-5.8084,-5.7915,-5.8152,0.0,0.0,0.0,0.0,0.0,0.0,0.0,0.0,-5.2236,-5.2082,-5.159,-5.1036,0.0,0.0,0.0,0.0,0.0,-4.9989,-5.0636,-5.1656,-5.3116,-5.2326,-5.1193,-5.1056,-4.9748,-4.8625,-4.8786,-4.9165,-4.9244,0.0,-4.859,-4.8538,0.0,0.0,-4.8303,0.0,0.0,0.0,0.0,0.0,0.0,0.0,0.0,0.0,0.0,0.0,-5.1596,-5.1596,-5.1596,-5.1596,-5.1596,-5.1596,-5.1596,-5.1596,-5.1596,-5.1596,-5.1596,-5.1596,-5.1596,-5.1596,-5.1596,-5.1596,-5.1596,0.0,-5.1596,-5.1596,-5.1596,-5.1596,-5.1596,-5.1596,-5.1596,-5.1596,-5.1596,-5.1596,-5.1596,0.0,0.0,0.0,0.0,0.0,0.0,0.0,0.0,0.0,0.0,0.0,0.0,0.0,0.0,0.0,0.0,0.0,0.0,0.0,0.0,0.0,-6.1873,-6.1535,-6.1501,-6.1873,-6.1873,-6.2042,-6.2381,-6.2381,-6.2381,-6.2381,-6.2381,-6.2212,-6.1839,-6.0757,-6.025,-6.0182,-5.9404,-5.9099,-5.9032,0.0,0.0,0.0,0.0,0.0,0.0,0.0,0.0,0.0,0.0,-5.1959,-5.159,-5.0913,0.0,0.0,0.0,0.0,0.0,-4.9097,-4.9897,-5.0826,-5.1316,-5.0879,-5.0348,-5.0531,-4.9554,-4.8468,-4.8189,0.0,0.0,0.0,0.0,-4.7963,-4.7357,0.0,-4.8381,0.0,0.0,0.0,0.0,0.0,0.0,0.0,0.0,0.0,0.0,0.0,0.0,-5.1596,-5.1596,-5.1596,-5.1596,-5.1596,-5.1596,-5.1596,-5.1596,-5.1596,-5.1596,-5.1596,-5.1596,-5.1596,-5.1596,-5.1596,-5.1596,0.0,-5.1596,-5.1596,-5.1596,-5.1596,-5.1596,-5.1596,-5.1805,-5.2119,-5.2459,-5.2563,-5.2563,0.0,0.0,0.0,0.0,0.0,0.0,0.0,0.0,0.0,0.0,0.0,0.0,0.0,0.0,0.0,0.0,0.0,0.0,0.0,0.0,-6.1806,-6.2381,-6.2381,-6.2381,-6.2381,-6.2381,-6.2381,-6.2381,-6.2381,-6.2381,-6.2381,-6.2381,-6.2313,-6.211,-6.1535,-6.1197,-6.0994,-6.0351,-6.0114,-6.0047,0.0,0.0,0.0,0.0,0.0,0.0,0.0,0.0,0.0,0.0,0.0,0.0,0.0,0.0,0.0,-4.9528,-4.9035,-4.8604,-4.8604,-4.9528,-5.0488,-5.0479,-5.003,-4.9708,-5.0303,-4.9243,-4.8104,-4.7959,0.0,0.0,0.0,-4.7623,0.0,-4.7519,-4.7911,-4.8381,0.0,0.0,0.0,0.0,0.0,0.0,0.0,0.0,0.0,0.0,0.0,0.0,-5.1596,-5.1596,-5.1596,-5.1596,-5.1596,-5.1596,-5.1596,-5.1596,-5.1596,-5.1596,-5.1596,-5.1596,-5.1596,-5.1596,-5.1596,-5.1596,-5.1596,-5.1596,-5.1596,-5.1753,-5.1805,-5.1831,-5.1962,-5.2302,-5.2772,-5.3217,-5.34,-5.34,0.0,0.0,0.0,0.0,0.0,0.0,0.0,0.0,0.0,0.0,0.0,0.0,0.0,0.0,0.0,0.0,0.0,0.0,-6.1298,-6.1941,-6.2347,-6.2381,-6.2381,-6.2381,-6.2381,-6.2381,-6.2381,-6.2381,-6.2381,-6.2381,-6.2381,-6.2381,-6.2009,-6.1366,-6.1332,-6.0892,-6.0182,-6.0114,-6.0114,-6.0114,-6.0047,0.0,0.0,0.0,0.0,0.0,0.0,0.0,0.0,0.0,0.0,0.0,0.0,0.0,-5.0359,-4.9066,-4.8666,-4.8604,-4.8604,-4.9158,-5.0162,-5.174,-5.128,-5.0569,-5.1071,-4.9657,-4.8468,-4.94,0.0,0.0,0.0,-4.7304,-4.7492,-4.8041,-4.8146,-4.8381,0.0,0.0,0.0,0.0,0.0,0.0,0.0,0.0,0.0,0.0,0.0,0.0,-5.1596,-5.1596,-5.1596,-5.1596,-5.1596,-5.1596,-5.1596,-5.1596,-5.1596,-5.1596,-5.1596,-5.1596,-5.1596,-5.1596,-5.1596,-5.1596,-5.1596,-5.1596,-5.1648,-5.2197,-5.2433,-5.2485,-5.3034,-5.3295,-5.3347,-5.3373,-5.34,-5.34,0.0,0.0,0.0,0.0,0.0,0.0,0.0,0.0,0.0,0.0,0.0,0.0,0.0,0.0,0.0,0.0,0.0,0.0,-6.1941,-6.2245,-6.2381,-6.2381,-6.2381,-6.2381,-6.2381,-6.2854,-6.2854,-6.2381,-6.2381,-6.2381,-6.2381,-6.2381,-6.2009,-6.1332,-6.1772,-6.1569,-6.0892,-6.1332,-6.1535,-6.1501,-6.1028,-6.0216,0.0,0.0,0.0,0.0,0.0,0.0,0.0,0.0,-5.2698,-5.2544,-5.1621,-5.1036,-5.0513,-4.9558,-4.8974,-4.8881,-5.0174,-5.042,-5.0746,-5.2474,-5.2657,-5.2103,-5.0953,-4.9075,-4.7484,-4.7227,-4.7148,0.0,0.0,0.0,-4.7649,-4.859,-4.8747,0.0,0.0,0.0,0.0,0.0,0.0,0.0,0.0,0.0,0.0,0.0,0.0,0.0,0.0,-5.1596,-5.1596,-5.1596,-5.1596,-5.1596,-5.1596,-5.1596,-5.1596,-5.1596,-5.1596,-5.1596,-5.1596,-5.1596,-5.1596,-5.1622,-5.1988,-5.2145,-5.2197,-5.2798,-5.306,-5.3112,-5.3687,-5.3896,-5.3949,-5.4314,-5.4445,-5.4445,0.0,0.0,0.0,0.0,0.0,0.0,0.0,0.0,0.0,0.0,0.0,0.0,0.0,0.0,0.0,0.0,0.0,0.0,-6.2347,-6.2381,-6.2381,-6.2381,-6.2381,-6.2381,-6.2381,-6.3125,-6.3159,-6.2381,-6.2381,-6.2381,-6.2381,-6.2381,-6.1873,-6.096,-6.1941,-6.1839,-6.0994,-6.1975,-6.2381,-6.2313,-6.1603,-6.0825,0.0,0.0,0.0,0.0,0.0,0.0,0.0,0.0,-5.2698,-5.2606,-5.1929,-5.1251,-5.0574,-4.9897,-4.9189,-4.8974,-5.0636,-5.119,-5.1669,-5.3055,-5.3438,-5.3099,-5.1686,-4.9739,-4.7973,-4.7109,-4.6978,-4.731,-4.8303,0.0,0.0,0.0,0.0,0.0,0.0,0.0,0.0,0.0,0.0,0.0,0.0,0.0,0.0,0.0,0.0,0.0,0.0,-5.1596,-5.1596,-5.1596,-5.1596,-5.1596,-5.1596,-5.1596,-5.1596,-5.1596,-5.1596,-5.1701,-5.1884,-5.1675,-5.1805,-5.2171,-5.2406,-5.2616,-5.2889,-5.3889,-5.4682,-5.5253,-5.5628,-5.5789,-5.5843,-5.618,-5.6105,-5.5776,0.0,0.0,0.0,0.0,0.0,0.0,0.0,0.0,0.0,0.0,0.0,0.0,0.0,0.0,0.0,0.0,-6.2381,-6.2381,-6.2381,-6.2381,-6.2381,-6.2381,-6.2381,-6.2381,-6.2381,-6.3125,-6.3159,-6.2415,-6.2381,-6.2381,-6.2381,-6.2381,-6.1569,-6.0182,0.0,0.0,0.0,0.0,0.0,-6.2313,-6.1603,-6.0825,-5.9937,0.0,0.0,0.0,0.0,0.0,0.0,0.0,-5.2698,-5.2606,-5.1929,-5.1251,-5.0574,-4.9897,-4.9189,-4.8789,-4.9528,-5.119,-5.2883,-5.3591,-5.3561,-5.3423,-5.3402,-5.1856,-5.0258,-4.9855,-4.8921,-4.8355,-4.8982,0.0,0.0,-4.9087,0.0,0.0,0.0,0.0,0.0,0.0,0.0,0.0,0.0,0.0,0.0,0.0,0.0,0.0,0.0,-5.1596,-5.1596,-5.1596,-5.1596,-5.1596,-5.1596,-5.1596,-5.1596,-5.1596,-5.1596,-5.191,-5.2485,-5.1884,-5.225,-5.3373,-5.2772,-5.2851,-5.3555,-5.5445,-5.7382,-5.9127,-5.9127,-5.9127,-5.9127,-5.9127,-5.825,-5.7322,0.0,0.0,0.0,0.0,0.0,0.0,0.0,0.0,0.0,0.0,0.0,0.0,0.0,0.0,0.0,0.0,0.0,-6.2381,-6.2381,-6.2381,-6.2381,-6.2381,-6.2381,-6.2381,-6.2381,-6.2618,-6.2854,-6.3193,-6.2651,-6.2381,-6.2381,-6.1873,-6.1366,-6.096,0.0,0.0,0.0,0.0,0.0,-6.2313,-6.1603,-6.0825,-5.9937,0.0,0.0,0.0,0.0,0.0,0.0,0.0,0.0,0.0,-5.2483,-5.1621,-5.0759,-5.1036,-5.0636,-5.0636,-5.3221,-5.3314,-5.3345,-5.593,-5.5315,-5.4117,-5.4405,-5.1908,0.0,0.0,-4.8431,-4.8355,-4.8982,0.0,0.0,0.0,0.0,0.0,0.0,0.0,0.0,0.0,0.0,0.0,0.0,0.0,0.0,0.0,0.0,0.0,0.0,-5.1596,-5.1596,-5.1596,-5.1596,-5.1596,-5.1596,-5.1596,-5.1596,-5.1596,-5.2014,-5.2328,-5.2485,-5.2302,-5.2668,-5.34,-5.3609,-5.4349,-5.5535,-5.7409,-5.8585,-5.9127,-5.9127,-5.9127,-5.9127,-5.9127,-5.8877,-5.8439,0.0,0.0,0.0,0.0,0.0,0.0,0.0,0.0,-6.4749,-6.5189,-6.5256,-6.5087,0.0,0.0,0.0,-6.2482,-6.2381,-6.2381,-6.2381,-6.2381,-6.2381,-6.2381,-6.2381,-6.2381,-6.2381,-6.211,-6.2178,-6.2651,-6.2482,0.0,0.0,0.0,-6.1569,-6.1332,0.0,-6.1569,0.0,0.0,0.0,-6.14,-6.0689,-5.9722,-5.8567,0.0,0.0,0.0,0.0,0.0,0.0,0.0,0.0,0.0,-5.2298,-5.1559,-5.082,-5.1498,-5.1221,-5.119,-5.3498,-5.3622,-5.3683,-5.5992,-5.5783,-5.4873,-5.4401,0.0,0.0,0.0,-4.8381,-4.859,-4.8695,-4.8616,0.0,0.0,0.0,0.0,0.0,0.0,0.0,0.0,0.0,0.0,0.0,0.0,0.0,0.0,0.0,0.0,0.0,-5.1596,-5.1596,-5.1596,-5.1596,-5.1596,-5.1596,-5.1596,-5.1727,-5.1962,-5.2328,-5.2746,-5.3164,-5.2955,-5.3591,-5.4872,-5.5217,-5.6101,-5.7409,-5.8585,-5.9745,-6.0687,-6.0687,-6.0687,-6.0687,-6.0687,-6.0323,-5.9834,0.0,0.0,0.0,0.0,0.0,0.0,0.0,-6.3802,-6.4681,-6.4613,-6.4613,-6.458,0.0,0.0,0.0,-6.2448,-6.2381,-6.2381,-6.2381,-6.2381,-6.2381,-6.2381,-6.2302,-6.2302,-6.2381,-6.1582,-6.1172,-6.1182,-6.1834,-6.2212,0.0,0.0,-6.1907,-6.1434,0.0,-6.1839,0.0,0.0,-6.0723,-6.0047,-5.9235,-5.8043,-5.6713,-5.5708,0.0,0.0,0.0,0.0,0.0,0.0,0.0,0.0,-5.1621,-5.119,-5.082,-5.1436,-5.1251,-5.1036,-5.1713,-5.279,-5.3883,-5.4745,-5.5498,-5.5561,-5.3808,-5.2591,-5.1182,-4.8842,0.0,-4.8826,-4.8277,0.0,0.0,0.0,0.0,0.0,0.0,0.0,0.0,0.0,0.0,0.0,0.0,0.0,0.0,0.0,0.0,0.0,0.0,-5.1596,-5.1659,-5.1783,-5.1783,-5.1783,-5.1783,-5.1836,-5.2062,-5.2485,-5.2616,-5.3191,-5.4184,-5.3817,-5.4975,-5.7258,-5.7386,-5.8151,-5.9313,-5.9436,-6.0868,-6.3079,-6.3079,-6.3079,-6.3079,-6.3079,-6.2321,-6.1465,0.0,0.0,0.0,0.0,0.0,0.0,-6.414,-6.4884,-6.5256,-6.4681,-6.4613,-6.4377,-6.3802,-6.3599,0.0,-6.2448,-6.2381,-6.2381,-6.2381,-6.2381,-6.2381,-6.2381,-6.1676,-6.1635,-6.2381,-6.0812,-6.0041,-6.0291,-6.0482,-6.0926,0.0,0.0,0.0,-6.211,0.0,-6.0858,0.0,-6.0013,-5.9742,-5.9979,-5.866,-5.8278,-5.8249,-5.6112,-5.519,0.0,0.0,0.0,0.0,0.0,0.0,0.0,-5.0913,-5.082,-5.0728,-5.0882,-5.1559,-5.2421,-5.3098,-5.3498,-5.4175,-5.6255,-5.6575,-5.593,-5.3844,-5.3203,-5.2377,-5.0041,-4.8948,-4.8329,0.0,0.0,0.0,0.0,0.0,0.0,0.0,0.0,0.0,0.0,0.0,0.0,0.0,0.0,0.0,0.0,0.0,0.0,-5.1596,-5.1596,-5.2068,-5.3086,-5.3086,-5.3086,-5.3086,-5.357,-5.3334,0.0,-5.34,-5.3949,-5.4249,-5.5168,-5.674,-5.8752,-5.9773,-6.0413,-6.0776,-6.1821,-6.2585,-6.3079,-6.3079,-6.3079,-6.3079,-6.3079,-6.2905,-6.2585,0.0,0.0,0.0,0.0,0.0,0.0,0.0,0.0,-6.4918,-6.4174,-6.3768,-6.3531,-6.3531,-6.3193,0.0,0.0,-6.2381,-6.2381,-6.2381,-6.2381,-6.2381,-6.2381,-6.1951,-6.1676,-6.175,-6.0448,-5.9591,-5.9207,-5.8929,-5.9172,0.0,0.0,0.0,-6.058,0.0,-6.0242,0.0,-5.949,-5.8976,-5.8835,-5.7729,-5.7,-5.6439,-5.5155,-5.4624,-5.4364,-5.3148,0.0,0.0,0.0,0.0,0.0,0.0,0.0,-5.0328,-5.0974,-5.1682,-5.239,-5.3067,-5.3252,-5.3653,-5.5442,0.0,-5.6516,-5.4862,-5.3987,-5.3227,-5.1863,-5.0182,-4.8988,0.0,0.0,0.0,0.0,0.0,0.0,0.0,0.0,0.0,0.0,0.0,0.0,0.0,0.0,0.0,0.0,0.0,-5.1596,-5.1596,-5.2192,-5.278,-5.351,-5.4084,-5.458,-5.4884,-5.5215,-5.5291,-5.5274,-5.5808,-5.6586,-5.7492,-5.6923,-5.7504,-5.9127,-5.9834,-6.0534,-6.1137,-6.1821,-6.2526,-6.3079,-6.3079,-6.3079,-6.3079,-6.3079,-6.3079,-6.3021,0.0,0.0,0.0,0.0,0.0,0.0,0.0,0.0,0.0,-6.3429,-6.2787,-6.2618,-6.326,-6.2753,-6.2347,0.0,0.0,0.0,-6.2009,-6.211,-6.2206,-6.215,-6.1991,-6.1635,-6.0986,-5.9933,-5.8991,-5.8151,-5.7527,-5.7472,0.0,0.0,0.0,-5.8604,0.0,0.0,0.0,0.0,-5.7802,-5.7377,-5.6513,-5.5507,-5.4485,-5.4241,-5.4066,-5.3849,-5.3113,-5.239,-5.159,-5.0913,0.0,0.0,0.0,0.0,-4.9897,-5.1036,-5.1436,-5.1713,-5.2513,-5.293,-5.3331,-5.4126,-5.5712,0.0,-5.5802,-5.4815,-5.3987,-5.3727,-5.1837,0.0,0.0,0.0,0.0,0.0,0.0,0.0,0.0,0.0,0.0,0.0,0.0,0.0,0.0,0.0,0.0,0.0,0.0,-5.1596,-5.1596,-5.278,-5.3631,-5.3784,-5.5144,-5.6156,-5.6724,-5.6951,-5.7454,-5.8198,-5.8311,-5.9322,-6.1017,-5.8592,-5.8313,-5.9806,-5.9806,-6.0445,-6.1465,-6.1465,-6.2087,-6.3079,-6.3079,-6.3079,-6.3079,-6.3079,-6.3079,-6.3079,0.0,0.0,0.0,0.0,0.0,0.0,0.0,0.0,0.0,0.0,-6.2448,-6.2415,-6.2516,-6.2448,-6.2144,-6.1501,-6.1467,-6.1163,-6.0452,0.0,0.0,-6.1193,-6.044,-6.0312,-6.0986,-5.8542,-5.7261,-5.7286,-5.6981,-5.6605,0.0,0.0,0.0,-5.8464,0.0,0.0,0.0,0.0,0.0,0.0,0.0,0.0,-5.668,-5.5375,-5.4869,-5.4713,-5.3864,-5.276,-5.159,-5.0913,-5.0236,0.0,0.0,0.0,-4.9712,-4.9897,-5.0359,-5.1097,-5.2359,-5.3806,-5.4844,0.0,-5.5056,-5.5741,0.0,0.0,-5.5027,0.0,0.0,0.0,0.0,0.0,0.0,0.0,0.0,0.0,0.0,0.0,0.0,0.0,0.0,0.0,0.0,0.0,0.0,0.0,-5.1596,-5.1596,-5.1596,-5.278,-5.4024,-5.5091,-5.6909,-5.7887,-5.7974,-5.9044,-5.9145,-5.8226,-5.8761,-5.9749,-6.1017,-5.9498,-6.0202,-6.2585,-6.2585,-6.2643,-6.2817,-6.2817,-6.2963,-6.3079,-6.3079,-6.3079,-6.3079,-6.3079,-6.3079,-6.3079,0.0,0.0,0.0,0.0,0.0,0.0,0.0,0.0,0.0,0.0,0.0,-6.2381,-6.2381,-6.2009,-6.1637,-6.1332,-6.0892,-6.0486,-6.0114,-6.0419,-6.0337,-5.9768,-5.9358,-5.8857,-5.826,-5.7055,-5.62,-5.5781,-5.5657,-5.5468,0.0,-5.5948,-5.6136,0.0,0.0,0.0,0.0,0.0,0.0,0.0,0.0,0.0,0.0,0.0,0.0,-5.4725,-5.3974,-5.3098,-5.2175,-5.1498,-5.0574,-4.962,-4.9312,0.0,0.0,0.0,-4.9897,-5.0513,-5.2236,-5.3284,-5.4052,0.0,-5.5511,-5.5948,-5.6028,0.0,-5.5882,0.0,0.0,0.0,0.0,0.0,0.0,0.0,0.0,0.0,0.0,0.0,0.0,0.0,0.0,0.0,0.0,0.0,0.0,0.0,-5.3724,-5.3724,-5.3724,-5.5221,-5.6358,-5.6967,-5.8835,-6.0018,-6.0373,-6.0934,-6.1145,-6.0968,-6.1171,-6.1643,-6.2204,-6.1643,-6.1998,-6.3079,-6.2321,-6.241,-6.3079,-6.3079,-6.3079,-6.3079,-6.3079,-6.3079,-6.3079,-6.3079,-6.3079,-6.3079,0.0,0.0,0.0,0.0,0.0,0.0,0.0,0.0,0.0,0.0,0.0,-6.2043,-6.2144,0.0,0.0,0.0,-6.0452,-5.989,-5.9471,-5.9458,-5.9076,-5.8125,-5.8117,-5.7459,-5.6107,-5.5871,-5.5405,-5.4683,-5.4683,0.0,-5.4683,-5.4345,-5.3914,0.0,-5.3078,0.0,0.0,0.0,0.0,0.0,0.0,0.0,0.0,0.0,0.0,0.0,0.0,-5.3806,-5.3067,-5.2052,-5.1036,-5.0112,-4.9589,-4.9035,0.0,0.0,0.0,-5.0451,0.0,0.0,-5.3098,-5.476,-5.5354,-5.5682,0.0,0.0,-5.5973,0.0,0.0,0.0,0.0,0.0,0.0,0.0,0.0,0.0,0.0,0.0,0.0,0.0,0.0,0.0,0.0,0.0,0.0,0.0,-5.5412,-5.5468,-5.5636,-5.7283,-5.8261,-5.8435,-6.0336,-6.1613,-6.2091,-6.2271,-6.26,-6.3079,-6.3079,-6.3079,-6.3079,-6.3079,-6.3079,-6.3021,-6.2028,-6.2204,-6.3079,-6.3079,-6.3079,-6.3079,-6.3079,-6.3079,-6.3079,-6.3079,-6.3079,-6.3079,0.0,0.0,0.0,0.0,0.0,0.0,0.0,0.0,0.0,0.0,0.0,-6.1124,-6.1356,-6.1332,-6.0994,-6.0216,-6.0114,-5.9393,-5.7637,-5.7745,-5.7323,-5.6296,-5.6239,0.0,-5.6107,-5.5223,-5.473,-5.4683,0.0,0.0,-5.4652,-5.3406,-5.279,-5.276,-5.2743,-5.2418,-5.1924,0.0,0.0,0.0,0.0,0.0,0.0,0.0,0.0,0.0,0.0,0.0,-5.4283,-5.2359,-5.1652,0.0,0.0,0.0,0.0,0.0,0.0,0.0,0.0,-5.1251,0.0,-5.3652,-5.3607,0.0,0.0,0.0,0.0,0.0,0.0,0.0,0.0,0.0,0.0,0.0,0.0,0.0,0.0,0.0,0.0,0.0,0.0,0.0,0.0,0.0,0.0,0.0,-5.5412,-5.5664,-5.6286,-5.7541,-5.8464,-5.9132,-6.1017,-6.2061,-6.2091,-6.272,-6.3049,-6.3079,-6.3079,-6.3079,-6.3079,-6.3079,-6.3079,-6.3079,-6.3021,-6.3021,-6.3079,-6.3079,-6.3079,-6.3079,-6.3079,-6.3079,-6.3079,-6.3079,-6.3079,-6.3079,0.0,0.0,0.0,0.0,0.0,0.0,0.0,0.0,0.0,0.0,0.0,0.0,0.0,-6.0008,-5.9514,-5.9703,-5.8848,-5.8043,-5.7375,-5.6986,-5.6395,-5.5442,-5.4956,-5.4505,-5.3917,-5.3588,-5.3437,0.0,0.0,-5.3437,-5.3437,-5.2944,-5.2483,-5.2052,-5.1621,-5.1775,-5.2359,-5.2606,0.0,0.0,0.0,0.0,0.0,0.0,0.0,0.0,0.0,0.0,0.0,0.0,0.0,0.0,0.0,0.0,0.0,0.0,0.0,0.0,0.0,0.0,0.0,-5.3822,-5.4465,-5.4935,0.0,0.0,0.0,0.0,0.0,0.0,0.0,0.0,0.0,0.0,0.0,0.0,0.0,0.0,0.0,0.0,0.0,0.0,0.0,0.0,0.0,0.0,0.0,-5.8742,-5.9387,-6.0257,-6.081,-6.1047,-6.2132,-6.272,-6.272,-6.2959,-6.3079,-6.3079,-6.3079,-6.3079,-6.3079,-6.3079,-6.3079,-6.3079,-6.3079,-6.3079,-6.3079,-6.3079,-6.3079,-6.3079,-6.3079,-6.3079,-6.3079,-6.3079,-6.3079,-6.3079,0.0,0.0,0.0,0.0,0.0,-6.0659,-6.0436,-5.9607,-5.9124,-5.9409,0.0,0.0,0.0,0.0,-5.8896,-5.9079,-5.8238,-5.756,-5.7258,-5.6392,-5.5495,-5.4611,-5.3909,-5.3427,-5.3037,-5.2821,0.0,0.0,0.0,0.0,0.0,-5.2698,-5.2483,-5.2021,-5.1559,-5.1744,0.0,0.0,0.0,-5.5345,0.0,0.0,-5.6392,0.0,0.0,0.0,0.0,0.0,0.0,0.0,0.0,0.0,0.0,0.0,0.0,0.0,0.0,0.0,-4.9743,0.0,0.0,0.0,0.0,-5.5109,0.0,0.0,0.0,0.0,0.0,0.0,0.0,0.0,0.0,0.0,0.0,0.0,0.0,0.0,0.0,0.0,0.0,0.0,0.0,0.0,0.0,0.0,0.0,0.0,-6.1403,-6.1852,-6.2181,-6.2421,-6.2839,-6.3079,-6.3079,-6.3079,-6.3079,-6.3079,-6.3079,-6.3079,-6.3079,-6.3079,-6.3079,-6.3079,-6.3079,-6.3079,-6.3079,-6.3079,-6.3079,-6.3079,-6.3079,-6.3079,-6.3079,-6.3079,-6.3079,-6.3079,0.0,0.0,0.0,0.0,-6.0328,-5.9008,-5.9655,-5.8639,-5.8138,-5.9097,0.0,0.0,0.0,0.0,0.0,-5.8453,-5.8389,-5.8073,-5.7137,-5.5797,-5.4598,-5.3745,0.0,0.0,0.0,0.0,0.0,0.0,0.0,0.0,0.0,0.0,-5.2698,-5.2698,-5.2698,-5.2359,-5.1836,0.0,-5.4068,-5.4745,0.0,-5.6546,-5.7795,0.0,0.0,0.0,-5.8208,-5.8177,0.0,-5.5684,0.0,0.0,0.0,0.0,0.0,0.0,0.0,0.0,0.0,0.0,0.0,0.0,0.0,0.0,0.0,0.0,0.0,0.0,0.0,0.0,0.0,0.0,0.0,0.0,0.0,0.0,0.0,0.0,0.0,0.0,0.0,0.0,0.0,0.0,0.0,0.0,-6.0775,-6.1433,-6.2091,-6.2121,-6.2421,-6.3049,-6.3079,-6.3079,-6.3079,-6.3079,-6.3079,-6.3079,-6.3079,-6.3079,-6.3079,-6.3079,-6.3079,-6.3079,-6.3079,-6.3079,-6.3079,-6.3079,-6.3079,-6.3079,-6.3079,-6.3079,-6.3079,-6.3079,-6.3079,-6.3049,0.0,0.0,0.0,-6.0575,-5.9549,-5.8854,-5.9039,-5.8331,-5.8079,0.0,0.0,0.0,0.0,0.0,-5.8698,-5.8011,-5.7559,-5.7136,-5.6931,-5.5581,-5.4699,-5.4453,-5.3806,-5.3529,-5.3714,0.0,0.0,0.0,0.0,0.0,0.0,0.0,0.0,0.0,-5.2698,-5.2606,-5.2483,-5.3345,0.0,0.0,-5.5992,-5.6748,0.0,0.0,0.0,0.0,0.0,-5.7857,-5.8423,0.0,-5.5776,-5.5807,0.0,0.0,0.0,0.0,0.0,0.0,-4.8604,0.0,0.0,0.0,0.0,0.0,0.0,0.0,0.0,0.0,0.0,0.0,0.0,0.0,0.0,0.0,0.0,0.0,0.0,0.0,0.0,0.0,0.0,0.0,0.0,0.0,0.0,0.0,-6.1702,-6.2121,-6.278,-6.281,-6.2899,-6.3079,-6.3079,-6.3079,-6.3079,-6.3079,-6.3079,-6.3079,-6.3079,-6.3079,-6.3079,-6.3079,-6.3079,-6.3079,-6.3079,-6.3079,-6.3079,-6.3079,-6.3079,-6.3079,-6.3079,-6.3079,-6.3079,-6.3079,-6.278,-6.2361,0.0,0.0,-6.0671,-6.027,-5.987,-5.9716,-5.9993,-5.947,-5.9162,0.0,0.0,0.0,0.0,0.0,0.0,0.0,-5.7611,-5.7241,-5.7241,-5.5899,-5.5007,-5.4683,-5.4037,-5.3837,-5.4099,0.0,0.0,0.0,0.0,0.0,0.0,0.0,0.0,0.0,0.0,0.0,0.0,0.0,0.0,0.0,-5.5838,0.0,0.0,-5.7888,-5.83,0.0,0.0,0.0,-5.9316,-5.7254,-5.6854,0.0,0.0,0.0,0.0,0.0,0.0,0.0,0.0,0.0,0.0,0.0,0.0,0.0,0.0,0.0,0.0,0.0,0.0,0.0,0.0,0.0,0.0,0.0,0.0,0.0,0.0,0.0,0.0,0.0,0.0,0.0,0.0,0.0,0.0,-6.2061,-6.2361,-6.266,-6.3049,-6.3079,-6.3079,-6.3079,-6.3079,-6.3079,-6.3079,-6.3079,-6.3079,-6.3079,-6.3079,-6.3079,-6.3079,-6.3079,-6.3079,-6.3079,-6.3079,-6.3079,-6.3079,-6.3079,-6.3079,-6.3079,-6.3079,-6.3079,-6.3049,-6.278,-6.2421,-6.2061,0.0,0.0,-6.0824,-6.0886,-6.0855,-6.104,-6.1809,-6.1348,-6.0948,0.0,0.0,0.0,0.0,0.0,0.0,0.0,-5.827,-5.7919,-5.7919,-5.6577,-5.5561,-5.4976,-5.4237,-5.4099,-5.4728,-5.3959,0.0,0.0,0.0,0.0,0.0,0.0,0.0,0.0,-5.2275,-5.2002,0.0,0.0,0.0,-5.6498,-5.5312,-5.6664,0.0,0.0,-5.8958,0.0,-5.9173,-5.9542,-6.0342,-5.8423,-5.7765,0.0,0.0,0.0,0.0,0.0,-4.9404,0.0,0.0,0.0,0.0,0.0,0.0,0.0,0.0,0.0,0.0,0.0,0.0,0.0,0.0,0.0,0.0,0.0,0.0,0.0,0.0,0.0,0.0,0.0,0.0,0.0,0.0,-6.0745,-6.1373,-6.2061,-6.272,-6.3079,-6.3079,-6.3079,-6.3079,-6.3079,-6.3079,-6.3079,-6.3079,-6.3079,-6.3079,-6.3079,-6.3079,-6.3079,-6.3079,-6.3079,-6.3079,-6.3079,-6.3079,-6.3079,-6.3079,-6.3079,-6.3079,-6.3079,-6.2989,-6.2959,-6.2899,-6.2241,-6.1942,-6.1792,-6.0794,-6.0794,-6.0978,-6.1502,-6.1163,-6.1225,-6.2425,-6.2056,-6.1809,-6.2364,0.0,0.0,0.0,0.0,0.0,0.0,0.0,0.0,-5.8577,-5.7364,-5.6532,-5.6409,-5.5191,-5.4712,-5.5167,-5.4996,-5.4962,0.0,0.0,0.0,0.0,0.0,0.0,0.0,0.0,0.0,0.0,0.0,0.0,-5.5384,-5.5609,0.0,-5.7144,-5.7719,-5.8217,-5.8522,-5.8502,-5.8981,-5.9492,0.0,-5.7457,-5.684,0.0,0.0,0.0,0.0,0.0,0.0,0.0,0.0,0.0,0.0,0.0,0.0,0.0,0.0,0.0,0.0,0.0,0.0,0.0,0.0,0.0,0.0,0.0,0.0,0.0,0.0,0.0,0.0,0.0,0.0,0.0,-6.1044,-6.1373,-6.2061,-6.272,-6.3079,-6.3079,-6.3079,-6.3079,-6.3079,-6.3079,-6.3079,-6.3079,-6.3079,-6.3079,-6.3079,-6.3079,-6.3079,-6.3079,-6.3079,-6.3079,-6.3079,-6.3079,-6.3079,-6.3079,-6.3079,-6.3079,-6.3019,-6.248,-6.2301,-6.2211,-6.1553,-6.0954,-6.0446,-6.0794,-6.0794,-6.1009,-6.1686,-6.1809,-6.2148,-6.3164,-6.3041,-6.2948,0.0,0.0,0.0,0.0,0.0,0.0,0.0,0.0,0.0,-5.9164,-5.8182,-5.7224,-5.6403,-5.5315,-5.4718,-5.4653,-5.4175,-5.4279,-5.4947,0.0,0.0,0.0,0.0,0.0,0.0,0.0,0.0,0.0,0.0,-5.3929,-5.5376,-5.6141,0.0,-5.6785,-5.7638,-5.7952,-5.8064,-5.8501,-5.8777,-5.8869,-5.8835,-5.8331,0.0,0.0,-5.5992,-5.5284,0.0,-5.1713,-5.0882,0.0,0.0,0.0,-4.9158,0.0,0.0,0.0,0.0,0.0,0.0,0.0,0.0,0.0,0.0,0.0,0.0,0.0,0.0,0.0,0.0,0.0,0.0,0.0,0.0,0.0,-6.1104,-6.1373,-6.2061,-6.2391,-6.272,-6.3049,-6.3079,-6.3079,-6.3079,-6.3079,-6.3079,-6.3079,-6.3079,-6.3079,-6.3079,-6.3079,-6.3079,-6.3079,-6.3079,-6.3079,-6.3079,-6.3079,-6.2899,-6.26,-6.26,-6.2391,-6.2091,-6.2091,-6.1912,-6.1523,-6.0864,-6.0386,-6.0027,-6.0669,-6.0761,-6.1037,-6.1743,-6.2388,-6.3009,-6.377,-6.3862,-6.3831,0.0,0.0,0.0,0.0,0.0,0.0,0.0,0.0,0.0,0.0,0.0,-5.7943,-5.6718,-5.5505,-5.4746,-5.4534,-5.3386,-5.3416,-5.4649,0.0,0.0,0.0,0.0,0.0,0.0,0.0,0.0,0.0,0.0,0.0,-5.5621,0.0,-5.7283,-5.7567,-5.8131,-5.8313,-5.8252,-5.8797,-5.8763,-5.8614,-5.9594,0.0,-5.8589,-5.7808,-5.7303,0.0,0.0,0.0,0.0,0.0,0.0,0.0,0.0,0.0,-4.9928,0.0,0.0,0.0,0.0,0.0,0.0,0.0,0.0,0.0,0.0,0.0,0.0,0.0,0.0,0.0,0.0,0.0,0.0,0.0,-6.1224,-6.1463,-6.1882,-6.2151,-6.251,-6.3049,-6.3079,-6.3079,-6.3079,-6.3079,-6.3079,-6.3079,-6.3079,-6.3079,-6.3079,-6.3079,-6.3079,-6.3079,-6.3079,-6.3079,-6.3079,-6.2929,-6.26,-6.2091,-6.1972,-6.1523,-6.0954,-6.1493,-6.1373,-6.0835,-6.0146,-5.9967,-5.9997,-6.0213,-6.0495,-6.1102,-6.1855,-6.2439,-6.3108,-6.3863,-6.3984,0.0,0.0,0.0,0.0,0.0,0.0,0.0,0.0,0.0,0.0,-6.0008,0.0,0.0,-5.9417,-5.6505,-5.5364,-5.6264,-5.4436,-5.3465,-5.3391,0.0,0.0,0.0,0.0,0.0,0.0,-5.1887,0.0,0.0,0.0,-5.5559,0.0,-5.7206,-5.8474,0.0,-5.9705,-5.9507,-5.8997,-5.9325,-5.9199,-5.9006,0.0,-5.9481,-5.8675,0.0,-5.9101,0.0,0.0,0.0,0.0,0.0,0.0,0.0,0.0,-5.0082,0.0,0.0,0.0,0.0,0.0,0.0,0.0,0.0,0.0,0.0,0.0,0.0,0.0,0.0,0.0,0.0,0.0,0.0,0.0,0.0,0.0,-6.1762,-6.1253,-6.2301,-6.2989,-6.3079,-6.3079,-6.3079,-6.3079,-6.3079,-6.3079,-6.3079,-6.3079,-6.3079,-6.3079,-6.3079,-6.3079,-6.3079,-6.3079,-6.3079,-6.3049,-6.245,-6.2181,-6.2061,-6.1463,-6.0835,-6.0206,-6.0296,-6.0266,-6.0116,-5.9458,-5.9578,-6.0086,-6.0486,-6.0721,-6.1237,-6.2354,-6.2748,-6.3173,-6.3872,-6.3659,0.0,0.0,0.0,0.0,0.0,0.0,0.0,0.0,0.0,-6.1455,0.0,0.0,0.0,0.0,-5.7707,-5.6603,-5.6372,-5.476,-5.3871,-5.3773,-5.2995,0.0,0.0,0.0,0.0,0.0,-5.2486,0.0,-5.2905,0.0,0.0,0.0,0.0,0.0,0.0,-5.9632,-5.9009,-5.9153,-5.9422,-5.9161,-5.8723,0.0,-5.9518,0.0,0.0,0.0,0.0,0.0,0.0,0.0,0.0,0.0,0.0,0.0,0.0,0.0,-5.1713,0.0,-5.1528,0.0,0.0,0.0,0.0,0.0,0.0,0.0,0.0,0.0,0.0,0.0,0.0,0.0,0.0,0.0,0.0,0.0,0.0,0.0,0.0,-6.266,-6.3049,-6.3079,-6.3079,-6.3079,-6.3079,-6.3079,-6.3079,-6.3079,-6.3079,-6.3079,-6.3079,-6.3079,-6.3079,-6.3079,-6.2869,-6.248,-6.2211,-6.1642,-6.0924,-6.0625,-6.0356,-6.0086,-6.0086,-6.0086,-6.0057,-5.9787,-6.0356,-6.1253,-6.085,0.0,-6.105,-6.2198,-6.2561,-6.2893,-6.3645,-6.3192,0.0,0.0,0.0,0.0,-6.2466,-6.2375,0.0,0.0,-6.2103,-6.175,0.0,0.0,-6.0877,-5.9697,-5.868,0.0,0.0,-5.5508,-5.4491,-5.3922,0.0,0.0,0.0,0.0,0.0,0.0,0.0,-5.3294,-5.3623,0.0,0.0,-5.8351,-5.889,-6.0146,-6.1493,-5.9428,-5.886,-5.9099,-5.9315,-5.9068,-5.873,-5.9176,-5.9713,0.0,-5.8702,0.0,0.0,0.0,0.0,0.0,-5.593,0.0,0.0,0.0,0.0,0.0,0.0,0.0,0.0,0.0,0.0,0.0,0.0,0.0,0.0,0.0,0.0,0.0,0.0,0.0,0.0,0.0,0.0,0.0,0.0,0.0,0.0,0.0,0.0,0.0,-6.278,-6.2989,-6.3079,-6.3079,-6.3079,-6.3079,-6.3079,-6.3079,-6.3079,-6.3079,-6.3079,-6.3079,-6.3079,-6.2899,-6.254,-6.2061,-6.1702,-6.1104,-6.0356,-6.0176,-6.0296,-6.0625,-6.0625,-6.0864,-6.1104,-6.0775,-6.1493,-6.263,-6.1074,-6.0535,-6.0351,-6.1014,-6.1672,-6.2388,-6.3047,-6.2567,0.0,0.0,0.0,0.0,0.0,0.0,0.0,0.0,0.0,-6.2238,-6.0261,0.0,-6.1104,0.0,-5.9159,-5.8411,0.0,0.0,-5.52,-5.3204,0.0,0.0,0.0,0.0,0.0,0.0,0.0,-5.3563,-5.4341,-5.6944,-5.7363,-5.6487,-5.8351,-5.877,-5.8411,0.0,-5.9638,-5.9099,-5.9099,0.0,0.0,-6.0114,-6.0042,0.0,0.0,0.0,0.0,0.0,0.0,0.0,0.0,0.0,0.0,-5.4976,0.0,0.0,0.0,0.0,-5.3468,0.0,0.0,0.0,0.0,0.0,0.0,0.0,0.0,0.0,0.0,0.0,0.0,0.0,0.0,0.0,0.0,0.0,0.0,0.0,0.0,0.0,-6.2151,-6.272,-6.3079,-6.3079,-6.3079,-6.3079,-6.3079,-6.3079,-6.3079,-6.3079,-6.3079,-6.3079,-6.3049,-6.2421,-6.2121,-6.2032,-6.0715,-6.0505,-6.1044,-6.0356,-6.0864,-6.2032,-6.2032,-6.278,-6.3737,-6.248,-6.2839,-6.3947,0.0,0.0,-6.0446,-6.1583,-6.1942,-6.2331,-6.2989,-6.2151,0.0,0.0,0.0,0.0,0.0,-6.1762,-6.1762,0.0,0.0,-6.2151,-6.1463,-6.2032,0.0,0.0,0.0,-6.0236,0.0,0.0,0.0,0.0,0.0,0.0,0.0,0.0,0.0,0.0,0.0,-5.4461,0.0,0.0,0.0,0.0,0.0,-6.0027,-5.9428,0.0,0.0,-5.9099,-5.9099,-5.9099,0.0,-5.9477,-5.985,-6.0132,-5.9573,-5.969,-5.9895,-5.9629,-5.8836,0.0,0.0,0.0,-5.7272,-5.63,0.0,0.0,0.0,0.0,0.0,0.0,0.0,0.0,0.0,0.0,0.0,0.0,0.0,0.0,0.0,0.0,0.0,0.0,0.0,0.0,0.0,0.0,0.0,0.0,0.0,0.0,0.0,-6.272,-6.3079,-6.3079,-6.3079,-6.3079,-6.3079,-6.3079,-6.3079,-6.3079,-6.3079,-6.2839,-6.245,-6.266,-6.2271,-6.1433,-6.1433,-6.1553,-6.1732,-6.1523,-6.2181,-6.3348,-6.3348,-6.4156,-6.5173,-6.3827,-6.4186,-6.5323,-6.0984,0.0,-6.0715,-6.1583,-6.2121,-6.251,0.0,0.0,0.0,0.0,-6.0984,0.0,-6.1972,0.0,-6.2002,0.0,-6.245,-6.245,-6.245,-6.2839,0.0,-6.1852,-6.1762,0.0,0.0,0.0,0.0,0.0,0.0,-5.3533,0.0,0.0,0.0,0.0,0.0,0.0,-5.6526,0.0,-5.8082,0.0,0.0,-5.9697,0.0,0.0,-5.9189,-5.9727,0.0,-5.8919,-5.9039,-5.856,-5.9171,-5.985,-5.8524,-5.8978,-5.9901,-5.9372,-5.8858,-5.8683,-5.964,-5.9114,0.0,-5.7832,-5.7943,0.0,-5.67,0.0,0.0,0.0,0.0,0.0,0.0,0.0,0.0,0.0,0.0,0.0,0.0,0.0,0.0,0.0,0.0,0.0,0.0,0.0,0.0,0.0,0.0,0.0,0.0,0.0,-6.2839,-6.3079,-6.3079,-6.3079,-6.3079,-6.3079,-6.3079,-6.3079,-6.3079,-6.2839,-6.245,-6.263,-6.2391,-6.1822,-6.2002,-6.2361,-6.278,-6.278,-6.3528,-6.4725,-6.4725,-6.5383,-6.6221,-6.5114,-6.5413,-6.637,0.0,0.0,0.0,0.0,-6.2181,0.0,0.0,0.0,-6.1134,0.0,-6.1164,-6.1403,-6.2061,-6.269,-6.3079,-6.3079,-6.3079,0.0,-6.3079,-6.3079,0.0,0.0,-6.1852,-6.1164,-6.1074,0.0,0.0,0.0,0.0,0.0,0.0,0.0,0.0,0.0,-5.3503,0.0,-5.7184,-5.7752,-5.7633,-5.7094,-5.7154,-5.7992,-5.9129,-5.8441,0.0,-6.0864,-5.889,-5.859,-5.8919,-5.7633,-5.8052,-5.9009,-5.8381,-5.8141,-5.8195,-5.849,-5.8565,-5.8587,-5.8827,-5.914,-5.9368,-5.9368,0.0,0.0,0.0,0.0,-5.7734,0.0,0.0,0.0,0.0,0.0,0.0,0.0,0.0,0.0,0.0,0.0,0.0,0.0,0.0,0.0,0.0,0.0,0.0,0.0,0.0,0.0,0.0,0.0,-6.2421,-6.3049,-6.3079,-6.3079,-6.3079,-6.3079,-6.3079,-6.3079,-6.3079,-6.3079,-6.3049,-6.245,-6.254,-6.3079,-6.251,-6.2959,-6.4096,-6.4096,-6.4874,-6.6071,-6.6071,-6.643,-6.6909,-6.6281,-6.646,-6.6999,-6.2181,-6.1972,-6.1702,0.0,-6.1792,-6.2301,0.0,0.0,0.0,0.0,-6.1852,-6.2091,-6.275,-6.2989,-6.3079,-6.3079,-6.3079,0.0,0.0,0.0,0.0,-6.2361,-6.248,-6.1882,-6.0386,-6.0984,0.0,-5.6218,0.0,0.0,-5.2187,0.0,0.0,0.0,0.0,0.0,-5.7782,-5.6496,-5.6376,-5.7184,-5.8171,-5.9398,0.0,0.0,-5.9787,-6.0924,-5.9398,-5.8949,-5.9069,-5.871,-5.883,-5.9069,-5.8919,-5.853,-5.8231,-5.8764,-5.8384,-5.8022,-5.907,-5.916,-5.911,-5.9316,-5.9297,-5.9093,0.0,0.0,0.0,0.0,0.0,0.0,0.0,0.0,0.0,0.0,0.0,0.0,0.0,0.0,0.0,0.0,0.0,0.0,0.0,0.0,0.0,0.0,0.0,0.0,0.0,0.0,0.0,-6.3079,-6.3079,-6.3079,-6.3079,-6.3079,-6.3079,-6.3079,-6.3079,-6.3079,-6.3079,-6.3378,-6.3588,-6.3767,-6.4126,-6.4725,-6.5503,-6.5503,-6.5981,-6.6729,-6.6729,-6.6849,-6.6969,-6.6819,-6.6849,-6.6909,-6.254,0.0,0.0,-6.1169,0.0,0.0,-6.1616,0.0,0.0,-6.245,-6.254,0.0,-6.3408,-6.3228,-6.3079,-6.3079,-6.3079,0.0,-6.3468,0.0,0.0,-6.2929,-6.275,-6.2121,-6.0984,-6.1134,0.0,-5.7453,0.0,0.0,-5.3054,0.0,0.0,0.0,0.0,-5.5179,0.0,-5.7663,-5.7752,-5.8411,-5.859,0.0,0.0,-5.9069,-5.9308,-6.0146,-5.9368,-5.9099,-5.9009,-5.8411,-5.862,-5.9069,-5.877,-5.862,-5.862,-5.9009,-5.8488,-5.7993,-5.9045,-5.9047,-5.8888,-5.9318,-5.9884,-6.0215,-5.9972,-6.029,-6.0455,0.0,0.0,0.0,0.0,0.0,0.0,0.0,0.0,0.0,0.0,0.0,0.0,0.0,0.0,0.0,0.0,0.0,0.0,0.0,0.0,0.0,0.0,0.0,0.0,-6.3079,-6.3079,-6.3079,-6.3079,-6.3079,-6.3079,-6.3079,-6.3348,-6.3468,-6.3498,-6.4156,-6.4605,-6.4904,-6.5293,-6.5832,-6.643,-6.643,-6.667,-6.6999,-6.6999,-6.6999,-6.6999,-6.6999,-6.6999,-6.6879,0.0,0.0,0.0,0.0,0.0,0.0,0.0,-6.1732,0.0,-6.2869,0.0,-6.3288,-6.3827,-6.3408,-6.3079,-6.3079,0.0,-6.3318,-6.3827,-6.3378,-6.3318,-6.3857,-6.281,-6.2181,-6.2091,-6.0954,0.0,0.0,0.0,0.0,0.0,0.0,0.0,0.0,0.0,0.0,0.0,-5.9727,-5.9997,0.0,-5.868,-5.859,-5.9039,-5.8471,-5.859,-5.9099,-5.9099,-5.9099,-5.8919,-5.7752,-5.8141,-5.9009,-5.8441,-5.859,-5.9009,-5.9069,-5.865,-5.8261,-5.8919,-5.8811,-5.8693,-5.9325,-6.0266,-6.1088,-6.1233,-6.1537,-6.1757,-6.1809,-6.1255,-6.064,0.0,0.0,0.0,0.0,0.0,0.0,0.0,0.0,0.0,0.0,0.0,0.0,0.0,0.0,0.0,0.0,0.0,0.0,0.0,0.0,0.0,-6.2929,-6.3019,0.0,-6.3199,0.0,-6.3169,-6.3348,-6.3797,-6.4096,-6.4276,-6.4874,-6.5533,-6.6131,-6.6131,-6.646,-6.6999,-6.6999,-6.6999,-6.6999,-6.6999,-6.6999,-6.6999,-6.6999,-6.6939,-6.6789,0.0,0.0,0.0,0.0,0.0,-6.091,-6.1831,-6.2032,-6.2121,-6.2241,-6.275,-6.3109,-6.3228,-6.3139,-6.3079,-6.3079,-6.3079,0.0,0.0,0.0,0.0,-6.3228,-6.3019,-6.266,-6.2121,-6.1852,-6.0864,0.0,0.0,0.0,0.0,0.0,0.0,0.0,0.0,0.0,-5.7573,-5.9338,0.0,-5.8501,-5.88,-5.9009,-5.9099,-5.8979,-5.9009,-5.9099,-5.9099,-5.9099,-5.9069,-5.883,-5.8919,-5.9069,-5.8979,-5.865,-5.8411,-5.8949,-5.865,-5.8261,-5.8919,-5.862,-5.8398,-5.9272,-5.9281,-5.9342,-6.0333,-6.1041,-6.1545,-6.1757,-6.1255,-6.0948,-6.1379,0.0,0.0,0.0,0.0,0.0,0.0,0.0,0.0,0.0,0.0,0.0,0.0,0.0,0.0,0.0,0.0,0.0,0.0,0.0,0.0,0.0,-6.278,0.0,0.0,0.0,-6.3617,-6.4695,-6.4216,-6.4575,-6.5652,-6.5772,-6.6191,-6.6819,-6.6819,-6.6879,-6.6999,-6.6999,-6.6999,-6.6999,-6.6999,-6.6999,-6.6999,-6.6999,-6.664,-6.6161,0.0,0.0,0.0,0.0,0.0,0.0,0.0,-6.281,0.0,-6.3049,-6.3348,-6.3558,-6.3558,-6.3258,-6.3079,-6.3079,-6.3079,-6.3079,-6.3079,-6.3079,-6.3079,-6.3079,-6.3079,0.0,-6.26,-6.2271,-6.1463,-6.0146,0.0,0.0,0.0,0.0,0.0,0.0,0.0,-5.8082,0.0,0.0,0.0,-5.9129,-5.9129,-5.9099,-5.9099,-5.9099,-5.9099,-5.9099,-5.9099,-5.9099,-5.9099,-5.9099,-5.9099,-5.9099,-5.9099,-5.889,-5.871,-5.9009,-5.865,-5.8261,-5.8919,-5.886,-5.88,-5.9621,-6.0235,-6.0814,-6.1389,-6.2238,-6.2908,-6.2649,-6.2472,-6.224,-6.1871,-6.0936,0.0,0.0,0.0,0.0,0.0,0.0,0.0,0.0,0.0,0.0,0.0,0.0,0.0,0.0,0.0,0.0,0.0,0.0,0.0,0.0,0.0,0.0,0.0,0.0,0.0,-6.4485,-6.4515,-6.5054,-6.6011,-6.637,-6.67,-6.6999,-6.6999,-6.6999,-6.6999,-6.6999,-6.6999,-6.6999,-6.6999,-6.7208,-6.7448,-6.7119,-6.6789,-6.646,0.0,-5.8427,0.0,0.0,-6.0416,0.0,-6.386,-6.3797,-6.3558,-6.3767,-6.3797,-6.3797,-6.3797,-6.3378,-6.3079,-6.3079,-6.3079,-6.3079,-6.3079,-6.3079,-6.3079,-6.3079,-6.3079,-6.3079,-6.3079,-6.2421,-6.1852,0.0,0.0,0.0,0.0,0.0,0.0,0.0,0.0,0.0,0.0,0.0,-6.0505,-5.9817,-5.9308,-5.9099,-5.9099,-5.9099,-5.9099,-5.9099,-5.9099,-5.9099,-5.9099,-5.9099,-5.9099,-5.9099,-5.9099,-5.9099,-5.9099,-5.9099,-5.883,-5.865,-5.9189,-5.9308,-5.9458,-6.0146,-6.1121,-6.2066,-6.2242,-6.3178,-6.3848,-6.3385,-6.3428,-6.3285,-6.2212,-6.1829,0.0,0.0,0.0,0.0,0.0,0.0,0.0,0.0,0.0,0.0,0.0,0.0,0.0,0.0,0.0,0.0,0.0,0.0,0.0,0.0,0.0,-6.3348,-6.3498,0.0,-6.3647,0.0,-6.4964,-6.5592,-6.6221,-6.6759,-6.6999,-6.6999,-6.6999,-6.6999,-6.6999,-6.6999,-6.7059,-6.7208,-6.7208,-6.7597,-6.8136,-6.7597,-6.7238,-6.6939,0.0,0.0,0.0,0.0,0.0,0.0,-6.4666,-6.4874,-6.4455,-6.3318,-6.3169,-6.3169,-6.3169,-6.3109,-6.3079,-6.3079,-6.3079,-6.3079,-6.3079,-6.3079,-6.3079,-6.3079,-6.3079,-6.3079,-6.3079,-6.2421,-6.2061,0.0,0.0,0.0,0.0,0.0,0.0,0.0,0.0,0.0,0.0,-5.9907,-5.9787,-5.9189,-5.9129,-5.9099,-5.9099,-5.9099,-5.9099,-5.9099,-5.9099,-5.9099,-5.9099,-5.9099,-5.9099,-5.9099,-5.9099,-5.9099,-5.9099,-5.9099,-5.9488,-5.9907,-5.9967,-5.9997,-6.0146,-6.0835,-6.0655,-6.0526,-6.1403,-6.2177,-6.2742,-6.2905,-6.2986,-6.2956,-6.2834,-6.2512,-6.267,0.0,0.0,0.0,0.0,0.0,0.0,0.0,0.0,0.0,0.0,0.0,0.0,0.0,0.0,0.0,0.0,0.0,0.0,-6.3077,0.0,-6.4216,-6.4844,-6.4216,-6.4545,-6.5832,-6.5892,-6.6251,-6.6909,-6.6969,-6.6999,-6.6999,-6.6999,-6.6999,-6.6999,-6.6999,-6.7358,-6.7897,-6.7897,-6.8315,-6.8884,-6.8824,-6.8046,-6.7059,0.0,0.0,0.0,0.0,0.0,0.0,0.0,-6.5024,-6.4844,-6.4306,-6.4246,-6.4246,-6.4246,-6.4246,-6.4246,-6.4246,-6.4246,-6.4066,-6.3647,-6.3617,-6.3468,-6.3079,-6.3079,-6.3079,-6.3079,-6.281,-6.248,0.0,0.0,0.0,0.0,0.0,0.0,0.0,0.0,-6.0086,-5.9697,-5.9967,-5.9697,-5.9099,-5.9099,-5.9099,-5.9099,-5.9099,-5.9099,-5.9099,-5.9099,-5.9099,-5.9099,-5.9099,-5.9099,-5.9099,-5.9099,-5.9368,-5.9697,-5.9697,-6.0176,-6.0715,-6.0715,-6.0984,-6.1343,-6.1642,-6.1792,-6.1998,-6.2382,-6.2822,-6.3116,-6.323,-6.3399,-6.3558,-6.3464,-6.3495,-6.3526,0.0,0.0,0.0,0.0,0.0,0.0,0.0,0.0,0.0,0.0,0.0,0.0,0.0,0.0,0.0,0.0,0.0,0.0,-6.3617,0.0,-6.3947,-6.5024,-6.4336,-6.4665,-6.6011,-6.6011,-6.634,-6.6999,-6.6999,-6.6999,-6.6999,-6.6999,-6.7208,-6.7567,-6.7567,-6.7986,-6.8585,-6.8585,-6.9004,-6.9482,-6.8675,-6.8315,-6.8106,-6.2267,0.0,-6.4132,0.0,-6.4662,-6.5383,-6.5592,-6.5592,-6.5592,-6.5592,-6.5592,-6.5473,-6.5054,-6.5024,-6.5024,-6.5024,-6.5024,-6.4814,-6.4336,-6.4306,-6.4096,-6.3677,-6.3468,0.0,-6.3348,-6.3169,-6.2839,-6.2391,-6.2391,0.0,0.0,0.0,0.0,0.0,-6.0386,-6.0356,-6.0086,-5.9877,-5.9518,-5.9099,-5.9099,-5.9099,-5.9099,-5.9099,-5.9099,-5.9129,-5.9308,-5.9398,-5.9428,-5.9638,-5.9697,-5.9668,-5.9458,-5.9847,-6.0386,-6.0386,-6.0864,-6.1403,-6.1403,-6.1882,-6.2391,-6.2391,-6.272,-6.3079,-6.3079,-6.3252,-6.3424,-6.3481,-6.3709,-6.3841,-6.3856,-6.4187,-6.4137,-6.3373,0.0,0.0,0.0,0.0,0.0,0.0,0.0,0.0,0.0,0.0,0.0,0.0,0.0,0.0,0.0,0.0,0.0,0.0,0.0,0.0,0.0,-6.4725,-6.5054,-6.6011,-6.6191,-6.655,-6.6999,-6.7178,-6.7268,-6.7298,-6.7478,-6.7837,-6.8256,-6.8256,-6.8675,-6.9303,-6.9303,-6.9692,-7.0141,-6.9183,-6.8914,-6.8854,-6.3026,-6.4063,-6.5174,-6.5831,-6.6011,-6.6221,-6.6879,-6.6969,-6.6969,-6.6969,-6.6969,-6.646,-6.5114,-6.5024,-6.5024,-6.5024,-6.5024,-6.5024,-6.5024,-6.5024,-6.4964,0.0,0.0,-6.3977,-6.3977,-6.3378,-6.3079,-6.3079,0.0,0.0,-5.9099,-5.7752,-5.8201,-6.0057,-5.9428,-5.9488,-6.0057,-5.9398,-5.9129,-5.9099,-5.9099,-5.9099,-5.9099,-5.9099,-5.9099,-5.9189,-5.9847,-6.0086,-6.0176,-6.0864,-6.1104,-6.0984,-6.0296,-6.0535,-6.1104,-6.1104,-6.1553,-6.2091,-6.2091,-6.257,-6.3079,-6.3079,-6.3079,-6.3079,-6.3079,-6.3079,-6.3194,-6.3481,-6.3538,-6.3595,-6.3906,-6.4244,-6.4596,-6.5238,0.0,0.0,0.0,0.0,0.0,0.0,0.0,-6.7678,-6.4739,0.0,0.0,0.0,0.0,0.0,0.0,0.0,0.0,-6.4006,-6.4665,0.0,-6.5024,-6.5652,-6.5981,-6.6011,-6.667,-6.6969,-6.6999,-6.7657,-6.7956,-6.7986,-6.8675,-6.8974,-6.9004,-6.9004,-6.9363,-6.9961,-6.9961,-7.035,-7.0889,-7.0859,-7.0081,-6.9004,-6.57,-6.6097,-6.643,-6.664,-6.667,-6.6759,-6.6969,-6.6999,-6.6999,-6.6999,-6.6999,-6.6819,-6.64,-6.637,-6.637,0.0,-6.637,-6.6191,0.0,-6.5712,-6.5503,-6.4994,-6.4814,-6.4485,-6.4006,-6.3797,-6.3498,-6.3079,0.0,0.0,0.0,-6.1373,-6.1044,-6.0775,-6.0565,-6.0086,-5.9398,-5.9189,-5.9099,-5.9099,-5.9099,-5.9368,-5.9787,-5.9787,-6.0057,-6.0505,-6.0715,-6.0775,-6.0805,-6.1044,-6.1403,-6.1732,-6.1523,-6.1613,-6.1792,-6.1792,-6.2241,-6.278,-6.278,-6.2929,-6.3079,-6.3079,-6.3079,-6.3079,-6.3079,-6.3079,-6.3194,-6.3481,-6.3538,-6.3595,-6.3936,-6.4244,-6.4417,-6.4406,-6.4437,0.0,0.0,0.0,0.0,0.0,0.0,-6.5109,0.0,-6.4634,0.0,0.0,0.0,0.0,0.0,0.0,0.0,0.0,-6.4455,0.0,-6.5682,-6.5892,-6.6221,-6.667,-6.6879,-6.7238,-6.7657,-6.7867,-6.8226,-6.8675,-6.8914,-6.9243,-6.9662,-6.9662,-7.0051,-7.062,-7.062,-7.0739,-7.0859,-7.044,-6.9722,-6.8944,-6.6999,-6.6999,-6.6999,-6.6999,-6.6999,-6.6999,-6.6999,-6.6999,-6.6999,-6.6999,-6.6999,-6.6999,-6.6999,-6.6999,0.0,-6.6999,-6.6999,-6.6819,-6.64,-6.637,-6.6191,-6.5772,-6.5533,-6.5203,-6.4755,0.0,0.0,-6.3438,-6.2959,-6.272,-6.272,-6.245,-6.2032,-6.1463,-6.1224,-6.0775,-6.0206,-5.9967,-5.9727,-5.9488,-5.9757,-5.9937,-6.0116,-6.0386,-6.0745,-6.1134,-6.1403,-6.1493,-6.1523,-6.1762,-6.2121,-6.248,-6.248,-6.248,-6.248,-6.248,-6.275,-6.3079,-6.3079,-6.3079,-6.3079,-6.3079,-6.3079,-6.3079,-6.3079,-6.3079,-6.3194,-6.3481,-6.3538,-6.3595,-6.3936,-6.4132,-6.4188,-6.4049,-6.4331,-6.4443,-6.4049,0.0,0.0,0.0,0.0,0.0,0.0,-6.4284,0.0,0.0,0.0,0.0,0.0,0.0,0.0,-6.4635,-6.4485,0.0,-6.6011,-6.6251,-6.658,-6.6999,-6.7238,-6.7717,-6.8375,-6.8615,-6.8974,-6.9393,-6.9602,-6.9961,-7.032,-7.032,-7.056,-7.0889,-7.0889,-7.0889,-7.0829,-7.0201,-6.9572,-6.8884,-6.6999,-6.6999,0.0,0.0,-6.6999,0.0,-6.6999,-6.6999,-6.6999,-6.6999,-6.6999,-6.6999,-6.6999,-6.6999,-6.6999,-6.6999,0.0,0.0,0.0,-6.6999,-6.6999,-6.6999,-6.64,-6.6071,-6.6011,-6.4784,-6.4126,-6.4066,-6.2869,-6.2301,-6.2301,-6.1672,-6.1672,-6.2211,-6.1583,-6.1613,-6.2121,-6.1403,-6.0775,-6.0266,-6.0835,-6.0715,-6.0296,-6.0924,-6.1224,-6.1343,-6.1942,-6.2181,-6.2241,-6.2869,-6.3079,-6.3079,-6.3079,-6.3079,-6.3079,-6.3079,-6.3079,-6.3079,-6.3079,-6.3079,-6.3079,-6.3079,-6.3079,-6.3079,-6.3079,-6.3079,-6.3194,-6.3424,-6.3481,-6.3595,-6.388,-6.3936,-6.3993,-6.3936,-6.3993,-6.3993,-6.3993,0.0,0.0,0.0,0.0,0.0,0.0,-6.4955,-6.4806,0.0,0.0,0.0,0.0,0.0,-6.5109,-6.4006,-6.4725,-6.5383,-6.6011,-6.667,-6.6999,-6.7059,-6.7717,-6.8405,-6.9093,-6.9692,-6.9991,-7.0081,-7.0649,-7.0889,-7.0889,-7.0889,-7.0889,-7.0889,-7.0889,-7.0889,-7.0829,-7.0201,-6.9572,-6.8884,0.0,0.0,-6.6999,-6.6999,-6.6999,-6.6999,-6.6999,-6.6999,-6.6999,-6.6999,-6.6999,-6.6999,-6.6999,-6.6999,-6.6999,-6.6999,-6.6999,-6.6999,-6.6999,-6.6999,-6.6999,-6.6999,-6.6849,-6.652,-6.6011,-6.5712,-6.5293,-6.4784,-6.4485,-6.4336,-6.4336,-6.4186,-6.3917,-6.3528,-6.3378,-6.3139,-6.278,-6.1613,-6.1313,-6.1553,-6.0685,-6.0835,-6.1642,-6.1792,-6.2181,-6.263,-6.278,-6.2839,-6.2869,-6.3019,-6.3079,-6.3079,-6.3079,-6.3079,-6.3079,-6.3079,-6.3079,-6.3079,-6.3079,-6.3079,-6.3079,-6.3079,-6.3079,-6.3079,-6.3079,-6.3079,-6.3137,-6.3194,-6.3194,-6.3252,-6.3309,-6.3481,-6.3538,-6.3367,-6.3709,-6.3936,-6.3622,-6.3906,0.0,0.0,-6.43,-6.4274,-6.3492,-6.3785,-6.4262,0.0,0.0,0.0,0.0,-6.6041,-6.559,-6.4036,-6.5144,-6.5862,-6.6011,-6.667,-6.7238,-6.7747,-6.8435,-6.9093,-6.9752,-6.9901,-7.0231,-7.0679,-7.0829,-7.0889,-7.0889,-7.0889,-7.0889,-7.0889,-7.0889,-7.0889,-7.0829,-7.0201,-6.9572,-6.8884,-6.6999,-6.6999,-6.6999,-6.6999,-6.6999,-6.6999,-6.6999,-6.6999,-6.6999,-6.6999,-6.6999,-6.6999,-6.6999,-6.6999,-6.6999,-6.6999,-6.6999,-6.6999,-6.6999,-6.6999,-6.6999,-6.6999,-6.6999,-6.6819,-6.646,-6.6161,-6.5682,-6.5024,-6.5024,-6.5024,-6.5024,-6.5024,-6.4844,-6.4485,-6.4485,-6.4276,-6.3917,-6.3199,-6.2929,-6.2899,-6.2181,-6.2151,-6.254,-6.254,-6.278,-6.3079,-6.3079,-6.3079,-6.3079,-6.3079,-6.3079,-6.3139,-6.3408,-6.3498,-6.3558,-6.3887,-6.3558,-6.3079,-6.3079,-6.3079,-6.3079,-6.3079,-6.3194,-6.3252,-6.3137,-6.3194,-6.3252,-6.3137,-6.3194,-6.3252,-6.3137,-6.3424,-6.3652,-6.3367,-6.3709,-6.388,-6.3538,-6.3823,-6.3914,-6.3757,-6.3746,-6.3686,-6.3526,-6.3672,-6.4,-6.4779,0.0,0.0,-6.5772,-6.6072,-6.5862,-6.4934,-6.5622,-6.6161,-6.646,-6.7119,-6.7926,-6.8884,-6.9273,-6.9782,-7.041,-7.041,-7.059,-7.0889,-7.0889,-7.0889,-7.0889,-7.0889,-7.0889,-7.0889,-7.0889,-7.0889,-7.0799,-6.9871,-6.9303,-6.8854,-6.6999,-6.6999,-6.6999,-6.6999,-6.6999,-6.6999,-6.6999,-6.6999,-6.6999,-6.6999,-6.6999,-6.6999,-6.6999,-6.6999,-6.6999,-6.6999,-6.6999,-6.6999,-6.6999,-6.6999,-6.6999,-6.6999,-6.6999,-6.6999,-6.6999,-6.643,-6.5892,-6.5323,-6.5323,-6.5323,-6.5323,-6.5323,-6.5323,-6.5323,-6.5323,-6.5323,-6.5323,-6.5114,-6.4755,-6.4276,-6.4066,-6.3737,-6.3378,-6.3258,-6.3228,-6.3199,-6.3109,-6.3079,-6.3079,-6.3079,-6.3079,-6.3199,-6.3797,-6.4006,-6.4126,-6.4814,-6.4246,-6.3348,-6.3258,-6.3139,-6.3079,-6.3079,-6.3252,-6.3367,-6.3137,-6.3309,-6.3367,-6.3137,-6.3309,-6.3367,-6.3137,-6.3538,-6.3827,-6.3779,-6.383,-6.3884,-6.3867,0.0,-6.3921,-6.4034,-6.3817,-6.3757,-6.4096,-6.4156,-6.4156,-6.4156,-6.4784,-6.5173,-6.5173,-6.5802,-6.6161,-6.6161,-6.6161,-6.646,-6.7119,-6.7897,-6.8854,-6.9991,-7.0081,-7.038,-7.0889,-7.0889,-7.0889,-7.0889,-7.0889,-7.0889,-7.0889,-7.0889,-7.0889,-7.0889,-7.0889,-7.0889,-7.0769,-6.9572,-6.9093,-6.8824,-6.6999,-6.6999,-6.6999,-6.6999,-6.6999,-6.6999,-6.6999,-6.6999,-6.6999,-6.6999,-6.6999,-6.6999,-6.6999,-6.6999,-6.6999,-6.6999,-6.6999,-6.6999,-6.6999,-6.6999,-6.6999,-6.6999,-6.6999,-6.6999,-6.6999,-6.6879,-6.6789,-6.67,-6.67,-6.67,-6.67,-6.67,-6.67,-6.67,-6.67,-6.67,-6.661,-6.5503,-6.5293,-6.5592,-6.4455,-6.4306,-6.4665,-6.4066,-6.3857,-6.3797,-6.3258,-6.3079,-6.3079,-6.3079,-6.3079,-6.3199,-6.3797,-6.4006,-6.4126,-6.4814,-6.4874,-6.4605,-6.4006,-6.3468,-6.3079,-6.3079,-6.3137,-6.3137,-6.3137,-6.3137,-6.3137,-6.3137,-6.3137,-6.3137,-6.3137,-6.3194,-6.367,-6.4985,-6.4058,-6.3815,-6.5395,0.0,-6.3779,-6.4385,-6.4354,-6.4507,-6.4814,-6.4874,-6.4874,-6.4874,-6.5473,-6.5862,-6.5862,-6.649,-6.6849,-6.6849,-6.6849,-6.7148,-6.7807,-6.9034,-6.9782,-6.9991,-7.05,-7.0799,-7.0889,-7.0889,-7.0889,-7.0889,-7.0889,-7.0889,-7.0889,-7.0889,-7.0889,-7.0889,-7.0889,-7.0889,-7.0799,-7.0081,-6.9482,-6.8884,-6.6999,-6.6999,-6.6999,-6.6999,-6.6999,-6.6999,-6.6999,-6.6999,-6.6999,-6.6999,-6.6999,-6.6999,-6.6999,-6.6999,-6.6999,-6.6999,-6.6999,-6.6999,-6.6999,-6.6999,-6.6999,-6.6999,-6.6999,-6.6999,-6.6999,-6.6999,-6.6999,-6.6999,-6.6999,-6.6999,-6.6999,-6.6999,-6.6999,-6.6999,-6.6999,-6.6999,-6.6939,-6.634,-6.6251,-6.646,-6.5473,-6.5263,-6.5473,-6.4814,-6.4545,-6.4455,-6.3797,-6.3558,-6.3528,-6.3199,-6.3079,-6.3199,-6.3797,-6.4246,-6.4695,-6.5353,-6.5293,-6.4874,-6.4186,-6.3797,-6.3498,-6.3169,-6.3194,-6.3309,-6.3137,-6.3194,-6.3252,-6.3137,-6.3194,-6.3252,-6.3137,-6.3367,-6.3776,-6.4322,-6.3988,-6.3985,-6.5009,-6.45,-6.4385,-6.5231,-6.4962,-6.4963,-6.5503,-6.5562,-6.5562,-6.5562,-6.6161,-6.655,-6.655,-6.6819,-6.7148,-6.7508,-6.7508,-6.8016,-6.9034,-6.9662,-7.0141,-7.047,-7.0769,-7.0889,-7.0889,-7.0889,-7.0889,-7.0889,-7.0889,-7.0889,-7.0889,-7.0889,-7.0889,-7.0889,-7.0889,-7.0889,-7.0829,-7.0201,-6.9782,-6.9423,-6.6999,-6.6999,-6.6999,-6.6999,-6.6999,-6.6999,-6.6999,-6.6999,-6.6999,-6.6999,-6.6999,-6.6999,-6.6999,-6.6999,-6.6999,-6.6999,-6.6999,-6.6999,-6.6999,-6.6999,-6.6999,-6.6999,-6.6999,-6.6999,-6.6999,-6.6999,-6.6999,-6.6999,-6.6999,-6.6999,-6.6999,-6.6999,-6.6999,-6.6999,-6.6999,-6.6999,-6.6999,-6.6999,-6.6999,-6.6939,-6.643,-6.6251,-6.6161,-6.5503,-6.5263,-6.5173,-6.4485,-6.4246,-6.4156,-6.3677,-6.3438,-6.3408,-6.4036,-6.4605,-6.5173,-6.5802,-6.5772,-6.5293,-6.4455,-6.4246,-6.4126,-6.3647,-6.3702,-6.3757,-6.3376,-6.3462,-6.3577,-6.3346,-6.3342,-6.3397,-6.3316,-6.3571,-6.3917,-6.4141,0.0,-6.4253,-6.5076,-6.4866,-6.4931,-6.5862,-6.5562,-6.5533,-6.6161,-6.6251,-6.6251,-6.6251,-6.67,-6.6999,-6.6999,-6.7148,-6.7597,-6.8405,-6.8435,-6.8944,-6.9961,-7.0111,-7.044,-7.0889,-7.0889,-7.0889,-7.0889,-7.0889,-7.0889,-7.0889,-7.0889,-7.0889,-7.0889,-7.0889,-7.0889,-7.0889,-7.0889,-7.1009,-7.1068,-7.059,-7.041,-7.032,-6.6999,-6.6999,-6.6999,-6.6999,-6.6999,-6.6999,-6.6999,-6.6999,-6.6999,-6.6999,-6.6999,-6.6999,-6.6999,-6.6999,-6.6999,-6.6999,-6.6999,-6.6999,-6.6999,-6.6999,-6.6999,-6.6999,-6.6999,-6.6999,-6.6999,-6.6999,-6.6999,-6.6999,-6.6999,-6.6999,-6.6999,-6.6999,-6.6999,-6.6999,-6.6999,-6.6999,-6.6999,-6.6999,-6.6999,-6.6999,-6.6939,-6.6909,-6.6849,-6.6191,-6.5951,-6.5862,-6.5203,-6.4964,-6.4934,-6.4904,-6.4455,-6.4066,-6.4725,-6.4994,-6.5173,-6.5802,-6.64,-6.658,-6.5293,-6.4964,-6.4934,-6.4904,-6.4874,-6.4725,-6.4066,-6.3917,-6.3917,-6.3947,-6.3468,-6.3316,-6.3827,-6.3526,-6.3852,-6.592,-6.4991,-6.4782,-6.7005,-6.5952,-6.5203,-6.5922,-6.5981,-6.6191,-6.6849,-6.6909,-6.6909,-6.6909,-6.6969,-6.6999,-6.6999,-6.7567,-6.8495,-6.9782,-6.9842,-6.9871,-6.9991,-7.056,-7.0859,-7.0889,-7.0889,-7.0889,-7.0889,-7.0889,-7.0889,-7.0889,-7.0889,-7.0889,-7.0889,-7.0889,-7.0889,-7.0889,-7.0889,-7.1278,-7.1816,-7.1757,-7.1757,-7.1637,-6.6999,-6.6999,-6.6999,-6.6999,-6.6999,-6.6999,-6.6999,-6.6999,-6.6999,-6.6999,-6.6999,-6.6999,-6.6999,-6.6999,-6.6999,-6.6999,-6.6999,-6.6999,-6.6999,-6.6999,-6.6999,-6.6999,-6.6999,-6.6999,-6.6999,-6.6999,-6.6999,-6.6999,-6.6999,-6.6999,-6.6999,-6.6999,-6.6999,-6.6999,-6.6999,-6.6999,-6.6999,-6.6999,-6.6999,-6.6999,-6.6999,-6.6999,-6.6969,-6.67,-6.661,-6.652,-6.5862,-6.5652,-6.5592,-6.5173,-6.4844,-6.4695,-6.4934,-6.5323,-6.5772,-6.643,-6.6789,-6.6879,-6.637,-6.5951,-6.5533,-6.5114,-6.5024,-6.4964,-6.4695,-6.4635,-6.4635,-6.4635,-6.4455,-6.4366,-6.4605,-6.4455,-6.4574,-6.5413,-6.5023,-6.5113,-6.6402,-6.6012,-6.5892,-6.655,-6.661,-6.6729,-6.6969,-6.6999,-6.6999,-6.6999,-6.6999,-6.7178,-6.7567,-6.8615,-6.9453,-6.9961,-7.035,-7.056,-7.056,-7.0799,-7.0889,-7.0889,-7.0889,-7.0889,-7.0889,-7.0889,-7.0889,-7.0889,-7.0889,-7.1128,-7.1517,-7.1517,-7.1757,-7.2146,-7.2146,-7.2295,-7.2535,-7.2535,-7.2535,-7.2415,-6.6999,-6.6999,-6.6999,-6.6999,-6.6999,-6.6999,-6.6999,-6.6999,-6.6999,-6.6999,-6.6999,-6.6999,-6.6999,-6.6999,-6.6999,-6.6999,-6.6999,-6.6999,-6.6999,-6.6999,-6.6999,-6.6999,-6.6999,-6.6999,-6.6999,-6.6999,-6.6999,-6.6999,-6.6999,-6.6999,-6.6999,-6.6999,-6.6999,-6.6999,-6.6999,-6.6999,-6.6999,-6.6999,-6.6999,-6.6999,-6.6999,-6.6999,-6.6999,-6.6999,-6.6999,-6.6939,-6.649,-6.6311,-6.6251,-6.5802,-6.5503,-6.5323,-6.5323,-6.5652,-6.6131,-6.6789,-6.6999,-6.6999,-6.6999,-6.667,-6.6191,-6.5742,-6.5652,-6.5592,-6.5383,-6.5323,-6.5323,-6.5323,-6.5173,-6.5084,-6.5293,-6.5173,-6.5114,-6.5293,-6.5323,-6.5562,-6.6221,-6.6311,-6.649,-6.6939,-6.6999,-6.6999,-6.6999,-6.6999,-6.6999,-6.6999,-6.6999,-6.7358,-6.8256,-6.9363,-7.0081,-7.026,-7.0679,-7.0889,-7.0889,-7.0889,-7.0889,-7.0889,-7.0889,-7.0889,-7.0889,-7.0889,-7.1009,-7.1218,-7.1218,-7.1577,-7.2206,-7.2206,-7.2505,-7.2924,-7.2924,-7.3043,-7.3223,-7.3223,-7.3343,-7.3402,-6.6999,-6.6999,-6.6999,-6.6999,-6.6999,-6.6999,-6.6999,-6.6999,-6.6999,-6.6999,-6.6999,-6.6999,-6.6999,-6.6999,-6.6999,-6.6999,-6.6999,-6.6999,-6.6999,-6.6999,-6.6999,-6.6999,-6.6999,-6.6999,-6.6999,-6.6999,-6.6999,-6.6999,-6.6999,-6.6999,-6.6999,-6.6999,-6.6999,-6.6999,-6.6999,-6.6999,-6.6999,-6.6999,-6.6999,-6.6999,-6.6999,-6.6999,-6.6999,-6.6999,-6.6999,-6.6999,-6.6999,-6.6999,-6.6999,-6.6999,-6.655,-6.6011,-6.6011,-6.6011,-6.6131,-6.6789,-6.6999,-6.6999,-6.6999,-6.6999,-6.6999,-6.6999,-6.6999,-6.6819,-6.6161,-6.6011,-6.6011,-6.6011,-6.5503,-6.5233,-6.5892,-6.5473,-6.5263,-6.5922,-6.6011,-6.6251,-6.6909,-6.6999,-6.6999,-6.6999,-6.6999,-6.6999,-6.6999,-6.6999,-6.6999,-6.6999,-6.6999,-6.7597,-6.8944,-6.9632,-7.026,-7.0889,-7.0889,-7.0889,-7.0889,-7.0889,-7.0889,-7.0889,-7.0889,-7.0889,-7.0919,-7.0919,-7.1278,-7.1906,-7.1906,-7.2295,-7.2924,-7.2924,-7.2924,-7.2924,-7.2924,-7.3343,-7.3911,-7.3911,-7.43,-7.4689,-6.6999,-6.6999,-6.6999,-6.6999,-6.6999,-6.6999,-6.6999,-6.6999,-6.6999,-6.6999,-6.6999,-6.6999,-6.6999,-6.6999,-6.6999,-6.6999,-6.6999,-6.6999,-6.6999,-6.6999,-6.6999,-6.6999,-6.6999,-6.6999,-6.6999,-6.6999,-6.6999,-6.6999,-6.6999,-6.6999,-6.6999,-6.6999,-6.6999,-6.6999,-6.6999,-6.6999,-6.6999,-6.6999,-6.6999,-6.6999,-6.6999,-6.6999,-6.6999,-6.6999,-6.6999,-6.6999,-6.6999,-6.6999,-6.6999,-6.6999,-6.6849,-6.67,-6.67,-6.67,-6.6729,-6.6939,-6.6999,-6.6999,-6.6999,-6.6999,-6.6999,-6.6999,-6.6999,-6.6939,-6.6759,-6.67,-6.67,-6.67,-6.655,-6.646,-6.667,-6.655,-6.646,-6.667,-6.67,-6.6759,-6.6969,-6.6999,-6.6999,-6.6999,-6.6999,-6.6999,-6.6999,-6.6999,-6.6999,-6.6999,-6.7867,-6.8764,-6.9632,-7.029,-7.0709,-7.0889,-7.0889,-7.0889,-7.0889,-7.0889,-7.0889,-7.0889,-7.0889,-7.1158,-7.1577,-7.1577,-7.1966,-7.2595,-7.2595,-7.2984,-7.3612,-7.3612,-7.3881,-7.43,-7.43,-7.442,-7.4569,-7.4569,-7.4719,-7.4749,-6.6999,-6.6999,-6.6909,-6.664,-6.661,-6.652,-6.6251,-6.6221,-6.6311,-6.658,-6.6819,-6.7089,-6.7358,-6.7627,-6.7777,-6.7777,-6.7777,-6.7777,-6.7777,-6.7777,-6.7657,-6.7388,-6.7388,-6.7268,-6.6999,-6.6999,-6.6999,-6.6999,-6.6999,-6.6999,-6.6999,-6.6999,-6.6999,-6.6999,-6.6999,-6.6999,-6.6999,-6.6999,-6.6999,-6.6999,-6.6999,-6.6999,-6.6999,-6.6999,-6.6999,-6.6999,-6.6999,-6.6999,-6.6999,-6.6999,-6.6999,-6.6999,-6.6999,-6.6999,-6.6999,-6.6999,-6.6999,-6.6999,-6.6999,-6.6999,-6.6999,-6.6999,-6.6999,-6.6999,-6.6999,-6.6999,-6.6999,-6.6999,-6.6999,-6.6999,-6.6999,-6.6999,-6.6999,-6.6999,-6.6999,-6.6999,-6.6999,-6.6999,-6.6999,-6.6999,-6.6999,-6.6999,-6.6999,-6.7238,-6.7508,-6.7777,-6.8794,-6.9572,-6.9961,-7.056,-7.0889,-7.0889,-7.0889,-7.0889,-7.0889,-7.0889,-7.0889,-7.0889,-7.1158,-7.1517,-7.1906,-7.2176,-7.2654,-7.3313,-7.3313,-7.3672,-7.43,-7.43,-7.451,-7.4869,-7.4869,-7.4869,-7.4869,-7.4869,-7.4869,-7.4749,-6.6969,-6.6879,-6.664,-6.6101,-6.5951,-6.5742,-6.5203,-6.5114,-6.5353,-6.6011,-6.667,-6.7298,-6.7897,-6.8585,-6.9004,-6.9004,-6.9004,-6.9004,-6.9004,-6.9004,-6.8704,-6.8076,-6.8076,-6.7777,-6.7178,-6.7119,-6.7089,-6.7089,-6.7089,-6.7059,-6.6999,-6.6999,-6.6999,-6.6999,-6.6999,-6.6999,-6.6999,-6.6999,-6.6999,-6.6999,-6.6999,-6.6999,-6.6999,-6.6999,-6.6999,-6.6999,-6.6999,-6.6999,-6.6999,-6.6999,-6.6999,-6.6999,-6.6999,-6.6999,-6.6999,-6.6999,-6.6999,-6.6999,-6.6999,-6.6999,-6.6999,-6.6999,-6.6999,-6.6999,-6.6999,-6.6999,-6.6999,-6.6999,-6.6999,-6.6999,-6.6999,-6.6999,-6.6999,-6.6999,-6.6999,-6.6999,-6.6999,-6.6999,-6.6999,-6.7059,-6.7089,-6.7089,-6.7178,-6.7717,-6.8345,-6.9034,-6.9632,-6.9991,-7.0051,-7.059,-7.0889,-7.0889,-7.0889,-7.0889,-7.0889,-7.0949,-7.0979,-7.1009,-7.1607,-7.1936,-7.2086,-7.2714,-7.3373,-7.3971,-7.3971,-7.433,-7.4869,-7.4869,-7.4869,-7.4869,-7.4869,-7.4869,-7.4869,-7.4869,-7.4869,-7.4689,-6.6879,-6.6161,-6.5562,-6.5951,-6.5592,-6.5353,-6.5742,-6.5802,-6.6041,-6.67,-6.7358,-6.7807,-6.7956,-6.8585,-6.9004,-6.9004,-6.9004,-6.9004,-6.9004,-6.9004,-6.8944,-6.8794,-6.8764,-6.8704,-6.8555,-6.8046,-6.7747,-6.7747,-6.7747,-6.7478,-6.6999,-6.6999,-6.6999,-6.6999,-6.6999,-6.6999,-6.6999,-6.6999,-6.6999,-6.6999,-6.6999,-6.6999,-6.6999,-6.6999,-6.6999,-6.6999,-6.6999,-6.6999,-6.6999,-6.6999,-6.6999,-6.6999,-6.6999,-6.6999,-6.6999,-6.6999,-6.6999,-6.6999,-6.6999,-6.6999,-6.6999,-6.6999,-6.6999,-6.6999,-6.6999,-6.6999,-6.6999,-6.6999,-6.6999,-6.6999,-6.6999,-6.6999,-6.6999,-6.6999,-6.6999,-6.6999,-6.6999,-6.6999,-6.7178,-6.7687,-6.7747,-6.7956,-6.8525,-6.8704,-6.9064,-6.9722,-6.9901,-7.0201,-7.0679,-7.0829,-7.0889,-7.0889,-7.0889,-7.0889,-7.0889,-7.1427,-7.1667,-7.1667,-7.1816,-7.2445,-7.3462,-7.3612,-7.4031,-7.4659,-7.4659,-7.4749,-7.4869,-7.4869,-7.4869,-7.4869,-7.4869,-7.4869,-7.4869,-7.4869,-7.4869,-7.4689,-6.5981,-6.5503,-6.5144,-6.5473,-6.5263,-6.5144,-6.5503,-6.5533,-6.5772,-6.643,-6.7358,-6.8106,-6.8435,-6.9333,-6.9901,-6.9901,-6.9901,-6.9901,-6.9901,-6.9901,-6.9782,-6.9482,-6.9482,-6.9482,-6.9482,-6.9123,-6.8794,-6.8465,-6.8136,-6.7807,-6.7448,-6.7148,-6.6999,-6.6999,-6.6999,-6.6999,-6.6999,-6.6999,-6.6999,-6.6999,-6.6999,-6.6999,-6.6999,-6.6999,-6.6999,-6.6999,-6.6999,-6.6999,-6.6999,-6.6999,-6.6999,-6.6999,-6.6999,-6.6999,-6.6999,-6.6999,-6.6999,-6.6999,-6.6999,-6.6999,-6.6999,-6.6999,-6.6999,-6.6999,-6.6999,-6.6999,-6.6999,-6.6999,-6.6999,-6.7089,-6.7388,-6.7448,-6.7448,-6.7448,-6.7747,-6.7717,-6.7089,-6.7537,-6.7956,-6.7956,-6.8256,-6.8734,-6.9393,-6.9482,-6.9722,-7.038,-7.041,-7.056,-7.0889,-7.0889,-7.0889,-7.0889,-7.0889,-7.1038,-7.1368,-7.1697,-7.2206,-7.2834,-7.2834,-7.3223,-7.3911,-7.421,-7.454,-7.4869,-7.4869,-7.4689,-7.442,-7.442,-7.442,-7.442,-7.442,-7.4599,-7.4869,-7.4869,-7.4689,-7.421,-6.5353,-6.5173,-6.5054,-6.5173,-6.5114,-6.5054,-6.5173,-6.5203,-6.5443,-6.6101,-6.7238,-6.8196,-6.8764,-6.9961,-7.0799,-7.0889,-7.0889,-7.0889,-7.0889,-7.0889,-7.0679,-7.0171,-7.0141,-7.0141,-7.0141,-7.0141,-6.9812,-6.9183,-6.8585,-6.8196,-6.7956,-6.7418,-6.7089,-6.6999,-6.6999,-6.6999,-6.6999,-6.6999,-6.6999,-6.6999,-6.6999,-6.6999,-6.6999,-6.6999,-6.6999,-6.6999,-6.6999,-6.6999,-6.6999,-6.6999,-6.6999,-6.6999,-6.6999,-6.6999,-6.6999,-6.6999,-6.6999,-6.6999,-6.6999,-6.6999,-6.6999,-6.6999,-6.6999,-6.6999,-6.6999,-6.6999,-6.6999,-6.6999,-6.6999,-6.7178,-6.7837,-6.7956,-6.8016,-6.8136,-6.8615,-6.8615,-6.7478,-6.8286,-6.8824,-6.8375,-6.8914,-6.9542,-7.0081,-7.0141,-7.035,-7.0859,-7.0889,-7.0889,-7.0889,-7.0889,-7.0889,-7.0889,-7.1009,-7.1338,-7.1876,-7.2116,-7.2774,-7.3881,-7.4001,-7.4061,-7.4091,-7.4629,-7.4869,-7.4869,-7.4749,-7.439,-7.3881,-7.3762,-7.3732,-7.3732,-7.3732,-7.4061,-7.454,-7.454,-7.427,-7.3702,-6.661,-6.5802,-6.5203,-6.5772,-6.5413,-6.5233,-6.5802,-6.5862,-6.6101,-6.6759,-6.7508,-6.8016,-6.8106,-6.9303,-7.032,-7.0859,-7.0889,-7.0889,-7.0889,-7.0889,-7.0859,-7.0769,-7.0769,-7.0769,-7.0769,-7.0769,-7.047,-6.9842,-6.9752,-6.9123,-6.7956,-6.7897,-6.7537,-6.6999,-6.6999,-6.6999,-6.6999,-6.6999,-6.6999,-6.6999,-6.6999,-6.6999,-6.6999,-6.6999,-6.6999,-6.6999,-6.6999,-6.6999,-6.6999,-6.6999,-6.6999,-6.6999,-6.6999,-6.6999,-6.6999,-6.6999,-6.6999,-6.6999,-6.6999,-6.6999,-6.6999,-6.6999,-6.6999,-6.6999,-6.6999,-6.6999,-6.6999,-6.6999,-6.6999,-6.7178,-6.7837,-6.7956,-6.8166,-6.8764,-6.8944,-6.8944,-6.8764,-6.8884,-6.9183,-6.9662,-7.026,-7.0679,-7.0769,-7.0769,-7.0799,-7.0889,-7.0889,-7.0889,-7.0889,-7.0889,-7.0889,-7.0889,-7.1457,-7.1787,-7.1876,-7.3043,-7.3702,-7.3911,-7.448,-7.4749,-7.4749,-7.4839,-7.4869,-7.4839,-7.427,-7.3971,-7.3851,-7.3283,-7.3043,-7.3043,-7.3043,-7.3103,-7.3193,-7.3193,-7.3492,-7.3702,-6.5832,-6.5413,-6.5233,-6.5892,-6.5772,-6.5802,-6.646,-6.655,-6.667,-6.6939,-6.7567,-6.7956,-6.7956,-6.9183,-7.0231,-7.0859,-7.0889,-7.0889,-7.0889,-7.0889,-7.0889,-7.0889,-7.0889,-7.0889,-7.0889,-7.0889,-7.0769,-7.05,-7.0141,-6.9692,-6.9093,-6.8704,-6.8405,-6.8106,-6.7717,-6.7537,-6.7508,-6.7148,-6.6999,-6.6999,-6.6999,-6.6999,-6.6999,-6.6999,-6.6999,-6.6999,-6.6999,-6.6999,-6.6999,-6.6999,-6.6999,-6.6999,-6.6999,-6.6999,-6.6999,-6.6999,-6.6999,-6.6999,-6.6999,-6.6999,-6.6999,-6.6999,-6.6999,-6.6999,-6.6999,-6.6999,-6.6999,-6.6999,-6.6999,-6.7298,-6.8345,-6.8555,-6.8764,-6.9423,-6.9842,-6.9812,-6.9093,-6.9602,-7.0171,-7.047,-7.0739,-7.0889,-7.0889,-7.0889,-7.0889,-7.0889,-7.0889,-7.0889,-7.0889,-7.0889,-7.1068,-7.1457,-7.1727,-7.2235,-7.3013,-7.3582,-7.4091,-7.445,-7.4749,-7.4869,-7.4869,-7.4869,-7.4689,-7.43,-7.4031,-7.3462,-7.2744,-7.2445,-7.2325,-7.2325,-7.2325,-7.2565,-7.2864,-7.2475,-7.2774,-7.3163]},{"header":{"parameterUnit":"m.s-1","parameterCategory":1,"la1":30.6,"la2":28.766,"lo1":-90.7593,"lo2":-88.6598,"dx":0.0162,"dy":0.0183,"nx":116,"ny":114,"refTime":"2022-12-25T18:00:00:Z","depth":0,"parameterNumber":3,"parameterNumberName":"V-component_of_WINDS"},"data":[0.0,0.0,0.0,0.0,0.0,0.0,0.0,0.0,0.0,0.0,0.0,0.0,0.0,0.0,0.0,0.0,0.0,0.0,0.0,0.0,0.0,0.0,0.0,0.0,0.0,0.0,0.0,0.0,0.0,0.0,0.0,0.0,0.0,0.0,0.0,0.0,0.0,0.0,0.0,0.0,0.0,0.0,0.0,0.0,0.0,0.0,0.0,0.0,0.0,0.0,0.0,0.0,0.0,0.0,0.0,0.0,0.0,0.0,0.0,0.0,0.0,0.0,0.0,0.0,0.0,0.0,0.0,0.0,0.0,0.0,0.0,0.0,0.0,0.0,0.0,0.0,0.0,0.0,0.0,0.0,0.0,0.0,0.0,0.0,0.0,0.0,0.0,0.0,0.0,0.0,0.0,0.0,0.0,0.0,0.0,0.0,0.0,0.0,0.0,0.0,0.0,0.0,0.0,0.0,0.0,0.0,0.0,0.0,0.0,0.0,0.0,0.0,0.0,0.0,0.0,0.0,0.0,0.0,0.0,0.0,0.0,0.0,0.0,0.0,0.0,0.0,0.0,0.0,0.0,0.0,0.0,0.0,0.0,0.0,0.0,0.0,0.0,0.0,0.0,0.0,0.0,0.0,0.0,0.0,0.0,0.0,0.0,0.0,0.0,0.0,0.0,0.0,0.0,0.0,0.0,0.0,0.0,0.0,0.0,0.0,0.0,0.0,0.0,0.0,0.0,0.0,0.0,0.0,0.0,0.0,0.0,0.0,0.0,0.0,0.0,0.0,0.0,0.0,0.0,0.0,0.0,0.0,0.0,0.0,0.0,0.0,0.0,0.0,0.0,0.0,0.0,0.0,0.0,0.0,0.0,0.0,0.0,0.0,0.0,0.0,0.0,0.0,0.0,0.0,0.0,0.0,0.0,0.0,0.0,0.0,0.0,0.0,0.0,0.0,0.0,0.0,0.0,0.0,0.0,0.0,0.0,0.0,0.0,0.0,0.0,0.0,0.0,0.0,0.0,0.0,0.0,0.0,0.0,0.0,0.0,0.0,0.0,0.0,0.0,0.0,0.0,0.0,0.0,0.0,0.0,0.0,0.0,0.0,0.0,0.0,0.0,0.0,0.0,0.0,0.0,0.0,0.0,0.0,0.0,0.0,0.0,0.0,0.0,0.0,0.0,0.0,0.0,0.0,0.0,0.0,0.0,0.0,0.0,0.0,0.0,0.0,0.0,0.0,0.0,0.0,0.0,0.0,0.0,0.0,0.0,0.0,0.0,0.0,0.0,0.0,0.0,0.0,0.0,0.0,0.0,0.0,0.0,0.0,0.0,0.0,0.0,0.0,0.0,0.0,0.0,0.0,0.0,0.0,0.0,0.0,0.0,0.0,0.0,0.0,0.0,0.0,0.0,0.0,0.0,0.0,0.0,0.0,0.0,0.0,0.0,0.0,0.0,0.0,0.0,0.0,0.0,0.0,0.0,0.0,0.0,0.0,0.0,0.0,0.0,0.0,0.0,0.0,0.0,0.0,0.0,0.0,0.0,0.0,0.0,0.0,0.0,0.0,0.0,0.0,0.0,0.0,0.0,0.0,0.0,0.0,0.0,0.0,0.0,0.0,0.0,0.0,0.0,0.0,0.0,0.0,0.0,0.0,0.0,0.0,0.0,0.0,0.0,0.0,0.0,0.0,0.0,0.0,0.0,0.0,0.0,0.0,0.0,0.0,0.0,0.0,0.0,0.0,0.0,0.0,0.0,0.0,0.0,0.0,0.0,0.0,0.0,0.0,0.0,0.0,0.0,0.0,0.0,0.0,0.0,0.0,0.0,0.0,0.0,0.0,0.0,0.0,0.0,0.0,0.0,0.0,0.0,0.0,0.0,0.0,0.0,0.0,0.0,0.0,0.0,0.0,0.0,0.0,0.0,0.0,0.0,0.0,0.0,0.0,0.0,0.0,0.0,0.0,0.0,0.0,0.0,0.0,0.0,0.0,0.0,0.0,0.0,0.0,0.0,0.0,0.0,0.0,0.0,0.0,0.0,0.0,0.0,0.0,0.0,0.0,0.0,0.0,0.0,0.0,0.0,0.0,0.0,0.0,0.0,0.0,0.0,0.0,0.0,0.0,0.0,0.0,0.0,0.0,0.0,0.0,0.0,0.0,0.0,0.0,0.0,0.0,0.0,0.0,0.0,0.0,0.0,0.0,0.0,0.0,0.0,0.0,0.0,0.0,0.0,0.0,0.0,0.0,0.0,0.0,0.0,0.0,0.0,0.0,0.0,0.0,0.0,0.0,0.0,0.0,0.0,0.0,0.0,0.0,0.0,0.0,0.0,0.0,0.0,0.0,0.0,0.0,0.0,0.0,0.0,0.0,0.0,0.0,0.0,0.0,0.0,0.0,0.0,0.0,0.0,0.0,0.0,0.0,0.0,0.0,0.0,0.0,0.0,0.0,0.0,0.0,0.0,0.0,0.0,0.0,0.0,0.0,0.0,0.0,0.0,0.0,0.0,0.0,0.0,0.0,0.0,0.0,0.0,0.0,0.0,0.0,0.0,0.0,0.0,0.0,0.0,0.0,0.0,0.0,0.0,0.0,0.0,0.0,0.0,0.0,0.0,0.0,0.0,0.0,0.0,0.0,0.0,0.0,0.0,0.0,0.0,0.0,0.0,0.0,0.0,0.0,0.0,0.0,0.0,0.0,0.0,0.0,0.0,0.0,0.0,0.0,0.0,0.0,0.0,0.0,0.0,0.0,0.0,0.0,0.0,0.0,0.0,0.0,0.0,0.0,0.0,0.0,0.0,0.0,0.0,0.0,0.0,0.0,0.0,0.0,0.0,0.0,0.0,0.0,0.0,0.0,0.0,0.0,0.0,0.0,0.0,0.0,0.0,0.0,0.0,0.0,0.0,0.0,0.0,0.0,0.0,0.0,0.0,0.0,0.0,0.0,0.0,0.0,0.0,0.0,0.0,0.0,0.0,0.0,0.0,0.0,0.0,0.0,0.0,0.0,0.0,0.0,0.0,0.0,0.0,0.0,0.0,0.0,0.0,0.0,0.0,0.0,0.0,0.0,0.0,0.0,0.0,0.0,0.0,0.0,0.0,0.0,0.0,0.0,0.0,0.0,0.0,0.0,0.0,0.0,0.0,0.0,0.0,0.0,0.0,0.0,0.0,0.0,0.0,0.0,0.0,0.0,0.0,0.0,0.0,0.0,0.0,0.0,0.0,0.0,0.0,0.0,0.0,0.0,0.0,0.0,0.0,0.0,0.0,0.0,0.0,0.0,0.0,0.0,0.0,0.0,0.0,0.0,0.0,0.0,0.0,0.0,0.0,0.0,0.0,0.0,0.0,0.0,0.0,0.0,0.0,0.0,0.0,0.0,0.0,0.0,0.0,0.0,0.0,0.0,0.0,0.0,0.0,0.0,0.0,0.0,0.0,0.0,0.0,0.0,0.0,0.0,0.0,0.0,0.0,0.0,0.0,0.0,0.0,0.0,0.0,0.0,0.0,0.0,0.0,0.0,0.0,0.0,0.0,0.0,0.0,0.0,0.0,0.0,0.0,0.0,0.0,0.0,0.0,0.0,0.0,0.0,0.0,0.0,0.0,0.0,0.0,0.0,0.0,0.0,0.0,0.0,0.0,0.0,0.0,0.0,0.0,0.0,0.0,0.0,0.0,0.0,0.0,0.0,0.0,0.0,0.0,0.0,0.0,0.0,0.0,0.0,0.0,0.0,0.0,0.0,0.0,0.0,0.0,0.0,0.0,0.0,0.0,0.0,0.0,0.0,0.0,0.0,0.0,0.0,0.0,0.0,0.0,0.0,0.0,0.0,0.0,0.0,0.0,0.0,0.0,0.0,0.0,0.0,0.0,0.0,0.0,0.0,0.0,0.0,0.0,0.0,0.0,0.0,0.0,0.0,0.0,0.0,0.0,0.0,0.0,0.0,0.0,0.0,0.0,0.0,0.0,0.0,0.0,0.0,0.0,0.0,0.0,0.0,0.0,0.0,0.0,0.0,0.0,0.0,0.0,0.0,0.0,0.0,0.0,0.0,0.0,0.0,0.0,0.0,0.0,0.0,0.0,0.0,0.0,0.0,0.0,0.0,0.0,0.0,0.0,0.0,0.0,0.0,0.0,0.0,0.0,0.0,0.0,0.0,0.0,0.0,0.0,0.0,0.0,0.0,0.0,0.0,0.0,0.0,0.0,0.0,0.0,0.0,0.0,0.0,0.0,0.0,0.0,0.0,0.0,0.0,0.0,0.0,0.0,0.0,0.0,0.0,0.0,0.0,0.0,0.0,0.0,0.0,0.0,0.0,0.0,0.0,0.0,0.0,0.0,0.0,0.0,0.0,0.0,0.0,0.0,0.0,0.0,0.0,0.0,0.0,0.0,0.0,0.0,0.0,0.0,0.0,0.0,0.0,0.0,0.0,0.0,0.0,0.0,0.0,0.0,0.0,0.0,0.0,0.0,0.0,0.0,0.0,0.0,0.0,0.0,0.0,0.0,0.0,0.0,0.0,0.0,0.0,0.0,0.0,0.0,0.0,0.0,0.0,0.0,0.0,0.0,0.0,0.0,0.0,0.0,0.0,0.0,0.0,0.0,0.0,0.0,0.0,0.0,0.0,0.0,0.0,0.0,0.0,0.0,0.0,0.0,0.0,0.0,0.0,0.0,0.0,0.0,0.0,0.0,0.0,0.0,0.0,0.0,0.0,0.0,0.0,0.0,0.0,0.0,0.0,0.0,0.0,0.0,0.0,0.0,0.0,0.0,0.0,0.0,0.0,0.0,0.0,0.0,0.0,0.0,0.0,0.0,0.0,0.0,0.0,0.0,0.0,0.0,0.0,0.0,0.0,0.0,0.0,0.0,0.0,0.0,0.0,0.0,0.0,0.0,0.0,0.0,0.0,0.0,0.0,0.0,0.0,0.0,0.0,0.0,0.0,0.0,0.0,0.0,0.0,0.0,0.0,0.0,0.0,0.0,0.0,0.0,0.0,0.0,0.0,0.0,0.0,0.0,0.0,0.0,0.0,0.0,0.0,0.0,0.0,0.0,0.0,0.0,0.0,0.0,0.0,0.0,0.0,0.0,0.0,0.0,0.0,0.0,0.0,0.0,0.0,0.0,0.0,0.0,0.0,0.0,0.0,0.0,0.0,0.0,0.0,0.0,0.0,0.0,0.0,0.0,0.0,0.0,0.0,0.0,0.0,0.0,0.0,0.0,0.0,0.0,0.0,0.0,0.0,0.0,0.0,0.0,0.0,0.0,0.0,0.0,0.0,0.0,0.0,0.0,0.0,0.0,0.0,0.0,0.0,0.0,0.0,0.0,0.0,0.0,0.0,0.0,0.0,0.0,0.0,0.0,0.0,0.0,0.0,0.0,0.0,0.0,0.0,0.0,0.0,0.0,0.0,0.0,0.0,0.0,0.0,0.0,0.0,0.0,0.0,0.0,0.0,0.0,0.0,0.0,0.0,0.0,0.0,0.0,0.0,0.0,0.0,0.0,0.0,0.0,0.0,0.0,0.0,0.0,0.0,0.0,0.0,0.0,0.0,0.0,0.0,0.0,0.0,0.0,0.0,0.0,0.0,0.0,0.0,0.0,0.0,0.0,0.0,0.0,0.0,0.0,0.0,0.0,0.0,0.0,0.0,0.0,0.0,0.0,0.0,0.0,0.0,0.0,0.0,0.0,0.0,0.0,0.0,0.0,0.0,0.0,0.0,0.0,0.0,0.0,0.0,0.0,0.0,0.0,0.0,0.0,0.0,0.0,0.0,0.0,0.0,0.0,0.0,0.0,0.0,0.0,0.0,0.0,0.0,0.0,0.0,0.0,0.0,0.0,0.0,0.0,0.0,0.0,0.0,0.0,0.0,0.0,0.0,0.0,0.0,0.0,0.0,0.0,0.0,0.0,0.0,0.0,0.0,0.0,0.0,0.0,0.0,0.0,0.0,0.0,0.0,0.0,0.0,0.0,0.0,0.0,0.0,0.0,0.0,0.0,0.0,0.0,0.0,0.0,0.0,0.0,0.0,0.0,0.0,0.0,0.0,0.0,0.0,0.0,0.0,0.0,0.0,0.0,0.0,0.0,0.0,0.0,0.0,0.0,0.0,3.7795,0.0,0.0,0.0,0.0,0.0,0.0,0.0,0.0,0.0,0.0,0.0,0.0,0.0,0.0,0.0,0.0,0.0,0.0,0.0,0.0,0.0,0.0,0.0,0.0,2.7578,2.7617,2.6758,2.7266,0.0,0.0,0.0,0.0,0.0,0.0,0.0,0.0,0.0,2.7012,2.7012,2.7226,2.7851,2.877,2.8307,2.8513,2.9309,0.0,0.0,0.0,0.0,0.0,0.0,0.0,0.0,0.0,0.0,0.0,0.0,0.0,0.0,0.0,0.0,0.0,0.0,0.0,0.0,0.0,0.0,0.0,0.0,0.0,0.0,0.0,0.0,0.0,0.0,0.0,0.0,0.0,0.0,0.0,0.0,0.0,0.0,0.0,0.0,0.0,0.0,0.0,0.0,0.0,0.0,0.0,0.0,0.0,0.0,0.0,0.0,0.0,0.0,0.0,0.0,0.0,0.0,0.0,0.0,0.0,0.0,0.0,0.0,0.0,0.0,0.0,0.0,0.0,0.0,0.0,3.845,0.0,0.0,0.0,0.0,0.0,0.0,0.0,0.0,0.0,0.0,0.0,0.0,0.0,0.0,0.0,0.0,0.0,0.0,0.0,0.0,0.0,2.7806,2.7728,2.8105,2.8066,2.7207,2.7832,2.7988,2.7285,2.7168,0.0,0.0,0.0,0.0,2.7344,2.7344,2.7519,2.7943,2.8213,2.8951,3.0036,3.0706,3.1032,3.1083,3.133,0.0,0.0,0.0,0.0,0.0,0.0,0.0,0.0,0.0,0.0,0.0,0.0,0.0,0.0,0.0,0.0,0.0,0.0,0.0,0.0,0.0,0.0,0.0,0.0,0.0,0.0,0.0,0.0,0.0,0.0,0.0,0.0,0.0,0.0,0.0,0.0,0.0,0.0,0.0,0.0,0.0,0.0,0.0,0.0,0.0,0.0,0.0,0.0,0.0,0.0,0.0,0.0,0.0,0.0,0.0,0.0,0.0,0.0,0.0,0.0,0.0,0.0,0.0,4.1581,4.1617,4.1617,4.1617,4.2008,4.2653,4.0819,3.9936,3.9776,0.0,0.0,0.0,0.0,0.0,0.0,0.0,0.0,0.0,0.0,0.0,0.0,0.0,0.0,0.0,0.0,0.0,0.0,0.0,0.0,2.8066,2.7767,2.8359,2.8496,2.7708,2.8008,2.8242,2.8125,2.7773,0.0,0.0,0.0,2.8242,2.8652,2.8672,2.8691,2.875,3.0194,3.0789,3.0639,3.3842,3.5213,3.4819,3.3503,3.3198,3.3719,0.0,0.0,0.0,0.0,0.0,0.0,0.0,0.0,0.0,0.0,0.0,0.0,0.0,0.0,0.0,0.0,0.0,0.0,0.0,0.0,0.0,0.0,0.0,0.0,0.0,0.0,0.0,0.0,0.0,0.0,0.0,0.0,0.0,0.0,0.0,0.0,0.0,0.0,0.0,0.0,0.0,3.6789,3.7603,0.0,0.0,0.0,0.0,0.0,0.0,0.0,0.0,0.0,0.0,0.0,0.0,0.0,4.2521,4.2656,4.2897,4.3006,4.3136,4.3437,4.3603,4.3603,4.3603,4.3719,4.3806,4.3474,0.0,4.2055,4.2055,0.0,0.0,0.0,0.0,0.0,0.0,0.0,0.0,0.0,0.0,0.0,0.0,0.0,0.0,0.0,0.0,0.0,0.0,0.0,0.0,0.0,2.834,2.8418,2.8047,2.8184,2.8398,2.8633,2.8262,0.0,0.0,2.8652,2.873,2.8906,2.8926,2.8809,2.8574,2.953,3.0228,3.0669,3.2993,3.4389,3.5044,3.5016,3.512,3.5352,3.5304,0.0,0.0,0.0,0.0,0.0,0.0,0.0,0.0,0.0,0.0,0.0,0.0,0.0,0.0,0.0,0.0,0.0,0.0,0.0,0.0,0.0,0.0,0.0,0.0,0.0,0.0,0.0,0.0,0.0,0.0,0.0,0.0,0.0,0.0,0.0,0.0,0.0,0.0,0.0,3.8241,3.8635,3.9002,3.8727,3.884,0.0,0.0,0.0,0.0,0.0,0.0,0.0,0.0,0.0,4.2214,4.3024,4.3652,4.3991,4.4146,4.449,4.4998,4.514,4.5318,4.5449,4.5449,4.5449,4.5449,4.5318,4.5068,4.476,4.3862,4.2887,4.189,0.0,0.0,0.0,0.0,4.2044,4.2409,0.0,0.0,0.0,0.0,0.0,0.0,0.0,0.0,0.0,0.0,0.0,0.0,2.8457,2.8457,2.8457,2.8457,2.8457,2.8535,2.875,2.8457,0.0,2.875,2.8769,2.8809,2.8926,2.8926,2.8867,2.8769,2.9293,3.0194,3.1431,3.2896,3.4343,3.5713,3.6792,3.6916,3.6386,3.6122,3.5857,3.5617,0.0,0.0,0.0,0.0,0.0,0.0,0.0,0.0,0.0,0.0,0.0,0.0,0.0,0.0,0.0,0.0,0.0,0.0,0.0,0.0,0.0,0.0,0.0,0.0,0.0,0.0,0.0,0.0,0.0,0.0,0.0,0.0,0.0,0.0,0.0,0.0,0.0,3.9838,4.0268,4.0377,4.0423,4.065,0.0,0.0,0.0,0.0,0.0,0.0,4.2611,4.297,4.3247,4.3291,4.4182,4.4851,4.5317,4.5317,4.5726,4.6548,4.6548,4.6726,4.7081,4.7081,4.7081,4.7081,4.6902,4.6947,4.6992,4.5361,4.4239,4.3564,4.3746,4.3732,4.3572,4.3445,4.3947,4.4706,0.0,0.0,0.0,0.0,0.0,0.0,0.0,0.0,0.0,0.0,0.0,2.8887,2.8887,2.8887,2.8887,2.8887,2.8887,2.873,2.834,2.8301,2.8301,2.832,2.832,2.8516,2.8906,2.8926,2.9316,3.0098,3.0913,3.2066,3.3715,3.5766,3.7426,3.8611,3.9169,3.831,3.6435,3.6916,3.6531,3.5665,3.617,0.0,0.0,0.0,0.0,0.0,0.0,0.0,0.0,0.0,0.0,0.0,0.0,0.0,0.0,0.0,0.0,0.0,0.0,0.0,0.0,0.0,0.0,0.0,0.0,0.0,0.0,0.0,0.0,0.0,0.0,0.0,0.0,0.0,0.0,0.0,0.0,0.0,0.0,4.1427,4.1231,0.0,0.0,0.0,0.0,4.2525,4.3398,4.3965,4.418,4.4792,4.5244,4.5432,4.6123,4.6477,4.6506,4.6506,4.6874,4.7523,4.7523,4.7893,4.8529,4.8529,4.8529,4.8529,4.8483,4.8483,4.8365,4.6528,4.6048,4.63,4.5478,4.5331,4.5328,4.412,4.4103,4.4617,0.0,0.0,0.0,0.0,0.0,2.6357,2.6922,2.7851,2.8516,2.8672,2.9297,2.9648,2.9375,2.9336,2.9336,2.9336,2.9336,2.9277,2.9121,2.9375,2.9277,2.8711,2.9219,2.9336,2.8926,2.9746,2.9922,2.9375,3.0512,3.1763,3.3205,3.5031,3.6646,3.8166,3.9181,3.9176,3.8431,3.7926,3.7493,3.7156,3.7348,3.6892,0.0,0.0,0.0,0.0,0.0,0.0,0.0,0.0,0.0,0.0,0.0,0.0,0.0,0.0,0.0,0.0,0.0,0.0,0.0,0.0,0.0,0.0,0.0,0.0,0.0,0.0,0.0,0.0,0.0,0.0,0.0,0.0,0.0,0.0,0.0,0.0,0.0,4.3141,4.338,0.0,4.4002,4.4553,4.4873,4.4873,4.5346,4.5683,4.5771,4.5977,4.6388,4.6889,4.7125,4.745,4.7893,4.7893,4.8072,4.8445,4.8445,4.8654,4.9028,4.9028,4.9028,4.9028,4.8892,4.8892,4.8998,4.8024,4.7756,4.7908,4.7896,4.7778,4.7674,4.7405,4.7493,4.7539,0.0,0.0,0.0,2.6248,2.6441,2.6789,2.7389,2.8208,2.8809,2.9101,2.9629,2.9883,2.9646,2.9687,2.9785,2.9785,2.9785,2.9668,2.9375,2.9746,2.9668,2.8945,2.9609,2.9785,2.9355,3.0215,3.0371,2.9805,3.0664,3.2011,3.3868,3.5143,3.6745,3.8704,3.9706,4.0138,4.009,3.9176,3.8599,3.8262,3.8262,3.7853,3.7276,0.0,0.0,0.0,0.0,0.0,0.0,0.0,0.0,0.0,0.0,0.0,0.0,0.0,0.0,0.0,0.0,0.0,0.0,0.0,0.0,0.0,0.0,0.0,0.0,0.0,0.0,0.0,0.0,0.0,0.0,0.0,0.0,0.0,0.0,0.0,4.4734,4.4327,4.4938,4.536,4.536,4.5917,4.6446,4.6651,4.6815,4.7066,4.7362,4.7362,4.7614,4.8148,4.8148,4.8356,4.8846,4.8846,4.901,4.9356,4.9356,4.9566,4.9912,4.9912,4.9912,4.9912,4.9775,4.9775,4.9912,4.9591,4.9499,4.9469,4.9252,4.9119,4.9044,4.897,4.912,4.9179,0.0,0.0,2.6411,2.6393,2.6527,2.7045,2.8295,2.8377,2.8633,2.9509,2.959,2.9665,2.9665,2.998,3.0234,3.0234,3.0234,2.9863,2.9004,2.9375,2.9414,2.8984,2.9355,2.9785,3.0176,3.0234,3.0664,3.1523,3.1543,3.3048,3.5932,3.645,3.804,4.0451,4.0956,4.1172,4.1148,4.0643,3.9826,3.8888,3.8864,3.8839,3.8767,0.0,0.0,0.0,0.0,0.0,0.0,0.0,0.0,0.0,0.0,0.0,0.0,0.0,0.0,0.0,0.0,0.0,0.0,0.0,0.0,0.0,0.0,0.0,0.0,0.0,0.0,0.0,0.0,0.0,0.0,0.0,0.0,0.0,4.4182,4.4531,4.4937,4.4981,4.574,4.6254,4.6283,4.6506,4.6948,4.7598,4.7627,4.8028,4.8878,4.8907,4.9028,4.9284,4.9329,4.9359,4.9359,4.9359,4.9643,5.0226,5.0226,5.0554,5.1229,5.1229,5.1229,5.1229,5.1229,5.1229,5.1229,5.1229,5.1229,5.1033,4.9564,4.9133,4.9299,4.8626,4.8775,4.9149,2.6591,2.6752,2.6728,2.6449,2.7021,2.7675,2.8022,2.8723,2.9297,2.9607,3.0137,3.0527,3.0527,3.0625,3.082,3.1133,3.0879,3.0449,2.9883,3.0273,3.0332,2.9863,2.9961,3.0078,3.0195,3.082,3.1269,3.1523,3.2129,3.3801,3.6472,3.6953,3.8503,4.098,4.1124,4.1172,4.1172,4.1028,4.0787,4.0499,4.0114,3.9513,3.8839,0.0,0.0,0.0,0.0,0.0,0.0,0.0,0.0,0.0,0.0,0.0,0.0,0.0,0.0,0.0,0.0,0.0,0.0,0.0,0.0,0.0,0.0,0.0,0.0,0.0,0.0,0.0,0.0,0.0,0.0,0.0,0.0,4.5024,4.4676,4.5198,4.5869,4.6486,4.681,4.7193,4.789,4.8131,4.8326,4.8549,4.8715,4.894,4.9164,4.9209,4.9418,4.9942,4.9972,5.0212,5.069,5.069,5.078,5.096,5.096,5.1003,5.1229,5.1229,5.1229,5.1229,5.1229,5.1229,5.1229,5.1229,5.1229,5.1152,5.0717,5.0614,5.0661,5.0481,5.0212,4.9912,2.6591,2.6736,2.6806,2.6691,2.7217,2.786,2.8334,2.8936,2.9355,2.9551,3.0176,3.0605,3.0605,3.0781,3.1055,3.1484,3.1133,3.0703,3.0234,3.0625,3.084,3.0762,3.0918,3.1016,3.1016,3.1699,3.2051,3.2051,3.2734,3.4144,3.6196,3.6392,3.791,4.0374,4.0374,4.0687,4.1172,4.1172,4.1172,4.1148,4.086,4.0355,3.9826,3.9898,3.9224,3.8214,3.831,3.7974,3.7565,3.7878,0.0,0.0,0.0,0.0,0.0,0.0,0.0,0.0,0.0,0.0,0.0,0.0,0.0,0.0,0.0,0.0,0.0,0.0,0.0,0.0,0.0,0.0,0.0,0.0,4.5605,4.5692,4.5692,4.604,4.6596,4.7512,4.7662,4.7992,4.865,4.8937,4.9163,4.9461,4.9582,4.9793,5.0062,5.0092,5.0272,5.0584,5.0614,5.084,5.1229,5.1229,5.1229,5.1229,5.1229,5.1229,5.1229,5.1229,5.1229,0.0,5.1229,5.1229,5.1229,5.1229,5.1229,0.0,0.0,0.0,0.0,0.0,5.0913,5.0554,2.6591,2.6591,2.6682,2.6881,2.7152,2.7687,2.8818,2.8904,2.9008,2.9453,2.9902,3.0195,3.0195,3.0644,3.1133,3.1562,3.1211,3.0781,3.0371,3.0742,3.1133,3.1504,3.1934,3.2229,3.2229,3.2578,3.2812,3.2871,3.3242,3.409,3.5376,3.5376,3.6703,3.898,3.9157,3.9826,4.1,4.1187,4.1268,4.1268,4.1341,4.1293,4.1124,4.0595,4.009,3.9633,3.9104,3.8575,3.8166,3.8166,0.0,0.0,0.0,0.0,0.0,0.0,0.0,0.0,0.0,0.0,0.0,0.0,0.0,0.0,0.0,0.0,0.0,0.0,0.0,0.0,0.0,0.0,0.0,0.0,4.6127,4.6969,4.6981,4.7056,4.7398,4.826,4.8505,4.8735,4.9116,4.9373,4.9733,5.0255,5.0315,5.0554,5.1199,0.0,0.0,0.0,0.0,5.1229,5.1229,5.1229,5.1229,5.1229,5.1229,5.1229,5.1229,5.1229,5.1229,5.1229,5.1229,5.1229,5.1229,5.1229,5.1229,5.1229,5.1229,5.1229,5.1229,5.1229,5.1229,5.1139,2.6591,2.6591,2.6646,2.67,2.6899,2.7375,2.8159,2.8454,2.8691,2.8988,2.9726,3.0195,3.0195,3.0918,3.1562,3.2012,3.1641,3.1367,3.1269,3.1348,3.1426,3.1504,3.1934,3.2229,3.2229,3.2578,3.2969,3.3301,3.3379,3.409,3.5376,3.5376,3.6215,3.773,3.8744,3.9334,3.9674,4.1197,4.1822,4.1846,4.2338,4.1942,4.1124,4.0595,4.0331,4.0186,3.9657,3.9393,3.9296,3.9296,3.9296,3.9152,3.8262,0.0,0.0,0.0,0.0,0.0,0.0,0.0,0.0,0.0,0.0,0.0,0.0,0.0,0.0,0.0,0.0,0.0,0.0,0.0,0.0,4.6359,4.7085,4.7782,4.8275,4.8523,4.8817,4.9198,4.9292,4.9685,5.0641,5.0794,5.09,5.102,5.0973,5.1079,5.1199,5.1229,5.1229,5.1229,5.1229,5.1229,5.1229,5.1229,5.1229,5.1229,0.0,0.0,5.1229,5.1229,5.1229,5.1229,5.1229,5.1229,5.1229,5.1229,5.1229,5.1229,5.1229,5.1229,5.1229,5.1229,5.1229,5.1199,2.6591,2.6591,2.6646,2.6791,2.6881,2.7302,2.8174,2.826,2.8365,2.8832,2.9297,2.9648,2.9863,3.0684,3.1387,3.1816,3.1641,3.1621,3.1836,3.1641,3.1699,3.2129,3.2363,3.2578,3.2793,3.3008,3.3203,3.3418,3.3418,3.3733,3.4403,3.4403,3.5129,3.6399,3.767,3.8761,3.9689,4.1294,4.211,4.2458,4.2723,4.2506,4.1942,4.1677,4.1581,4.1509,4.098,4.0619,4.0355,4.009,3.9826,3.9513,3.896,3.8431,3.8046,0.0,0.0,0.0,0.0,0.0,0.0,0.0,0.0,0.0,0.0,0.0,0.0,0.0,0.0,4.633,0.0,0.0,4.694,4.7259,4.7934,4.8552,4.8872,4.9432,4.9827,4.9999,5.0112,5.0419,5.1122,5.1229,5.1229,5.1229,5.1229,5.1229,5.1229,5.1229,5.1229,5.1229,5.1528,5.1708,5.1708,5.2037,5.2187,5.2187,5.1858,5.1708,5.1708,5.1379,5.1229,5.1229,5.1229,5.1229,5.1229,5.1229,5.1229,5.1229,5.1229,5.1229,5.1229,5.1229,5.1229,5.1229,2.6591,2.6591,2.67,2.6899,2.6935,2.721,2.806,2.7975,2.8022,2.8641,2.8813,2.9062,2.9394,3.0312,3.1094,3.1601,3.1641,3.1836,3.2266,3.1953,3.207,3.2773,3.2871,3.3027,3.3301,3.3379,3.3418,3.3418,3.3418,3.3418,3.3418,3.3418,3.3965,3.5067,3.6338,3.7813,3.9311,4.101,4.2043,4.2604,4.2964,4.3,4.2964,4.2964,4.2843,4.2602,4.2014,4.1557,4.1124,4.0691,4.0258,3.9898,3.9801,3.9152,3.8623,3.9513,3.8894,0.0,0.0,0.0,0.0,0.0,0.0,0.0,0.0,0.0,4.7782,4.7782,4.7782,4.7782,4.7782,4.7898,4.7956,4.7956,4.8668,4.922,4.9267,5.0004,5.0501,5.0519,5.068,5.0917,5.1182,5.1229,5.1229,5.1229,5.1229,5.1229,5.1229,5.1349,5.1409,5.1409,5.2037,5.2396,5.2396,5.2905,5.3174,5.3174,5.2636,5.2396,5.2366,5.1708,5.1409,5.1409,5.1289,5.1229,5.1229,5.1229,5.1229,5.1229,5.1229,5.1289,5.1379,5.1259,5.1289,5.1409,2.6591,2.6591,2.6591,2.6646,2.6646,2.6755,2.7118,2.7352,2.7603,2.7964,2.8529,2.8945,2.8984,3.0137,3.1211,3.2031,3.209,3.2285,3.2695,3.2676,3.2695,3.2793,3.3144,3.3203,3.2871,3.3223,3.3418,3.3418,3.3418,3.3418,3.3418,3.3418,3.3481,3.367,3.5005,3.5935,3.6624,3.964,4.1184,4.1777,4.3469,4.3866,4.3433,4.3433,4.2856,4.2049,4.1461,4.122,4.1172,4.1124,4.1052,4.0932,4.0451,4.0234,4.0138,4.0282,0.0,4.0949,4.3473,0.0,0.0,4.7344,4.7521,4.7579,0.0,0.0,4.7782,4.7782,4.7782,4.7782,4.7782,4.8246,4.8624,4.8624,4.9194,4.9727,4.9969,5.0298,5.0596,5.0728,5.0822,5.0917,5.1182,5.1229,5.1229,5.1229,5.1229,5.1229,5.1229,5.1768,5.2097,5.2097,5.2725,5.3084,5.3084,5.3144,5.3174,5.3174,5.3114,5.3084,5.3054,5.2396,5.2097,5.2067,5.1468,5.1229,5.1229,5.1229,5.1229,5.1229,5.1229,5.1558,5.2007,5.1439,5.1588,5.2097,2.6482,2.6591,2.6591,2.6591,2.6591,2.6682,2.6935,2.7098,2.726,2.7584,2.8007,2.8339,2.8339,2.9595,3.084,3.1719,3.2012,3.2344,3.2773,3.2559,3.2656,3.3144,3.3086,3.3203,3.3535,3.3457,3.3535,3.3809,3.3535,3.3418,3.3418,3.3418,3.3418,3.3501,3.5041,3.6018,3.6643,3.9886,4.1466,4.2097,4.3669,4.3949,4.3481,4.3192,4.2615,4.199,4.2121,4.1894,0.0,0.0,4.1437,4.1148,4.0932,4.0643,4.0451,4.0763,4.0828,0.0,4.4123,0.0,0.0,0.0,4.8043,4.8333,4.8333,4.8624,4.8933,4.8933,4.8933,4.8933,4.8933,4.9088,4.9291,0.0,4.964,5.0106,5.0535,5.0983,5.1421,5.1921,5.2096,5.1942,5.1242,5.1558,5.1618,5.1259,5.1917,5.2187,5.1798,5.2426,5.2785,5.2785,5.3414,5.3773,5.3773,5.4162,5.4341,5.4341,5.3952,5.3773,5.3743,5.3084,5.2785,5.2785,5.2905,5.2725,5.2366,5.2366,5.2366,5.2366,5.2366,5.2546,5.2695,5.2037,5.2217,5.2785,2.6354,2.6591,2.6591,2.6591,2.6591,2.67,2.6826,2.6935,2.7043,2.726,2.7638,2.7945,2.8168,2.9167,3.0195,3.1074,3.1562,3.2051,3.2598,3.2441,3.2715,3.3574,3.3301,3.3496,3.4238,3.3926,3.3926,3.4238,3.3809,3.3594,3.3594,3.3476,3.3418,3.3437,3.4725,3.5552,3.6257,3.9034,4.0423,4.0972,4.2771,4.3122,4.2542,4.2544,4.2265,4.1798,4.2241,4.2086,0.0,0.0,4.1509,4.1172,4.1172,4.0932,4.0691,4.1076,4.1639,4.2675,4.5197,0.0,0.0,4.8653,4.8914,4.932,4.9494,4.9872,5.022,5.022,5.022,5.022,5.022,5.022,5.022,5.022,5.0368,5.069,5.1178,5.166,5.218,5.2753,5.3028,5.2815,5.1858,5.2366,5.2546,5.2067,5.3084,5.3533,5.3054,5.3653,5.4012,5.4012,5.467,5.4999,5.4999,5.5478,5.5718,5.5718,5.5239,5.4999,5.497,5.4311,5.3922,5.3773,5.4251,5.4102,5.3473,5.3473,5.3354,5.3174,5.3174,5.3294,5.3414,5.2935,5.3054,5.3473,2.6354,2.6591,2.6591,2.6591,2.6591,2.6591,2.6591,2.6845,2.6989,2.6989,2.753,2.8168,2.8793,2.8926,2.9297,3.0156,3.0664,3.1289,3.2129,3.2559,3.3164,3.4023,3.4043,3.4238,3.4668,3.4668,3.4668,3.4687,3.4258,3.4062,3.4043,3.3613,3.3418,3.3418,3.3437,3.3735,3.4314,3.6172,3.6935,3.7232,4.037,4.0977,4.026,4.1555,4.1677,4.122,4.122,0.0,0.0,0.0,4.1196,4.1172,4.1172,4.1172,4.1172,4.1172,4.3113,4.5633,0.0,0.0,4.9785,5.0423,5.0647,5.0772,5.1381,5.1556,5.1556,5.1556,5.1556,5.1556,5.1556,5.1556,5.1556,5.1556,5.1556,5.1657,5.1909,5.2188,5.2487,5.2763,5.3028,5.3174,0.0,5.3743,5.4132,5.4132,5.476,5.5119,5.5089,5.5718,5.6128,5.6128,5.6675,5.7004,5.7004,5.7034,5.7034,5.7034,5.7004,5.7004,5.6974,5.6376,5.5718,5.5119,5.5149,5.479,5.4192,5.4192,5.3773,5.3174,5.3174,5.3593,5.4192,5.4162,5.4162,5.4192,2.6791,2.6976,2.6903,2.6628,2.6591,2.6591,2.6591,2.6682,2.6736,2.6736,2.7225,0.0,0.0,0.0,0.0,0.0,3.0293,3.1016,3.1309,3.2246,3.293,3.3203,3.3496,3.3848,3.4277,3.4277,3.4414,3.4707,3.4551,3.4492,3.4473,3.4062,3.4004,3.4258,3.3984,3.4082,3.4642,3.6493,3.7076,3.7042,3.9842,4.0387,3.961,4.0949,4.0908,4.0234,0.0,0.0,0.0,0.0,0.0,4.1172,4.1172,4.1172,4.1359,4.2332,4.3943,4.5848,0.0,0.0,5.0481,5.1149,5.1294,5.1352,5.1556,5.1614,5.1614,5.1614,5.1614,5.1614,5.1614,5.1614,5.1614,5.1614,5.1614,5.181,5.2348,5.2762,5.3263,5.3727,5.4241,0.0,0.0,0.0,0.0,5.4251,5.5598,5.6286,5.5867,5.6436,5.6795,5.6795,5.6974,5.7094,5.7094,5.7094,5.7094,5.7094,5.7094,5.7094,5.7094,5.7363,5.7094,5.6466,5.6944,5.6735,5.6107,5.6107,5.5987,5.5777,5.5777,5.5658,5.5508,5.5508,5.5239,5.485,0.0,2.727,2.7105,2.6848,2.6683,0.0,0.0,0.0,0.0,0.0,0.0,0.0,0.0,0.0,0.0,0.0,0.0,3.0312,3.0625,3.1562,3.2324,3.2773,3.3203,3.3633,3.4062,3.4219,3.4355,3.4473,3.4316,3.4238,3.4238,3.3809,3.3848,3.4219,3.3965,3.3984,3.4322,3.5505,3.5997,3.6006,3.828,3.9025,3.8911,4.0371,4.0475,0.0,0.0,0.0,0.0,0.0,4.1028,4.1148,4.0956,4.1172,4.1774,4.3074,4.4697,4.6437,0.0,4.9841,5.1149,5.1788,5.1962,5.202,5.2252,5.231,5.231,5.231,5.231,5.231,5.231,5.231,5.2368,5.2601,5.2659,5.2804,5.321,5.3685,5.4024,5.4274,5.4743,5.5197,0.0,0.0,0.0,5.5269,5.6825,5.7633,5.7244,5.7603,5.7812,5.7812,5.7812,5.7812,5.7812,5.7812,5.7812,5.7812,5.7812,5.7812,5.7842,5.8261,5.8231,5.7842,5.8291,5.8082,5.7453,5.7453,5.7304,5.7094,5.7094,5.6855,5.6496,5.6496,5.6107,5.5508,0.0,0.0,2.7233,0.0,0.0,0.0,0.0,0.0,0.0,0.0,0.0,0.0,0.0,0.0,0.0,0.0,0.0,0.0,3.0117,3.0625,3.1445,3.2676,3.3125,3.3555,3.4004,3.4414,3.4434,3.4043,3.3652,3.3437,3.3418,3.2988,3.3008,3.3418,3.3398,3.3379,3.3398,3.3418,3.3652,3.4182,3.5816,3.7074,3.8055,3.9719,0.0,0.0,0.0,0.0,0.0,0.0,4.0739,4.1052,4.0595,4.1124,4.2171,4.3391,4.5399,4.7431,4.8653,5.0286,5.1817,5.2455,5.2681,5.2775,5.3384,5.35,5.3471,5.35,5.35,5.3471,0.0,0.0,5.3733,5.4371,5.4458,5.4458,5.4458,5.4672,5.4726,0.0,0.0,0.0,0.0,0.0,0.0,5.7154,0.0,5.9099,5.9099,5.9099,5.9099,5.9099,5.9099,5.9099,5.9099,5.9099,5.9099,5.9099,5.9099,5.9099,5.9099,5.9099,5.9099,5.9099,5.9099,5.874,5.8171,5.8171,5.7782,5.7184,5.7184,5.7184,5.7154,5.7154,5.6765,5.6188,0.0,0.0,0.0,0.0,0.0,0.0,0.0,0.0,0.0,0.0,0.0,0.0,0.0,0.0,0.0,0.0,0.0,0.0,2.9687,3.0449,3.1172,0.0,0.0,0.0,0.0,0.0,0.0,3.3594,3.3809,3.375,3.3418,3.2988,3.3008,3.3418,3.3105,3.2949,3.2969,3.3281,3.3301,3.3336,3.5622,3.6404,3.6509,0.0,0.0,0.0,0.0,0.0,0.0,0.0,4.0475,4.0643,4.0908,4.1172,4.1625,4.272,4.473,4.6945,4.8511,5.0586,5.2484,5.3123,5.3268,5.3326,5.3471,5.3152,5.2949,5.3413,5.3123,5.2949,0.0,0.0,0.0,5.3733,5.3762,0.0,5.3762,5.3972,0.0,5.4023,0.0,5.5545,5.5797,5.7027,0.0,0.0,5.862,5.9099,5.9099,5.9099,5.9099,5.9099,5.9099,5.9099,5.9099,5.9099,5.9099,5.9099,5.9099,5.9099,5.9099,5.9099,5.9099,5.9099,5.9099,5.9009,5.886,5.886,5.874,5.859,5.859,5.8291,5.7872,5.7872,5.7423,5.6825,0.0,0.0,0.0,0.0,0.0,0.0,0.0,0.0,0.0,0.0,0.0,0.0,0.0,0.0,0.0,0.0,0.0,0.0,0.0,2.9746,3.0293,0.0,0.0,0.0,0.0,0.0,0.0,0.0,0.0,3.3379,3.3144,3.291,3.3008,3.3418,3.3184,3.2969,3.2812,3.3047,3.3125,0.0,0.0,3.5586,0.0,0.0,0.0,0.0,0.0,0.0,0.0,0.0,0.0,4.0523,4.1293,4.1677,4.2049,4.2947,0.0,4.7745,4.8718,5.0954,5.3065,5.3442,5.35,5.3588,5.3878,5.3442,5.3181,5.382,5.3442,0.0,0.0,0.0,0.0,0.0,0.0,0.0,5.3965,5.4042,5.42,0.0,5.5018,0.0,5.6525,5.7534,5.8231,0.0,5.889,5.9099,5.9099,5.9099,5.9099,5.9099,5.9099,5.9099,5.9099,5.9099,5.9099,5.9099,5.9099,5.9099,5.9099,5.9099,5.9099,5.9099,0.0,5.9099,5.9099,5.9099,5.9099,5.9099,5.9099,5.8782,5.8345,5.8345,5.7845,5.7143,0.0,0.0,0.0,0.0,0.0,0.0,0.0,0.0,0.0,0.0,2.7194,0.0,0.0,0.0,0.0,0.0,0.0,0.0,0.0,0.0,2.9336,3.0078,0.0,0.0,0.0,0.0,0.0,0.0,0.0,0.0,3.2637,3.2637,3.2793,3.3086,3.3144,3.2969,3.2637,3.2676,3.293,3.3289,3.3393,3.4686,0.0,0.0,0.0,0.0,0.0,0.0,0.0,0.0,4.0884,4.0667,4.1653,4.2386,4.2903,4.357,4.6025,4.8611,4.9027,5.1147,5.329,5.3448,5.35,5.3675,5.4255,5.3936,5.3675,5.4255,0.0,5.35,5.35,5.35,5.3704,5.4284,0.0,5.4371,5.4371,5.4371,5.4425,5.4691,5.5125,5.5949,5.7315,5.7821,5.8363,5.9015,5.9045,5.9045,5.9099,5.9099,5.9099,5.9099,5.9099,5.9099,5.9099,5.9099,5.9099,5.9099,5.9099,5.9099,5.9099,5.9099,5.9099,5.9099,0.0,0.0,5.9099,5.8991,5.8991,5.9045,5.8991,5.8828,5.8609,5.8609,5.809,5.7315,0.0,0.0,0.0,0.0,0.0,0.0,0.0,0.0,0.0,0.0,2.8049,2.8127,0.0,0.0,0.0,0.0,0.0,0.0,0.0,0.0,0.0,2.9668,0.0,0.0,0.0,0.0,0.0,0.0,0.0,0.0,3.1738,3.1738,3.1601,3.1348,3.1699,3.1797,3.1758,3.2129,3.2324,3.2485,3.3534,3.4001,0.0,0.0,0.0,0.0,0.0,0.0,0.0,0.0,4.1124,4.1148,4.1774,4.2386,4.2951,4.3746,4.5313,4.7126,4.8869,5.0657,5.2244,5.3237,5.35,5.3559,5.3675,5.3588,0.0,0.0,5.3588,5.35,5.35,5.35,5.3559,5.3675,0.0,0.0,0.0,0.0,5.3675,0.0,0.0,0.0,0.0,0.0,0.0,0.0,0.0,5.8882,5.9099,5.9099,5.9099,5.9099,5.9099,5.9099,5.9099,5.9099,5.9099,5.9099,5.9099,5.9099,5.9099,5.9099,5.9099,5.9099,5.8882,0.0,5.9045,5.8555,5.85,5.8719,5.8445,5.8305,5.828,5.828,5.8191,5.8048,0.0,0.0,0.0,0.0,0.0,0.0,0.0,2.8759,2.8938,2.9562,2.9591,2.9368,2.8802,2.8861,2.901,0.0,0.0,0.0,0.0,0.0,0.0,0.0,0.0,0.0,0.0,0.0,0.0,0.0,0.0,0.0,0.0,0.0,0.0,0.0,0.0,0.0,0.0,3.1992,3.2031,0.0,0.0,0.0,0.0,0.0,0.0,0.0,0.0,0.0,0.0,0.0,4.1365,4.1677,4.2265,4.2735,4.3325,4.416,4.538,4.6861,4.8885,5.0379,5.1783,5.3155,5.3268,5.321,5.3878,0.0,0.0,0.0,5.4023,5.4023,5.4023,5.4023,0.0,0.0,0.0,0.0,0.0,0.0,0.0,0.0,0.0,0.0,0.0,0.0,0.0,0.0,0.0,5.8555,5.8882,5.8719,5.8719,5.8912,5.8882,5.8936,5.9099,5.9099,5.9099,5.9099,5.8936,5.8882,5.8912,5.8719,5.8664,5.8609,5.85,0.0,5.8609,5.8305,5.828,5.8445,5.825,5.8085,5.8003,5.8003,5.7863,5.7751,0.0,0.0,0.0,0.0,0.0,0.0,0.0,2.9709,3.0039,3.0937,3.0901,3.0457,2.9439,2.9273,2.9279,0.0,0.0,0.0,0.0,0.0,0.0,0.0,0.0,0.0,0.0,0.0,0.0,0.0,0.0,0.0,0.0,0.0,0.0,0.0,0.0,0.0,0.0,0.0,0.0,0.0,0.0,0.0,0.0,0.0,0.0,0.0,0.0,0.0,0.0,0.0,4.1701,4.223,4.2819,4.3192,4.3686,4.4548,4.544,4.6628,4.8447,4.9847,5.1126,5.2476,5.2712,5.2862,5.4023,5.3907,0.0,5.4371,5.4517,5.4458,5.4313,5.44,5.4517,0.0,0.0,0.0,0.0,0.0,0.0,0.0,0.0,0.0,0.0,0.0,0.0,0.0,0.0,0.0,5.8555,5.839,5.8445,5.8694,5.8694,5.8773,5.8991,5.8936,5.8936,5.8882,5.8664,5.8555,5.8555,5.8335,5.8195,5.8195,5.814,0.0,0.0,5.8029,5.8029,5.8085,5.8029,5.7892,5.7669,5.7669,5.7528,5.7303,0.0,0.0,0.0,0.0,0.0,0.0,0.0,3.0149,3.0571,3.1744,3.1249,3.0864,3.1148,3.0984,3.0853,0.0,0.0,0.0,0.0,0.0,0.0,0.0,0.0,0.0,0.0,0.0,0.0,0.0,0.0,0.0,0.0,0.0,0.0,0.0,0.0,0.0,0.0,0.0,0.0,0.0,0.0,0.0,0.0,0.0,0.0,0.0,0.0,0.0,0.0,0.0,0.0,4.2843,4.3289,4.3481,4.3686,4.4548,0.0,0.0,4.6891,4.8421,4.9739,5.0432,5.1604,5.2746,5.3442,0.0,5.3704,5.4371,5.4517,5.4313,5.3704,5.411,5.4517,0.0,0.0,0.0,0.0,0.0,0.0,0.0,0.0,0.0,0.0,0.0,0.0,0.0,0.0,0.0,5.8195,5.85,5.8694,5.8694,5.8694,5.8694,5.8748,5.8445,5.825,5.825,5.825,5.825,5.825,5.8195,5.8195,5.8195,5.7948,0.0,0.0,5.7584,5.7528,5.7836,5.7472,5.736,5.736,5.736,5.7303,5.7303,0.0,0.0,0.0,0.0,0.0,0.0,3.0461,3.0552,3.0992,3.2203,3.2074,3.2038,3.2441,3.2348,3.1816,3.0762,0.0,0.0,0.0,0.0,0.0,0.0,0.0,0.0,0.0,0.0,0.0,0.0,0.0,0.0,0.0,0.0,0.0,0.0,0.0,0.0,0.0,0.0,0.0,0.0,0.0,0.0,0.0,0.0,0.0,0.0,0.0,0.0,0.0,0.0,0.0,0.0,4.3241,4.3313,4.3229,0.0,4.4267,4.4743,4.6011,4.7377,4.883,4.9994,5.1185,5.2165,5.2804,0.0,5.3965,5.3442,5.3965,5.4429,5.4168,5.3994,5.4168,0.0,0.0,0.0,0.0,0.0,0.0,0.0,0.0,0.0,0.0,0.0,0.0,0.0,0.0,0.0,5.764,5.7751,5.7948,5.8169,5.8169,5.8225,5.839,5.825,5.8195,5.8195,5.8059,5.7948,5.7948,5.7751,5.764,5.764,5.7528,0.0,0.0,5.7416,5.736,5.7472,5.736,5.7303,5.7303,5.7303,5.7303,5.7303,0.0,0.0,0.0,0.0,0.0,3.0167,3.0864,3.0974,3.1359,3.2459,3.2496,3.2655,3.3127,3.3067,3.2497,3.1332,3.1378,0.0,0.0,0.0,0.0,0.0,0.0,0.0,0.0,0.0,3.1367,3.1973,3.1504,0.0,0.0,0.0,0.0,0.0,0.0,0.0,0.0,0.0,0.0,0.0,0.0,0.0,0.0,0.0,0.0,0.0,0.0,0.0,0.0,0.0,0.0,4.2375,4.3433,4.3505,4.3265,4.3457,4.3697,4.4014,4.4715,4.6174,4.7766,4.8818,5.0202,5.1584,0.0,0.0,5.3733,5.3007,5.3588,5.4168,5.3965,5.3878,5.411,0.0,0.0,0.0,0.0,0.0,0.0,0.0,0.0,0.0,0.0,0.0,0.0,0.0,0.0,0.0,5.7303,5.7303,5.7416,5.7781,5.7781,5.7892,5.8085,5.7974,5.7918,5.7918,5.7781,5.7669,5.7669,5.7416,5.7303,5.7303,0.0,0.0,0.0,5.7303,5.7303,5.7303,5.7303,5.7303,5.7303,5.7303,5.7303,5.7303,0.0,0.0,0.0,0.0,0.0,0.0,3.1304,3.1377,3.1671,3.2496,3.2258,3.2298,3.3103,3.3096,3.2986,3.2867,0.0,0.0,0.0,0.0,0.0,0.0,0.0,0.0,0.0,0.0,3.1523,3.1523,3.1953,3.2209,3.2168,3.2209,3.1934,3.1504,0.0,0.0,0.0,0.0,3.1133,0.0,0.0,0.0,3.3082,0.0,0.0,0.0,0.0,0.0,0.0,0.0,0.0,0.0,0.0,4.4261,4.4165,4.3673,4.3168,4.2843,4.2819,4.4626,4.6353,4.6298,4.8503,5.1144,0.0,5.2623,5.2827,5.3384,5.35,5.3326,5.2717,5.3646,5.4517,0.0,0.0,0.0,0.0,0.0,0.0,0.0,0.0,0.0,0.0,0.0,0.0,0.0,0.0,0.0,5.7303,5.7303,5.7416,5.7781,5.7781,5.7781,5.7781,5.7472,5.7303,5.7303,5.7303,5.7303,5.7303,5.7303,5.7303,0.0,0.0,0.0,0.0,5.7303,5.7303,5.7303,5.7303,5.7303,5.7303,5.7303,5.7303,5.7303,0.0,0.0,0.0,0.0,0.0,0.0,0.0,3.1377,3.1579,3.2129,3.2272,3.2543,3.3084,3.3274,3.3359,3.329,0.0,0.0,0.0,0.0,0.0,0.0,0.0,0.0,0.0,0.0,3.2246,3.2812,3.2676,3.2734,3.3008,3.2734,3.2363,3.1953,3.1953,3.1894,0.0,3.1758,3.1836,0.0,0.0,3.2676,3.3122,0.0,0.0,0.0,0.0,0.0,0.0,0.0,0.0,0.0,0.0,0.0,0.0,4.3048,4.3409,4.3601,4.2519,4.3747,4.5556,4.6137,4.811,5.0142,5.1127,5.2313,5.2891,5.1788,5.1904,5.2165,5.1962,5.2252,5.2978,5.4284,0.0,0.0,0.0,0.0,0.0,0.0,0.0,0.0,0.0,0.0,0.0,0.0,0.0,0.0,5.7303,5.7303,5.736,5.7416,5.7472,5.7472,5.7472,5.736,5.7303,5.7303,5.7303,5.7303,5.7303,5.7303,5.7303,0.0,0.0,0.0,0.0,5.7303,5.7303,5.7303,5.7303,5.7303,5.7303,5.7303,5.7303,5.7303,0.0,0.0,0.0,0.0,0.0,0.0,0.0,3.1377,3.1469,3.1726,3.1958,3.2367,3.3058,3.3112,3.3244,3.3656,0.0,0.0,0.0,0.0,0.0,0.0,0.0,0.0,3.1758,3.2344,3.2812,3.3184,3.3242,3.332,3.3418,3.332,3.2969,3.2422,3.2578,3.2461,0.0,3.2676,3.2695,3.248,3.3203,3.332,3.3296,0.0,0.0,0.0,0.0,0.0,0.0,0.0,0.0,0.0,0.0,0.0,0.0,0.0,4.3216,4.377,4.2591,4.3447,4.489,4.6005,4.7729,4.9373,5.0427,5.1609,5.2107,5.0917,5.1004,5.1323,5.1585,5.1817,5.2543,5.4226,5.3965,0.0,0.0,0.0,0.0,0.0,0.0,0.0,0.0,0.0,0.0,0.0,0.0,0.0,5.7303,5.7303,5.7303,5.7303,5.7303,5.7303,5.7303,5.7303,5.7303,5.7303,5.7303,5.7303,5.7303,5.7303,5.7303,0.0,0.0,0.0,0.0,5.7303,5.7303,5.7303,5.7303,5.7303,5.7303,5.7303,5.7303,5.7303,0.0,0.0,0.0,0.0,0.0,0.0,0.0,3.1377,3.1377,3.1377,3.1442,3.1847,3.2952,3.2713,3.2893,0.0,0.0,0.0,0.0,0.0,0.0,0.0,0.0,0.0,3.2266,3.3047,3.3301,3.2988,3.3769,3.3965,3.3574,3.3984,3.3711,3.291,3.3301,3.3027,3.2344,3.3516,3.3574,3.2949,3.4141,3.4121,0.0,0.0,0.0,0.0,0.0,0.0,0.0,0.0,0.0,0.0,0.0,0.0,0.0,0.0,0.0,0.0,0.0,4.3389,4.4411,4.5856,4.7287,4.8787,5.0218,5.0672,0.0,5.0685,5.0793,5.0975,5.1527,5.2223,5.3094,5.4255,5.3994,0.0,0.0,5.4836,0.0,0.0,0.0,0.0,0.0,0.0,0.0,0.0,0.0,0.0,5.7303,5.7303,5.7303,5.7303,5.7303,5.7303,5.7303,5.7303,5.7303,5.7303,5.7303,5.7303,5.7303,5.7303,5.7303,0.0,0.0,0.0,0.0,5.7303,5.7303,5.7303,5.7303,5.7303,5.7303,5.7303,5.7303,5.7303,0.0,0.0,0.0,0.0,0.0,0.0,0.0,0.0,0.0,0.0,3.1827,3.2268,3.2554,3.2925,3.3267,0.0,0.0,0.0,0.0,0.0,0.0,0.0,0.0,0.0,3.3125,3.3652,3.4199,3.4785,3.498,3.5039,3.4922,3.5039,3.4609,3.3769,3.3867,3.3633,3.3144,3.3457,3.3457,3.3301,3.3594,3.3594,0.0,0.0,0.0,0.0,3.8471,3.9416,0.0,0.0,0.0,0.0,0.0,0.0,0.0,0.0,4.1509,4.2303,4.2182,0.0,4.3915,4.5044,4.645,4.7793,0.0,5.0234,5.1305,5.0809,5.149,5.202,5.1672,5.2949,5.3994,5.3791,5.4429,5.4923,5.4749,0.0,0.0,0.0,0.0,0.0,0.0,0.0,0.0,0.0,0.0,5.7303,5.7303,5.7303,5.7303,5.7303,5.7303,5.7303,5.7303,5.7303,5.7303,5.7303,5.7303,5.7303,5.7303,5.7303,5.7303,0.0,0.0,0.0,5.7303,5.7303,5.7303,5.7303,5.7303,5.7303,5.7303,5.7303,5.7303,5.7303,0.0,0.0,0.0,0.0,0.0,0.0,0.0,0.0,0.0,0.0,0.0,0.0,0.0,0.0,0.0,0.0,0.0,0.0,0.0,0.0,0.0,0.0,0.0,3.3769,3.4004,3.4453,3.4805,3.5078,3.5293,3.5293,3.5078,3.5293,3.5019,3.4355,3.416,3.3945,3.373,3.3926,3.3789,3.3457,3.3848,0.0,0.0,0.0,0.0,0.0,3.7398,3.8654,0.0,4.0355,4.0234,4.0018,0.0,0.0,0.0,0.0,4.0787,4.1244,4.1244,4.2182,4.3457,4.472,4.5898,4.7174,4.8573,5.0101,5.1286,5.1505,5.2129,5.2659,5.2891,5.3326,5.3704,5.3936,5.4052,0.0,0.0,0.0,0.0,0.0,0.0,0.0,0.0,0.0,0.0,0.0,0.0,5.7303,5.7303,5.7303,5.7303,5.7303,5.7303,5.7303,5.7303,5.7303,5.7303,5.7303,5.7303,5.7303,5.7303,5.7303,5.7303,0.0,0.0,0.0,5.7303,5.7303,5.7303,5.7303,5.7303,5.7303,5.7303,5.7303,5.7303,5.7303,0.0,0.0,0.0,0.0,0.0,0.0,0.0,0.0,0.0,0.0,0.0,0.0,0.0,0.0,0.0,0.0,0.0,0.0,0.0,0.0,0.0,0.0,0.0,3.4726,3.4805,3.5195,3.5234,3.4902,3.5293,3.5293,3.4902,3.5312,3.5234,3.4785,3.4297,3.4082,3.4082,3.4375,3.4082,3.3476,3.4219,0.0,0.0,0.0,0.0,0.0,0.0,0.0,0.0,3.997,4.009,4.0379,4.0306,0.0,0.0,0.0,0.0,0.0,4.0162,4.1196,4.2684,4.423,4.5417,4.6782,4.8817,5.0178,5.1338,5.263,5.2949,5.3297,5.4197,5.353,0.0,0.0,0.0,0.0,5.4342,5.4865,0.0,0.0,0.0,0.0,0.0,0.0,0.0,0.0,0.0,5.7303,5.7303,5.7303,5.7303,5.7303,5.7303,5.7303,5.7303,5.7303,5.7303,5.7303,5.7303,5.7303,5.7303,5.7303,5.7303,5.7303,0.0,0.0,5.7303,5.7303,5.7303,5.7303,5.7303,5.7303,5.7303,5.7303,5.7303,5.7303,0.0,0.0,0.0,0.0,0.0,0.0,0.0,0.0,0.0,0.0,0.0,0.0,0.0,0.0,0.0,0.0,0.0,0.0,0.0,0.0,0.0,0.0,3.4883,3.4883,3.5273,3.5351,3.5527,3.582,3.5879,3.5879,3.582,3.5879,3.5703,3.5254,3.4434,3.4082,3.4062,3.375,3.3535,3.3437,3.3574,0.0,0.0,0.0,0.0,0.0,0.0,0.0,0.0,4.0812,4.0691,4.0306,3.9874,0.0,0.0,0.0,0.0,0.0,3.9056,3.9561,4.054,4.2345,4.4592,4.6705,4.8344,5.0624,5.2718,5.3946,5.4604,5.4691,0.0,5.3965,5.3907,0.0,0.0,5.3646,0.0,0.0,0.0,0.0,0.0,0.0,0.0,0.0,0.0,0.0,0.0,5.7303,5.7303,5.7303,5.7303,5.7303,5.7303,5.7303,5.7303,5.7303,5.7303,5.7303,5.7303,5.7303,5.7303,5.7303,5.7303,5.7303,0.0,5.7303,5.7303,5.7303,5.7303,5.7303,5.7303,5.7303,5.7303,5.7303,5.7303,5.7303,0.0,0.0,0.0,0.0,0.0,0.0,0.0,0.0,0.0,0.0,0.0,0.0,0.0,0.0,0.0,0.0,0.0,0.0,0.0,0.0,0.0,3.5723,3.5527,3.5508,3.5723,3.5723,3.582,3.6016,3.6016,3.6016,3.6016,3.6016,3.5918,3.5703,3.5078,3.4785,3.4746,3.4297,3.4121,3.4082,0.0,0.0,0.0,0.0,0.0,0.0,0.0,0.0,0.0,0.0,4.0595,4.0306,3.9777,0.0,0.0,0.0,0.0,0.0,3.8359,3.8984,3.9888,4.1094,4.2977,4.5135,4.7534,4.9662,5.1636,5.3169,0.0,0.0,0.0,0.0,5.3268,5.271,0.0,5.3733,0.0,0.0,0.0,0.0,0.0,0.0,0.0,0.0,0.0,0.0,0.0,0.0,5.7303,5.7303,5.7303,5.7303,5.7303,5.7303,5.7303,5.7303,5.7303,5.7303,5.7303,5.7303,5.7303,5.7303,5.7303,5.7303,0.0,5.7303,5.7303,5.7303,5.7303,5.7303,5.7303,5.7536,5.7884,5.8261,5.8377,5.8377,0.0,0.0,0.0,0.0,0.0,0.0,0.0,0.0,0.0,0.0,0.0,0.0,0.0,0.0,0.0,0.0,0.0,0.0,0.0,0.0,3.5684,3.6016,3.6016,3.6016,3.6016,3.6016,3.6016,3.6016,3.6016,3.6016,3.6016,3.6016,3.5976,3.5859,3.5527,3.5332,3.5215,3.4844,3.4707,3.4668,0.0,0.0,0.0,0.0,0.0,0.0,0.0,0.0,0.0,0.0,0.0,0.0,0.0,0.0,0.0,3.8695,3.831,3.7974,3.7974,3.8695,3.9623,4.0514,4.2167,4.4268,4.6806,4.8922,5.0691,5.211,0.0,0.0,0.0,5.2891,0.0,5.2775,5.321,5.3733,0.0,0.0,0.0,0.0,0.0,0.0,0.0,0.0,0.0,0.0,0.0,0.0,5.7303,5.7303,5.7303,5.7303,5.7303,5.7303,5.7303,5.7303,5.7303,5.7303,5.7303,5.7303,5.7303,5.7303,5.7303,5.7303,5.7303,5.7303,5.7303,5.7477,5.7536,5.7565,5.771,5.8087,5.861,5.9103,5.9306,5.9306,0.0,0.0,0.0,0.0,0.0,0.0,0.0,0.0,0.0,0.0,0.0,0.0,0.0,0.0,0.0,0.0,0.0,0.0,3.5391,3.5762,3.5996,3.6016,3.6016,3.6016,3.6016,3.6016,3.6016,3.6016,3.6016,3.6016,3.6016,3.6016,3.5801,3.543,3.541,3.5156,3.4746,3.4707,3.4707,3.4707,3.4668,0.0,0.0,0.0,0.0,0.0,0.0,0.0,0.0,0.0,0.0,0.0,0.0,0.0,3.9345,3.8334,3.8022,3.7974,3.7974,3.8407,3.9279,4.1064,4.3411,4.5532,4.6491,4.9226,5.1636,5.183,0.0,0.0,0.0,5.2652,5.2746,5.3355,5.3471,5.3733,0.0,0.0,0.0,0.0,0.0,0.0,0.0,0.0,0.0,0.0,0.0,0.0,5.7303,5.7303,5.7303,5.7303,5.7303,5.7303,5.7303,5.7303,5.7303,5.7303,5.7303,5.7303,5.7303,5.7303,5.7303,5.7303,5.7303,5.7303,5.7361,5.7971,5.8232,5.829,5.89,5.919,5.9248,5.9277,5.9306,5.9306,0.0,0.0,0.0,0.0,0.0,0.0,0.0,0.0,0.0,0.0,0.0,0.0,0.0,0.0,0.0,0.0,0.0,0.0,3.5762,3.5937,3.6016,3.6016,3.6016,3.6016,3.6016,3.6289,3.6289,3.6016,3.6016,3.6016,3.6016,3.6016,3.5801,3.541,3.5664,3.5547,3.5156,3.541,3.5527,3.5508,3.5234,3.4766,0.0,0.0,0.0,0.0,0.0,0.0,0.0,0.0,4.1172,4.1052,4.0331,3.9874,3.9465,3.8719,3.8262,3.819,3.92,3.9393,3.9737,4.1646,4.3407,4.5093,4.6793,4.8648,5.0256,5.0978,5.1793,0.0,0.0,0.0,5.292,5.3965,5.4139,0.0,0.0,0.0,0.0,0.0,0.0,0.0,0.0,0.0,0.0,0.0,0.0,0.0,0.0,5.7303,5.7303,5.7303,5.7303,5.7303,5.7303,5.7303,5.7303,5.7303,5.7303,5.7303,5.7303,5.7303,5.7303,5.7332,5.7739,5.7913,5.7971,5.8639,5.8929,5.8987,5.9626,5.9858,5.9916,6.0322,6.0467,6.0467,0.0,0.0,0.0,0.0,0.0,0.0,0.0,0.0,0.0,0.0,0.0,0.0,0.0,0.0,0.0,0.0,0.0,0.0,3.5996,3.6016,3.6016,3.6016,3.6016,3.6016,3.6016,3.6445,3.6465,3.6016,3.6016,3.6016,3.6016,3.6016,3.5723,3.5195,3.5762,3.5703,3.5215,3.5781,3.6016,3.5976,3.5566,3.5117,0.0,0.0,0.0,0.0,0.0,0.0,0.0,0.0,4.1172,4.11,4.0571,4.0042,3.9513,3.8984,3.8431,3.8262,3.9561,3.9994,4.0459,4.1919,4.3564,4.5251,4.6743,4.8138,4.9246,4.9751,5.1155,5.2543,5.3646,0.0,0.0,0.0,0.0,0.0,0.0,0.0,0.0,0.0,0.0,0.0,0.0,0.0,0.0,0.0,0.0,0.0,0.0,5.7303,5.7303,5.7303,5.7303,5.7303,5.7303,5.7303,5.7303,5.7303,5.7303,5.7419,5.7623,5.739,5.7536,5.7942,5.8203,5.8435,5.861,5.8809,5.8768,5.8608,5.9006,5.9176,5.9233,5.9721,6.0165,6.047,0.0,0.0,0.0,0.0,0.0,0.0,0.0,0.0,0.0,0.0,0.0,0.0,0.0,0.0,0.0,0.0,3.6016,3.6016,3.6016,3.6016,3.6016,3.6016,3.6016,3.6016,3.6016,3.6445,3.6465,3.6035,3.6016,3.6016,3.6016,3.6016,3.5547,3.4746,0.0,0.0,0.0,0.0,0.0,3.5976,3.5566,3.5117,3.4779,0.0,0.0,0.0,0.0,0.0,0.0,0.0,4.1172,4.11,4.0571,4.0042,3.9513,3.8984,3.8431,3.8118,3.8695,3.9994,4.1317,4.187,4.4153,4.6134,4.6218,4.7831,4.9173,4.8355,5.0992,5.3704,5.44,0.0,0.0,5.4517,0.0,0.0,0.0,0.0,0.0,0.0,0.0,0.0,0.0,0.0,0.0,0.0,0.0,0.0,0.0,5.7303,5.7303,5.7303,5.7303,5.7303,5.7303,5.7303,5.7303,5.7303,5.7303,5.7652,5.829,5.7623,5.8029,5.9277,5.861,5.8697,5.9219,5.8427,5.7633,5.6973,5.6973,5.6973,5.6973,5.6973,5.787,5.8843,0.0,0.0,0.0,0.0,0.0,0.0,0.0,0.0,0.0,0.0,0.0,0.0,0.0,0.0,0.0,0.0,0.0,3.6016,3.6016,3.6016,3.6016,3.6016,3.6016,3.6016,3.6016,3.6152,3.6289,3.6484,3.6172,3.6016,3.6016,3.5723,3.543,3.5195,0.0,0.0,0.0,0.0,0.0,3.5976,3.5566,3.5117,3.4779,0.0,0.0,0.0,0.0,0.0,0.0,0.0,0.0,0.0,4.1004,4.0331,3.9657,3.9874,3.9561,3.9561,4.1581,4.1653,4.1677,4.3697,4.4098,4.4215,4.4848,4.7774,0.0,0.0,5.2737,5.3704,5.44,0.0,0.0,0.0,0.0,0.0,0.0,0.0,0.0,0.0,0.0,0.0,0.0,0.0,0.0,0.0,0.0,0.0,0.0,5.7303,5.7303,5.7303,5.7303,5.7303,5.7303,5.7303,5.7303,5.7303,5.7768,5.8116,5.829,5.8087,5.8493,5.9306,5.9539,5.9182,5.8394,5.7661,5.7195,5.6973,5.6973,5.6973,5.6973,5.6973,5.7231,5.7679,0.0,0.0,0.0,0.0,0.0,0.0,0.0,0.0,3.7383,3.7637,3.7676,3.7578,0.0,0.0,0.0,3.6074,3.6016,3.6016,3.6016,3.6016,3.6016,3.6016,3.6016,3.6016,3.6016,3.5859,3.5898,3.6172,3.6074,0.0,0.0,0.0,3.5547,3.541,0.0,3.5547,0.0,0.0,0.0,3.5449,3.5039,3.4916,3.5103,0.0,0.0,0.0,0.0,0.0,0.0,0.0,0.0,0.0,4.086,4.0282,3.9705,4.0234,4.0018,3.9994,4.1798,4.1894,4.1942,4.3746,4.4074,4.4337,4.5648,0.0,0.0,0.0,5.3733,5.3965,5.4081,5.3994,0.0,0.0,0.0,0.0,0.0,0.0,0.0,0.0,0.0,0.0,0.0,0.0,0.0,0.0,0.0,0.0,0.0,5.7303,5.7303,5.7303,5.7303,5.7303,5.7303,5.7303,5.7448,5.771,5.8116,5.8581,5.9045,5.8813,5.887,5.9231,5.9603,5.8989,5.7661,5.7195,5.6325,5.5366,5.5366,5.5366,5.5366,5.5366,5.5762,5.6287,0.0,0.0,0.0,0.0,0.0,0.0,0.0,3.6836,3.7344,3.7305,3.7305,3.7285,0.0,0.0,0.0,3.6055,3.6016,3.6016,3.6016,3.6016,3.6016,3.6016,3.6152,3.6152,3.6016,3.5913,3.5764,3.5591,3.579,3.5918,0.0,0.0,3.5742,3.5469,0.0,3.5703,0.0,0.0,3.5059,3.4668,3.4199,3.4532,3.5438,3.6785,0.0,0.0,0.0,0.0,0.0,0.0,0.0,0.0,4.0331,3.9994,3.9705,4.0186,4.0042,3.9874,4.0403,4.1244,4.2193,4.2867,4.4244,4.5903,4.771,4.8935,5.0406,5.2837,0.0,5.4226,5.3617,0.0,0.0,0.0,0.0,0.0,0.0,0.0,0.0,0.0,0.0,0.0,0.0,0.0,0.0,0.0,0.0,0.0,0.0,5.7303,5.7247,5.7134,5.7134,5.7134,5.7134,5.7192,5.7567,5.829,5.8435,5.9074,6.0177,5.9508,5.9082,5.8905,5.878,5.8024,5.678,5.665,5.5167,5.2929,5.2929,5.2929,5.2929,5.2929,5.37,5.4619,0.0,0.0,0.0,0.0,0.0,0.0,3.7031,3.7461,3.7676,3.7344,3.7305,3.7168,3.6836,3.6719,0.0,3.6055,3.6016,3.6016,3.6016,3.6016,3.6016,3.6016,3.7059,3.7126,3.6016,3.8092,3.8435,3.6856,3.5627,3.5176,0.0,0.0,0.0,3.5859,0.0,3.5137,0.0,3.4648,3.4492,3.4629,3.3867,3.3902,3.4569,3.6526,3.7489,0.0,0.0,0.0,0.0,0.0,0.0,0.0,3.9777,3.9705,3.9633,3.9753,4.0282,4.0956,4.1485,4.1798,4.2517,4.4548,4.5711,4.662,4.7847,4.8326,4.9164,5.1593,5.2951,5.3675,0.0,0.0,0.0,0.0,0.0,0.0,0.0,0.0,0.0,0.0,0.0,0.0,0.0,0.0,0.0,0.0,0.0,0.0,5.7303,5.7303,5.6822,5.5818,5.5818,5.5818,5.5818,5.6328,5.7194,0.0,5.9306,5.9916,6.0118,5.8902,5.7992,5.7359,5.6352,5.5723,5.5326,5.4216,5.3452,5.2929,5.2929,5.2929,5.2929,5.2929,5.3136,5.3452,0.0,0.0,0.0,0.0,0.0,0.0,0.0,0.0,3.748,3.7051,3.6816,3.668,3.668,3.6484,0.0,0.0,3.6016,3.6016,3.6016,3.6016,3.6016,3.6016,3.6674,3.7059,3.7011,3.8232,3.8699,3.8358,3.7271,3.6885,0.0,0.0,0.0,3.7579,0.0,3.6108,0.0,3.4693,3.4566,3.5264,3.4601,3.5273,3.674,3.7818,3.8783,3.9679,4.0782,0.0,0.0,0.0,0.0,0.0,0.0,0.0,3.932,3.9826,4.0379,4.0932,4.1461,4.1605,4.2107,4.4002,0.0,4.6279,4.6857,4.7449,4.8242,4.9648,5.1401,5.2648,0.0,0.0,0.0,0.0,0.0,0.0,0.0,0.0,0.0,0.0,0.0,0.0,0.0,0.0,0.0,0.0,0.0,5.7303,5.7303,5.6708,5.6107,5.5412,5.4797,5.458,5.4884,5.5215,5.602,5.7238,5.7917,5.8087,5.7744,5.8305,5.8008,5.6973,5.6287,5.5591,5.4927,5.4216,5.3521,5.2929,5.2929,5.2929,5.2929,5.2929,5.2929,5.2998,0.0,0.0,0.0,0.0,0.0,0.0,0.0,0.0,0.0,3.6621,3.625,3.6152,3.6523,3.623,3.5996,0.0,0.0,0.0,3.5801,3.5859,3.6005,3.6336,3.6606,3.7126,3.8109,3.8458,3.9045,3.9873,3.9815,3.9962,0.0,0.0,0.0,3.9343,0.0,0.0,0.0,0.0,3.5161,3.629,3.583,3.7089,3.9314,3.9318,4.0281,4.1601,4.1403,4.0932,4.0306,3.9777,0.0,0.0,0.0,0.0,3.8984,3.9874,4.0186,4.0403,4.1028,4.1446,4.1948,4.2958,4.4415,0.0,4.5795,4.661,4.7449,4.7743,4.9732,0.0,0.0,0.0,0.0,0.0,0.0,0.0,0.0,0.0,0.0,0.0,0.0,0.0,0.0,0.0,0.0,0.0,0.0,5.7303,5.7303,5.6107,5.5295,5.5091,5.3954,5.3524,5.3947,5.4162,5.488,5.6079,5.6187,5.5805,5.5061,5.7578,5.7806,5.626,5.626,5.5631,5.4619,5.4619,5.3971,5.2929,5.2929,5.2929,5.2929,5.2929,5.2929,5.2929,0.0,0.0,0.0,0.0,0.0,0.0,0.0,0.0,0.0,0.0,3.6055,3.6035,3.6094,3.6055,3.5879,3.5508,3.5488,3.5312,3.4902,0.0,0.0,3.7775,3.897,3.9167,3.8109,4.1565,4.2662,4.124,4.2841,4.3336,0.0,0.0,0.0,3.9342,0.0,0.0,0.0,0.0,0.0,0.0,0.0,0.0,3.9046,3.9681,4.0048,4.0393,4.1518,4.122,4.0306,3.9777,3.9248,0.0,0.0,0.0,3.8839,3.8984,3.9345,3.9922,4.0908,4.2418,4.3625,0.0,4.4484,4.5746,0.0,0.0,4.6481,0.0,0.0,0.0,0.0,0.0,0.0,0.0,0.0,0.0,0.0,0.0,0.0,0.0,0.0,0.0,0.0,0.0,0.0,0.0,5.7303,5.7303,5.7303,5.6107,5.4856,5.3784,5.2953,5.2581,5.266,5.3632,5.4793,5.6106,5.6621,5.6206,5.5061,5.6585,5.5894,5.3452,5.3452,5.3384,5.3179,5.3179,5.3067,5.2929,5.2929,5.2929,5.2929,5.2929,5.2929,5.2929,0.0,0.0,0.0,0.0,0.0,0.0,0.0,0.0,0.0,0.0,0.0,3.6016,3.6016,3.5801,3.5586,3.541,3.5156,3.4922,3.4707,3.4883,3.5719,3.7257,3.7907,3.868,3.9575,4.1358,4.2254,4.2225,4.3094,4.3337,0.0,4.1874,4.1161,0.0,0.0,0.0,0.0,0.0,0.0,0.0,0.0,0.0,0.0,0.0,0.0,4.1614,4.1886,4.1485,4.0763,4.0234,3.9513,3.8767,3.8527,0.0,0.0,0.0,3.8984,3.9465,4.0812,4.1818,4.2611,0.0,4.4354,4.5306,4.527,0.0,4.6373,0.0,0.0,0.0,0.0,0.0,0.0,0.0,0.0,0.0,0.0,0.0,0.0,0.0,0.0,0.0,0.0,0.0,0.0,0.0,5.515,5.515,5.515,5.4266,5.3482,5.289,5.2168,5.1944,5.2251,5.2736,5.3387,5.4296,5.4597,5.4418,5.3835,5.4418,5.4013,5.2929,5.37,5.3657,5.2929,5.2929,5.2929,5.2929,5.2929,5.2929,5.2929,5.2929,5.2929,5.2929,0.0,0.0,0.0,0.0,0.0,0.0,0.0,0.0,0.0,0.0,0.0,3.6364,3.5879,0.0,0.0,0.0,3.4902,3.5015,3.5646,3.5286,3.5848,3.7657,3.7742,3.8666,4.067,4.106,4.1751,4.2819,4.2819,0.0,4.2819,4.2554,4.2217,0.0,3.9906,0.0,0.0,0.0,0.0,0.0,0.0,0.0,0.0,0.0,0.0,0.0,0.0,4.2038,4.1461,4.0667,3.9874,3.9152,3.8743,3.831,0.0,0.0,0.0,3.9417,0.0,0.0,4.1485,4.2784,4.3735,4.4391,0.0,0.0,4.614,0.0,0.0,0.0,0.0,0.0,0.0,0.0,0.0,0.0,0.0,0.0,0.0,0.0,0.0,0.0,0.0,0.0,0.0,0.0,5.351,5.3565,5.3727,5.2836,5.2459,5.2616,5.1874,5.1699,5.2101,5.2251,5.2528,5.2929,5.2929,5.2929,5.2929,5.2929,5.2929,5.2998,5.4039,5.3835,5.2929,5.2929,5.2929,5.2929,5.2929,5.2929,5.2929,5.2929,5.2929,5.2929,0.0,0.0,0.0,0.0,0.0,0.0,0.0,0.0,0.0,0.0,0.0,3.7365,3.5603,3.541,3.5215,3.4766,3.4707,3.5775,3.833,3.6876,3.7315,4.0341,4.0487,0.0,4.067,4.1992,4.276,4.2819,0.0,0.0,4.2795,4.1725,4.1244,4.122,4.1115,4.0769,4.0386,0.0,0.0,0.0,0.0,0.0,0.0,0.0,0.0,0.0,0.0,0.0,4.2506,4.0908,4.0355,0.0,0.0,0.0,0.0,0.0,0.0,0.0,0.0,4.0042,0.0,4.1918,4.2355,0.0,0.0,0.0,0.0,0.0,0.0,0.0,0.0,0.0,0.0,0.0,0.0,0.0,0.0,0.0,0.0,0.0,0.0,0.0,0.0,0.0,0.0,0.0,5.351,5.3754,5.4236,5.3075,5.2642,5.3126,5.246,5.2076,5.2101,5.2628,5.2904,5.2929,5.2929,5.2929,5.2929,5.2929,5.2929,5.2929,5.2998,5.2998,5.2929,5.2929,5.2929,5.2929,5.2929,5.2929,5.2929,5.2929,5.2929,5.2929,0.0,0.0,0.0,0.0,0.0,0.0,0.0,0.0,0.0,0.0,0.0,0.0,0.0,3.8414,3.8098,3.831,3.7762,3.7784,3.8791,3.7898,3.8218,4.0189,3.9928,4.0148,4.0999,4.1492,4.1749,0.0,0.0,4.1749,4.1749,4.1365,4.1004,4.0667,4.0331,4.0451,4.0908,4.11,0.0,0.0,0.0,0.0,0.0,0.0,0.0,0.0,0.0,0.0,0.0,0.0,0.0,0.0,0.0,0.0,0.0,0.0,0.0,0.0,0.0,0.0,0.0,4.2145,4.3033,4.3698,0.0,0.0,0.0,0.0,0.0,0.0,0.0,0.0,0.0,0.0,0.0,0.0,0.0,0.0,0.0,0.0,0.0,0.0,0.0,0.0,0.0,0.0,0.0,5.1743,5.2311,5.2265,5.2282,5.2486,5.2598,5.2628,5.2628,5.2829,5.2929,5.2929,5.2929,5.2929,5.2929,5.2929,5.2929,5.2929,5.2929,5.2929,5.2929,5.2929,5.2929,5.2929,5.2929,5.2929,5.2929,5.2929,5.2929,5.2929,0.0,0.0,0.0,0.0,0.0,4.2969,4.2811,4.2224,4.1688,4.1213,0.0,0.0,0.0,0.0,3.9819,4.0037,3.9467,3.9283,3.9722,3.912,3.9311,4.0595,4.0164,4.0352,4.1437,4.1268,0.0,0.0,0.0,0.0,0.0,4.1172,4.1004,4.0643,4.0282,4.0427,0.0,0.0,0.0,4.3241,0.0,0.0,4.4058,0.0,0.0,0.0,0.0,0.0,0.0,0.0,0.0,0.0,0.0,0.0,0.0,0.0,0.0,0.0,3.8864,0.0,0.0,0.0,0.0,4.3542,0.0,0.0,0.0,0.0,0.0,0.0,0.0,0.0,0.0,0.0,0.0,0.0,0.0,0.0,0.0,0.0,0.0,0.0,0.0,0.0,0.0,0.0,0.0,0.0,5.1523,5.19,5.2176,5.2377,5.2729,5.2929,5.2929,5.2929,5.2929,5.2929,5.2929,5.2929,5.2929,5.2929,5.2929,5.2929,5.2929,5.2929,5.2929,5.2929,5.2929,5.2929,5.2929,5.2929,5.2929,5.2929,5.2929,5.2929,0.0,0.0,0.0,0.0,4.5667,4.6102,4.6607,4.5814,4.4611,4.3332,0.0,0.0,0.0,0.0,0.0,3.9706,3.9662,4.0193,4.1512,4.0632,4.0678,4.199,0.0,0.0,0.0,0.0,0.0,0.0,0.0,0.0,0.0,0.0,4.1172,4.1172,4.1172,4.0908,4.0499,0.0,4.2338,4.2867,0.0,4.4178,4.5053,0.0,0.0,0.0,4.5477,4.5453,0.0,4.3505,0.0,0.0,0.0,0.0,0.0,0.0,0.0,0.0,0.0,0.0,0.0,0.0,0.0,0.0,0.0,0.0,0.0,0.0,0.0,0.0,0.0,0.0,0.0,0.0,0.0,0.0,0.0,0.0,0.0,0.0,0.0,0.0,0.0,0.0,0.0,0.0,5.0996,5.1548,5.2101,5.2126,5.2377,5.2904,5.2929,5.2929,5.2929,5.2929,5.2929,5.2929,5.2929,5.2929,5.2929,5.2929,5.2929,5.2929,5.2929,5.2929,5.2929,5.2929,5.2929,5.2929,5.2929,5.2929,5.2929,5.2929,5.2929,5.2904,0.0,0.0,0.0,4.6376,4.6108,4.5982,4.6126,4.5573,4.5071,0.0,0.0,0.0,0.0,0.0,4.4132,4.3615,4.3177,4.3153,4.3488,4.2553,4.2162,4.2543,4.2038,4.1822,4.1966,0.0,0.0,0.0,0.0,0.0,0.0,0.0,0.0,0.0,4.1172,4.11,4.1004,4.1677,0.0,0.0,4.3746,4.4237,0.0,0.0,0.0,0.0,0.0,4.5101,4.5645,0.0,4.3577,4.3601,0.0,0.0,0.0,0.0,0.0,0.0,3.7974,0.0,0.0,0.0,0.0,0.0,0.0,0.0,0.0,0.0,0.0,0.0,0.0,0.0,0.0,0.0,0.0,0.0,0.0,0.0,0.0,0.0,0.0,0.0,0.0,0.0,0.0,0.0,5.1774,5.2126,5.2678,5.2703,5.2779,5.2929,5.2929,5.2929,5.2929,5.2929,5.2929,5.2929,5.2929,5.2929,5.2929,5.2929,5.2929,5.2929,5.2929,5.2929,5.2929,5.2929,5.2929,5.2929,5.2929,5.2929,5.2929,5.2929,5.2678,5.2327,0.0,0.0,4.7401,4.7088,4.6776,4.6655,4.6872,4.6463,4.6223,0.0,0.0,0.0,0.0,0.0,0.0,0.0,4.4909,4.4621,4.4621,4.3673,4.2976,4.2819,4.2313,4.2062,4.2362,0.0,0.0,0.0,0.0,0.0,0.0,0.0,0.0,0.0,0.0,0.0,0.0,0.0,0.0,0.0,4.3625,0.0,0.0,4.5125,4.5549,0.0,0.0,0.0,4.6343,4.4732,4.4419,0.0,0.0,0.0,0.0,0.0,0.0,0.0,0.0,0.0,0.0,0.0,0.0,0.0,0.0,0.0,0.0,0.0,0.0,0.0,0.0,0.0,0.0,0.0,0.0,0.0,0.0,0.0,0.0,0.0,0.0,0.0,0.0,0.0,0.0,5.2076,5.2327,5.2578,5.2904,5.2929,5.2929,5.2929,5.2929,5.2929,5.2929,5.2929,5.2929,5.2929,5.2929,5.2929,5.2929,5.2929,5.2929,5.2929,5.2929,5.2929,5.2929,5.2929,5.2929,5.2929,5.2929,5.2929,5.2904,5.2678,5.2377,5.2076,0.0,0.0,4.7521,4.7569,4.7545,4.769,4.8291,4.793,4.7617,0.0,0.0,0.0,0.0,0.0,0.0,0.0,4.5525,4.5149,4.5149,4.4202,4.3409,4.2952,4.2375,4.2362,4.2951,4.2729,0.0,0.0,0.0,0.0,0.0,0.0,0.0,0.0,4.2332,4.211,0.0,0.0,0.0,4.424,4.3409,4.447,0.0,0.0,4.6167,0.0,4.6335,4.6624,4.725,4.5645,4.5029,0.0,0.0,0.0,0.0,0.0,3.8599,0.0,0.0,0.0,0.0,0.0,0.0,0.0,0.0,0.0,0.0,0.0,0.0,0.0,0.0,0.0,0.0,0.0,0.0,0.0,0.0,0.0,0.0,0.0,0.0,0.0,0.0,5.0971,5.1498,5.2076,5.2628,5.2929,5.2929,5.2929,5.2929,5.2929,5.2929,5.2929,5.2929,5.2929,5.2929,5.2929,5.2929,5.2929,5.2929,5.2929,5.2929,5.2929,5.2929,5.2929,5.2929,5.2929,5.2929,5.2929,5.2854,5.2829,5.2779,5.2226,5.1975,5.185,4.7497,4.7497,4.7642,4.805,4.7786,4.7834,4.8772,4.8483,4.8291,4.8724,0.0,0.0,0.0,0.0,0.0,0.0,0.0,0.0,4.5766,4.4717,4.4069,4.3973,4.312,4.3035,4.3783,4.3746,4.3915,0.0,0.0,0.0,0.0,0.0,0.0,0.0,0.0,0.0,0.0,0.0,0.0,4.445,4.4731,0.0,4.5251,4.6221,4.6724,4.6969,4.643,4.6706,4.7005,0.0,4.4789,4.4309,0.0,0.0,0.0,0.0,0.0,0.0,0.0,0.0,0.0,0.0,0.0,0.0,0.0,0.0,0.0,0.0,0.0,0.0,0.0,0.0,0.0,0.0,0.0,0.0,0.0,0.0,0.0,0.0,0.0,0.0,0.0,5.1222,5.1498,5.2076,5.2628,5.2929,5.2929,5.2929,5.2929,5.2929,5.2929,5.2929,5.2929,5.2929,5.2929,5.2929,5.2929,5.2929,5.2929,5.2929,5.2929,5.2929,5.2929,5.2929,5.2929,5.2929,5.2929,5.2879,5.2427,5.2277,5.2201,5.1649,5.1147,5.072,4.7497,4.7497,4.7666,4.8195,4.8291,4.8555,4.9349,4.9253,4.9181,0.0,0.0,0.0,0.0,0.0,0.0,0.0,0.0,0.0,4.6537,4.5764,4.5213,4.4865,4.4098,4.372,4.3863,4.3772,4.3954,4.4495,0.0,0.0,0.0,0.0,0.0,0.0,0.0,0.0,0.0,0.0,4.4259,4.5143,4.5564,0.0,4.5575,4.6571,4.6929,4.6914,4.7057,4.6963,4.6722,4.607,4.5573,0.0,0.0,4.3746,4.3192,0.0,4.0403,3.9753,0.0,0.0,0.0,3.8407,0.0,0.0,0.0,0.0,0.0,0.0,0.0,0.0,0.0,0.0,0.0,0.0,0.0,0.0,0.0,0.0,0.0,0.0,0.0,0.0,0.0,5.1272,5.1498,5.2076,5.2352,5.2628,5.2904,5.2929,5.2929,5.2929,5.2929,5.2929,5.2929,5.2929,5.2929,5.2929,5.2929,5.2929,5.2929,5.2929,5.2929,5.2929,5.2929,5.2779,5.2528,5.2528,5.2352,5.2101,5.2101,5.195,5.1624,5.1071,5.067,5.0368,4.772,4.7793,4.801,4.8565,4.9072,4.9673,5.0159,5.0232,5.0207,0.0,0.0,0.0,0.0,0.0,0.0,0.0,0.0,0.0,0.0,0.0,4.6504,4.6032,4.5047,4.4432,4.4259,4.3813,4.3837,4.4551,0.0,0.0,0.0,0.0,0.0,0.0,0.0,0.0,0.0,0.0,0.0,4.5953,0.0,4.6698,4.6721,4.7389,4.7537,4.7488,4.7932,4.7479,4.6728,4.6875,0.0,4.5878,4.5164,4.4669,0.0,0.0,0.0,0.0,0.0,0.0,0.0,0.0,0.0,3.9008,0.0,0.0,0.0,0.0,0.0,0.0,0.0,0.0,0.0,0.0,0.0,0.0,0.0,0.0,0.0,0.0,0.0,0.0,0.0,5.1373,5.1574,5.1925,5.2151,5.2452,5.2904,5.2929,5.2929,5.2929,5.2929,5.2929,5.2929,5.2929,5.2929,5.2929,5.2929,5.2929,5.2929,5.2929,5.2929,5.2929,5.2804,5.2528,5.2101,5.2,5.1624,5.1147,5.1599,5.1498,5.1046,5.0469,5.0318,5.0343,4.8543,4.8878,4.9369,4.9867,5.045,5.099,5.1485,5.1583,0.0,0.0,0.0,0.0,0.0,0.0,0.0,0.0,0.0,0.0,4.8486,0.0,0.0,4.8222,4.5859,4.5034,4.6278,4.4873,4.4269,4.4602,0.0,0.0,0.0,0.0,0.0,0.0,4.3539,0.0,0.0,0.0,4.6516,0.0,4.7895,4.8632,0.0,4.9656,4.9711,4.9286,4.9013,4.8367,4.7675,0.0,4.7207,4.6463,0.0,4.6175,0.0,0.0,0.0,0.0,0.0,0.0,0.0,0.0,3.9128,0.0,0.0,0.0,0.0,0.0,0.0,0.0,0.0,0.0,0.0,0.0,0.0,0.0,0.0,0.0,0.0,0.0,0.0,0.0,0.0,0.0,5.1825,5.1398,5.2277,5.2854,5.2929,5.2929,5.2929,5.2929,5.2929,5.2929,5.2929,5.2929,5.2929,5.2929,5.2929,5.2929,5.2929,5.2929,5.2929,5.2904,5.2402,5.2176,5.2076,5.1574,5.1046,5.0519,5.0594,5.0569,5.0444,4.9891,4.9992,5.0419,4.9199,4.9281,4.9699,5.0493,5.0813,5.1157,5.1722,5.155,0.0,0.0,0.0,0.0,0.0,0.0,0.0,0.0,0.0,4.9988,0.0,0.0,0.0,0.0,4.7782,4.6972,4.6884,4.5645,4.5003,4.5121,4.4468,0.0,0.0,0.0,0.0,0.0,4.4041,0.0,4.4392,0.0,0.0,0.0,0.0,0.0,0.0,4.9927,4.9515,4.9525,4.9202,4.866,4.8085,0.0,4.7662,0.0,0.0,0.0,0.0,0.0,0.0,0.0,0.0,0.0,0.0,0.0,0.0,0.0,4.0403,0.0,4.0258,0.0,0.0,0.0,0.0,0.0,0.0,0.0,0.0,0.0,0.0,0.0,0.0,0.0,0.0,0.0,0.0,0.0,0.0,0.0,0.0,5.2578,5.2904,5.2929,5.2929,5.2929,5.2929,5.2929,5.2929,5.2929,5.2929,5.2929,5.2929,5.2929,5.2929,5.2929,5.2754,5.2427,5.2201,5.1724,5.1122,5.087,5.0645,5.0419,5.0419,5.0419,5.0393,5.0167,5.0645,5.1398,5.005,0.0,4.9991,5.0931,5.1228,5.1501,5.2,5.163,0.0,0.0,0.0,0.0,5.1036,5.0962,0.0,0.0,5.074,5.0677,0.0,0.0,5.063,5.0092,4.9238,0.0,0.0,4.6577,4.5723,4.5246,0.0,0.0,0.0,0.0,0.0,0.0,0.0,4.4719,4.4995,0.0,0.0,4.8962,4.9414,5.0469,5.1599,4.9866,4.9389,4.959,4.9332,4.9017,4.8629,4.8457,4.8354,0.0,4.743,0.0,0.0,0.0,0.0,0.0,4.3697,0.0,0.0,0.0,0.0,0.0,0.0,0.0,0.0,0.0,0.0,0.0,0.0,0.0,0.0,0.0,0.0,0.0,0.0,0.0,0.0,0.0,0.0,0.0,0.0,0.0,0.0,0.0,0.0,0.0,5.2678,5.2854,5.2929,5.2929,5.2929,5.2929,5.2929,5.2929,5.2929,5.2929,5.2929,5.2929,5.2929,5.2779,5.2477,5.2076,5.1774,5.1272,5.0645,5.0494,5.0594,5.087,5.087,5.1071,5.1272,5.0996,5.1599,5.2553,5.1247,5.0795,5.0528,5.1197,5.1749,5.2234,5.2785,5.2384,0.0,0.0,0.0,0.0,0.0,0.0,0.0,0.0,0.0,5.2108,5.0453,0.0,5.1272,0.0,4.964,4.9012,0.0,0.0,4.6215,4.4644,0.0,0.0,0.0,0.0,0.0,0.0,0.0,4.4945,4.5598,4.7782,4.8134,4.7294,4.8962,4.9314,4.9012,0.0,5.0042,4.959,4.959,0.0,0.0,4.9775,4.9495,0.0,0.0,0.0,0.0,0.0,0.0,0.0,0.0,0.0,0.0,4.2952,0.0,0.0,0.0,0.0,4.1774,0.0,0.0,0.0,0.0,0.0,0.0,0.0,0.0,0.0,0.0,0.0,0.0,0.0,0.0,0.0,0.0,0.0,0.0,0.0,0.0,0.0,5.2151,5.2628,5.2929,5.2929,5.2929,5.2929,5.2929,5.2929,5.2929,5.2929,5.2929,5.2929,5.2904,5.2377,5.2126,5.2051,5.0946,5.077,5.1222,5.0645,5.1071,5.2051,5.2051,5.2678,5.3482,5.2427,5.2729,5.3658,0.0,0.0,5.072,5.1674,5.1975,5.2302,5.2854,5.2151,0.0,0.0,0.0,0.0,0.0,5.1825,5.1825,0.0,0.0,5.2151,5.1574,5.2051,0.0,0.0,0.0,5.0544,0.0,0.0,0.0,0.0,0.0,0.0,0.0,0.0,0.0,0.0,0.0,4.5698,0.0,0.0,0.0,0.0,0.0,5.0368,4.9866,0.0,0.0,4.959,4.959,4.959,0.0,4.9686,4.9666,4.9569,4.9327,4.8877,4.8502,4.8395,4.7326,0.0,0.0,0.0,4.4645,4.3986,0.0,0.0,0.0,0.0,0.0,0.0,0.0,0.0,0.0,0.0,0.0,0.0,0.0,0.0,0.0,0.0,0.0,0.0,0.0,0.0,0.0,0.0,0.0,0.0,0.0,0.0,0.0,5.2628,5.2929,5.2929,5.2929,5.2929,5.2929,5.2929,5.2929,5.2929,5.2929,5.2729,5.2402,5.2578,5.2251,5.1548,5.1548,5.1649,5.18,5.1624,5.2176,5.3155,5.3155,5.3833,5.4687,5.3557,5.3858,5.4813,5.1172,0.0,5.0946,5.1674,5.2126,5.2452,0.0,0.0,0.0,0.0,5.1172,0.0,5.2,0.0,5.2026,0.0,5.2402,5.2402,5.2402,5.2729,0.0,5.19,5.1825,0.0,0.0,0.0,0.0,0.0,0.0,4.492,0.0,0.0,0.0,0.0,0.0,0.0,4.7431,0.0,4.8736,0.0,0.0,5.0092,0.0,0.0,4.9665,5.0117,0.0,4.9439,4.954,4.9138,4.9321,4.9666,4.8999,4.8943,4.905,4.8834,4.7982,4.7204,4.7759,4.6916,0.0,4.5387,4.5372,0.0,4.4299,0.0,0.0,0.0,0.0,0.0,0.0,0.0,0.0,0.0,0.0,0.0,0.0,0.0,0.0,0.0,0.0,0.0,0.0,0.0,0.0,0.0,0.0,0.0,0.0,0.0,5.2729,5.2929,5.2929,5.2929,5.2929,5.2929,5.2929,5.2929,5.2929,5.2729,5.2402,5.2553,5.2352,5.1875,5.2026,5.2327,5.2678,5.2678,5.3306,5.431,5.431,5.4863,5.5566,5.4637,5.4888,5.5691,0.0,0.0,0.0,0.0,5.2176,0.0,0.0,0.0,5.1297,0.0,5.1322,5.1523,5.2076,5.2603,5.2929,5.2929,5.2929,0.0,5.2929,5.2929,0.0,0.0,5.19,5.1322,5.1247,0.0,0.0,0.0,0.0,0.0,0.0,0.0,0.0,0.0,4.4895,0.0,4.7983,4.846,4.836,4.7908,4.7958,4.8661,4.9615,4.9038,0.0,5.1071,4.9414,4.9163,4.9439,4.836,4.8711,4.9515,4.8987,4.8786,4.8723,4.843,4.8277,4.8189,4.7957,4.7571,4.7223,4.7223,0.0,0.0,0.0,0.0,4.5005,0.0,0.0,0.0,0.0,0.0,0.0,0.0,0.0,0.0,0.0,0.0,0.0,0.0,0.0,0.0,0.0,0.0,0.0,0.0,0.0,0.0,0.0,0.0,5.2377,5.2904,5.2929,5.2929,5.2929,5.2929,5.2929,5.2929,5.2929,5.2929,5.2904,5.2402,5.2477,5.2929,5.2452,5.2829,5.3783,5.3783,5.4436,5.544,5.544,5.5742,5.6143,5.5616,5.5767,5.6219,5.2176,5.2,5.1774,0.0,5.185,5.2277,0.0,0.0,0.0,0.0,5.19,5.2101,5.2653,5.2854,5.2929,5.2929,5.2929,0.0,0.0,0.0,0.0,5.2327,5.2427,5.1925,5.067,5.1172,0.0,4.7068,0.0,0.0,4.379,0.0,0.0,0.0,0.0,0.0,4.8485,4.7405,4.7305,4.7983,4.8812,4.9841,0.0,0.0,5.0167,5.1122,4.9841,4.9464,4.9565,4.9264,4.9364,4.9565,4.9439,4.9113,4.8862,4.9199,4.8557,4.783,4.8586,4.8229,4.7547,4.7288,4.7062,4.669,0.0,0.0,0.0,0.0,0.0,0.0,0.0,0.0,0.0,0.0,0.0,0.0,0.0,0.0,0.0,0.0,0.0,0.0,0.0,0.0,0.0,0.0,0.0,0.0,0.0,0.0,0.0,5.2929,5.2929,5.2929,5.2929,5.2929,5.2929,5.2929,5.2929,5.2929,5.2929,5.3181,5.3356,5.3507,5.3808,5.431,5.4963,5.4963,5.5365,5.5993,5.5993,5.6093,5.6194,5.6068,5.6093,5.6143,5.2477,0.0,0.0,5.2823,0.0,0.0,5.1817,0.0,0.0,5.2402,5.2477,0.0,5.3206,5.3055,5.2929,5.2929,5.2929,0.0,5.3256,0.0,0.0,5.2804,5.2653,5.2126,5.1172,5.1297,0.0,4.8209,0.0,0.0,4.4518,0.0,0.0,0.0,0.0,4.6301,0.0,4.8385,4.846,4.9012,4.9163,0.0,0.0,4.9565,4.9766,5.0469,4.9816,4.959,4.9515,4.9012,4.9188,4.9565,4.9314,4.9188,4.9188,4.9515,4.886,4.8233,4.9107,4.8675,4.8006,4.8035,4.7955,4.779,4.7278,4.7316,4.7233,0.0,0.0,0.0,0.0,0.0,0.0,0.0,0.0,0.0,0.0,0.0,0.0,0.0,0.0,0.0,0.0,0.0,0.0,0.0,0.0,0.0,0.0,0.0,0.0,5.2929,5.2929,5.2929,5.2929,5.2929,5.2929,5.2929,5.3155,5.3256,5.3281,5.3833,5.421,5.4461,5.4787,5.5239,5.5742,5.5742,5.5942,5.6219,5.6219,5.6219,5.6219,5.6219,5.6219,5.6118,0.0,0.0,0.0,0.0,0.0,0.0,0.0,5.18,0.0,5.2754,0.0,5.3105,5.3557,5.3206,5.2929,5.2929,0.0,5.313,5.3557,5.3181,5.313,5.3582,5.2703,5.2176,5.2101,5.1147,0.0,0.0,0.0,0.0,0.0,0.0,0.0,0.0,0.0,0.0,0.0,5.0117,5.0343,0.0,4.9238,4.9163,4.954,4.9063,4.9163,4.959,4.959,4.959,4.9439,4.846,4.8786,4.9515,4.9038,4.9163,4.9515,4.9565,4.9213,4.8887,4.9439,4.9021,4.849,4.9013,4.8912,4.8701,4.8707,4.8512,4.8358,4.8291,4.7858,4.7377,0.0,0.0,0.0,0.0,0.0,0.0,0.0,0.0,0.0,0.0,0.0,0.0,0.0,0.0,0.0,0.0,0.0,0.0,0.0,0.0,0.0,5.2804,5.2879,0.0,5.303,0.0,5.3005,5.3155,5.3532,5.3783,5.3934,5.4436,5.4988,5.5491,5.5491,5.5767,5.6219,5.6219,5.6219,5.6219,5.6219,5.6219,5.6219,5.6219,5.6168,5.6043,0.0,0.0,0.0,0.0,0.0,5.4126,5.2228,5.2051,5.2126,5.2226,5.2653,5.2955,5.3055,5.298,5.2929,5.2929,5.2929,0.0,0.0,0.0,0.0,5.3055,5.2879,5.2578,5.2126,5.19,5.1071,0.0,0.0,0.0,0.0,0.0,0.0,0.0,0.0,0.0,4.8309,4.9791,0.0,4.9088,4.9339,4.9515,4.959,4.949,4.9515,4.959,4.959,4.959,4.9565,4.9364,4.9439,4.9565,4.949,4.9213,4.9012,4.9464,4.9213,4.8887,4.9439,4.9188,4.8785,4.9078,4.8759,4.8377,4.8206,4.8446,4.8627,4.8358,4.7858,4.7617,4.7954,0.0,0.0,0.0,0.0,0.0,0.0,0.0,0.0,0.0,0.0,0.0,0.0,0.0,0.0,0.0,0.0,0.0,0.0,0.0,0.0,0.0,5.2678,0.0,0.0,0.0,5.3381,5.4285,5.3884,5.4185,5.5089,5.5189,5.5541,5.6068,5.6068,5.6118,5.6219,5.6219,5.6219,5.6219,5.6219,5.6219,5.6219,5.6219,5.5917,5.5516,0.0,0.0,0.0,0.0,0.0,0.0,0.0,5.2703,0.0,5.2904,5.3155,5.3331,5.3331,5.308,5.2929,5.2929,5.2929,5.2929,5.2929,5.2929,5.2929,5.2929,5.2929,0.0,5.2528,5.2251,5.1574,5.0469,0.0,0.0,0.0,0.0,0.0,0.0,0.0,4.8736,0.0,0.0,0.0,4.9615,4.9615,4.959,4.959,4.959,4.959,4.959,4.959,4.959,4.959,4.959,4.959,4.959,4.959,4.9414,4.9264,4.9515,4.9213,4.8887,4.9439,4.9389,4.9339,4.9696,4.9875,4.9909,4.9823,4.9952,4.9927,4.9499,4.9028,4.8628,4.8339,4.7823,0.0,0.0,0.0,0.0,0.0,0.0,0.0,0.0,0.0,0.0,0.0,0.0,0.0,0.0,0.0,0.0,0.0,0.0,0.0,0.0,0.0,0.0,0.0,0.0,0.0,5.411,5.4135,5.4587,5.539,5.5691,5.5968,5.6219,5.6219,5.6219,5.6219,5.6219,5.6219,5.6219,5.6219,5.6394,5.6595,5.6319,5.6043,5.5767,0.0,5.83,0.0,0.0,5.5604,0.0,5.3942,5.3532,5.3331,5.3507,5.3532,5.3532,5.3532,5.3181,5.2929,5.2929,5.2929,5.2929,5.2929,5.2929,5.2929,5.2929,5.2929,5.2929,5.2929,5.2377,5.19,0.0,0.0,0.0,0.0,0.0,0.0,0.0,0.0,0.0,0.0,0.0,5.077,5.0193,4.9766,4.959,4.959,4.959,4.959,4.959,4.959,4.959,4.959,4.959,4.959,4.959,4.959,4.959,4.959,4.959,4.9364,4.9213,4.9665,4.9766,4.9891,5.0469,5.0947,5.1277,5.1309,5.1275,5.1129,5.0645,5.034,4.989,4.9044,4.8961,0.0,0.0,0.0,0.0,0.0,0.0,0.0,0.0,0.0,0.0,0.0,0.0,0.0,0.0,0.0,0.0,0.0,0.0,0.0,0.0,0.0,5.3155,5.3281,0.0,5.3406,0.0,5.4511,5.5039,5.5566,5.6018,5.6219,5.6219,5.6219,5.6219,5.6219,5.6219,5.6269,5.6394,5.6394,5.6721,5.7173,5.6721,5.642,5.6168,0.0,0.0,0.0,0.0,0.0,0.0,5.4744,5.4436,5.4084,5.313,5.3005,5.3005,5.3005,5.2955,5.2929,5.2929,5.2929,5.2929,5.2929,5.2929,5.2929,5.2929,5.2929,5.2929,5.2929,5.2377,5.2076,0.0,0.0,0.0,0.0,0.0,0.0,0.0,0.0,0.0,0.0,5.0268,5.0167,4.9665,4.9615,4.959,4.959,4.959,4.959,4.959,4.959,4.959,4.959,4.959,4.959,4.959,4.959,4.959,4.959,4.959,4.9916,5.0268,5.0318,5.0343,5.0469,5.1046,5.0896,5.0563,5.073,5.1141,5.1377,5.1053,5.0891,5.0867,5.0769,5.0172,4.985,0.0,0.0,0.0,0.0,0.0,0.0,0.0,0.0,0.0,0.0,0.0,0.0,0.0,0.0,0.0,0.0,0.0,0.0,5.281,0.0,5.3884,5.4411,5.3884,5.416,5.5239,5.529,5.5591,5.6143,5.6194,5.6219,5.6219,5.6219,5.6219,5.6219,5.6219,5.652,5.6972,5.6972,5.7323,5.7801,5.775,5.7097,5.6269,0.0,0.0,0.0,0.0,0.0,0.0,0.0,5.4561,5.4411,5.3959,5.3909,5.3909,5.3909,5.3909,5.3909,5.3909,5.3909,5.3758,5.3406,5.3381,5.3256,5.2929,5.2929,5.2929,5.2929,5.2703,5.2427,0.0,0.0,0.0,0.0,0.0,0.0,0.0,0.0,5.0419,5.0092,5.0318,5.0092,4.959,4.959,4.959,4.959,4.959,4.959,4.959,4.959,4.959,4.959,4.959,4.959,4.959,4.959,4.9816,5.0092,5.0092,5.0494,5.0946,5.0946,5.1172,5.1473,5.1724,5.185,5.1908,5.1997,5.2017,5.2029,5.1891,5.1684,5.1239,5.0482,5.0506,5.0531,0.0,0.0,0.0,0.0,0.0,0.0,0.0,0.0,0.0,0.0,0.0,0.0,0.0,0.0,0.0,0.0,0.0,0.0,5.3381,0.0,5.3658,5.4561,5.3984,5.426,5.539,5.539,5.5666,5.6219,5.6219,5.6219,5.6219,5.6219,5.6394,5.6696,5.6696,5.7047,5.7549,5.7549,5.7901,5.8303,5.7625,5.7323,5.7148,5.8831,0.0,5.6615,0.0,5.5471,5.4863,5.5039,5.5039,5.5039,5.5039,5.5039,5.4938,5.4587,5.4561,5.4561,5.4561,5.4561,5.4386,5.3984,5.3959,5.3783,5.3432,5.3256,0.0,5.3155,5.3005,5.2729,5.2352,5.2352,0.0,0.0,0.0,0.0,0.0,5.067,5.0645,5.0419,5.0243,4.9941,4.959,4.959,4.959,4.959,4.959,4.959,4.9615,4.9766,4.9841,4.9866,5.0042,5.0092,5.0067,4.9891,5.0218,5.067,5.067,5.1071,5.1523,5.1523,5.1925,5.2352,5.2352,5.2628,5.2929,5.2929,5.2723,5.2515,5.2446,5.2169,5.1698,5.068,5.0828,5.1017,5.0409,0.0,0.0,0.0,0.0,0.0,0.0,0.0,0.0,0.0,0.0,0.0,0.0,0.0,0.0,0.0,0.0,0.0,0.0,0.0,0.0,0.0,5.431,5.4587,5.539,5.5541,5.5842,5.6219,5.6369,5.6445,5.647,5.662,5.6922,5.7273,5.7273,5.7625,5.8152,5.8152,5.8478,5.8855,5.8052,5.7826,5.7775,5.6624,5.5567,5.4808,5.5361,5.539,5.5566,5.6118,5.6194,5.6194,5.6194,5.6194,5.5767,5.4758,5.4561,5.4561,5.4561,5.4561,5.4561,5.4561,5.4561,5.4632,0.0,0.0,5.3683,5.3683,5.3181,5.2929,5.2929,0.0,0.0,4.959,4.846,4.8837,5.0393,4.9866,4.9916,5.0393,4.9841,4.9615,4.959,4.959,4.959,4.959,4.959,4.959,4.9665,5.0218,5.0419,5.0494,5.1071,5.1272,5.1172,5.0594,5.0795,5.1272,5.1272,5.1649,5.2101,5.2101,5.2503,5.2929,5.2929,5.2929,5.2929,5.2929,5.2929,5.2792,5.2446,5.2377,5.2308,5.1866,5.1446,5.1382,5.1892,0.0,0.0,0.0,0.0,0.0,0.0,0.0,5.3593,5.313,0.0,0.0,0.0,0.0,0.0,0.0,0.0,0.0,5.3708,5.426,0.0,5.4561,5.5089,5.5365,5.539,5.5942,5.6194,5.6219,5.6771,5.7022,5.7047,5.7625,5.7876,5.7901,5.7901,5.8202,5.8704,5.8704,5.9031,5.9483,5.9458,5.8805,5.7901,5.6361,5.5955,5.5742,5.5917,5.5942,5.6018,5.6194,5.6219,5.6219,5.6219,5.6219,5.6068,5.5717,5.5691,5.5691,0.0,5.5691,5.5541,0.0,5.5139,5.4963,5.4658,5.4386,5.411,5.3708,5.3532,5.3281,5.2929,0.0,0.0,0.0,5.1498,5.1222,5.0996,5.082,5.0419,4.9841,4.9665,4.959,4.959,4.959,4.9816,5.0167,5.0167,5.0393,5.077,5.0946,5.0996,5.1021,5.1222,5.1523,5.18,5.1624,5.1699,5.185,5.185,5.2226,5.2678,5.2678,5.2804,5.2929,5.2929,5.2929,5.2929,5.2929,5.2929,5.2792,5.2446,5.2377,5.2308,5.189,5.1446,5.1355,5.1807,5.1141,0.0,0.0,0.0,0.0,0.0,0.0,5.249,0.0,5.2456,0.0,0.0,0.0,0.0,0.0,0.0,0.0,0.0,5.4084,0.0,5.5114,5.529,5.5566,5.5942,5.6118,5.642,5.6771,5.6947,5.7248,5.7625,5.7826,5.8102,5.8453,5.8453,5.878,5.9257,5.9257,5.9357,5.9458,5.9106,5.8504,5.7851,5.6219,5.6219,5.6219,5.6219,5.6219,5.6219,5.6219,5.6219,5.6219,5.6219,5.6219,5.6219,5.6219,5.6219,0.0,5.6219,5.6219,5.6068,5.5717,5.5691,5.5541,5.5189,5.4988,5.4712,5.4336,0.0,0.0,5.3231,5.2829,5.2628,5.2628,5.2402,5.2051,5.1574,5.1373,5.0996,5.0519,5.0318,5.0117,4.9916,5.0142,5.0293,5.0444,5.067,5.0971,5.1297,5.1523,5.1599,5.1624,5.1825,5.2126,5.2427,5.2427,5.2427,5.2427,5.2427,5.2653,5.2929,5.2929,5.2929,5.2929,5.2929,5.2929,5.2929,5.2929,5.2929,5.2792,5.2446,5.2377,5.2308,5.189,5.1586,5.1516,5.1751,5.1401,5.126,5.1751,0.0,0.0,0.0,0.0,0.0,0.0,5.2639,0.0,0.0,0.0,0.0,0.0,0.0,0.0,5.4235,5.411,0.0,5.539,5.5591,5.5867,5.6219,5.642,5.6821,5.7374,5.7575,5.7876,5.8227,5.8403,5.8704,5.9006,5.9006,5.9207,5.9483,5.9483,5.9483,5.9433,5.8905,5.8378,5.7801,5.6219,5.6219,0.0,0.0,5.6219,0.0,5.6219,5.6219,5.6219,5.6219,5.6219,5.6219,5.6219,5.6219,5.6219,5.6219,0.0,0.0,0.0,5.6219,5.6219,5.6219,5.5717,5.544,5.539,5.4361,5.3808,5.3758,5.2754,5.2277,5.2277,5.1749,5.1749,5.2201,5.1674,5.1699,5.2126,5.1523,5.0996,5.0569,5.1046,5.0946,5.0594,5.1122,5.1373,5.1473,5.1975,5.2176,5.2226,5.2754,5.2929,5.2929,5.2929,5.2929,5.2929,5.2929,5.2929,5.2929,5.2929,5.2929,5.2929,5.2929,5.2929,5.2929,5.2929,5.2929,5.2792,5.2515,5.2446,5.2308,5.196,5.189,5.182,5.189,5.182,5.182,5.182,0.0,0.0,0.0,0.0,0.0,0.0,5.3545,5.3541,0.0,0.0,0.0,0.0,0.0,5.3911,5.3708,5.431,5.4863,5.539,5.5942,5.6219,5.6269,5.6821,5.7399,5.7976,5.8478,5.873,5.8805,5.9282,5.9483,5.9483,5.9483,5.9483,5.9483,5.9483,5.9483,5.9433,5.8905,5.8378,5.7801,0.0,0.0,5.6219,5.6219,5.6219,5.6219,5.6219,5.6219,5.6219,5.6219,5.6219,5.6219,5.6219,5.6219,5.6219,5.6219,5.6219,5.6219,5.6219,5.6219,5.6219,5.6219,5.6093,5.5817,5.539,5.5139,5.4787,5.4361,5.411,5.3984,5.3984,5.3858,5.3632,5.3306,5.3181,5.298,5.2678,5.1699,5.1448,5.1649,5.0921,5.1046,5.1724,5.185,5.2176,5.2553,5.2678,5.2729,5.2754,5.2879,5.2929,5.2929,5.2929,5.2929,5.2929,5.2929,5.2929,5.2929,5.2929,5.2929,5.2929,5.2929,5.2929,5.2929,5.2929,5.2929,5.2861,5.2792,5.2792,5.2723,5.2654,5.2446,5.2377,5.2585,5.2169,5.189,5.2213,5.1866,0.0,0.0,5.2186,5.228,5.2923,5.2814,5.2973,0.0,0.0,0.0,0.0,5.4561,5.4309,5.3733,5.4662,5.5265,5.539,5.5942,5.642,5.6846,5.7424,5.7976,5.8529,5.8654,5.893,5.9307,5.9433,5.9483,5.9483,5.9483,5.9483,5.9483,5.9483,5.9483,5.9433,5.8905,5.8378,5.7801,5.6219,5.6219,5.6219,5.6219,5.6219,5.6219,5.6219,5.6219,5.6219,5.6219,5.6219,5.6219,5.6219,5.6219,5.6219,5.6219,5.6219,5.6219,5.6219,5.6219,5.6219,5.6219,5.6219,5.6068,5.5767,5.5516,5.5114,5.4561,5.4561,5.4561,5.4561,5.4561,5.4411,5.411,5.411,5.3934,5.3632,5.303,5.2804,5.2779,5.2176,5.2151,5.2477,5.2477,5.2678,5.2929,5.2929,5.2929,5.2929,5.2929,5.2929,5.298,5.3206,5.3281,5.3331,5.3607,5.3331,5.2929,5.2929,5.2929,5.2929,5.2929,5.2792,5.2723,5.2861,5.2792,5.2723,5.2861,5.2792,5.2723,5.2861,5.2515,5.2238,5.2585,5.2169,5.196,5.2377,5.203,5.2104,5.2909,5.2432,5.2382,5.3187,5.3073,5.3228,5.3757,0.0,0.0,5.4702,5.4952,5.4899,5.4486,5.5064,5.5516,5.5767,5.6319,5.6997,5.7801,5.8127,5.8554,5.9081,5.9081,5.9232,5.9483,5.9483,5.9483,5.9483,5.9483,5.9483,5.9483,5.9483,5.9483,5.9408,5.8629,5.8152,5.7775,5.6219,5.6219,5.6219,5.6219,5.6219,5.6219,5.6219,5.6219,5.6219,5.6219,5.6219,5.6219,5.6219,5.6219,5.6219,5.6219,5.6219,5.6219,5.6219,5.6219,5.6219,5.6219,5.6219,5.6219,5.6219,5.5742,5.529,5.4813,5.4813,5.4813,5.4813,5.4813,5.4813,5.4813,5.4813,5.4813,5.4813,5.4637,5.4336,5.3934,5.3758,5.3482,5.3181,5.308,5.3055,5.303,5.2955,5.2929,5.2929,5.2929,5.2929,5.303,5.3532,5.3708,5.3808,5.4386,5.3909,5.3155,5.308,5.298,5.2929,5.2929,5.2723,5.2585,5.2861,5.2654,5.2585,5.2861,5.2654,5.2585,5.2861,5.2377,5.2149,5.2576,5.2268,5.2079,5.2531,0.0,5.2342,5.3493,5.2959,5.2909,5.3783,5.3833,5.3833,5.3833,5.4361,5.4687,5.4687,5.5214,5.5516,5.5516,5.5516,5.5767,5.6319,5.6972,5.7775,5.873,5.8805,5.9056,5.9483,5.9483,5.9483,5.9483,5.9483,5.9483,5.9483,5.9483,5.9483,5.9483,5.9483,5.9483,5.9382,5.8378,5.7976,5.775,5.6219,5.6219,5.6219,5.6219,5.6219,5.6219,5.6219,5.6219,5.6219,5.6219,5.6219,5.6219,5.6219,5.6219,5.6219,5.6219,5.6219,5.6219,5.6219,5.6219,5.6219,5.6219,5.6219,5.6219,5.6219,5.6118,5.6043,5.5968,5.5968,5.5968,5.5968,5.5968,5.5968,5.5968,5.5968,5.5968,5.5892,5.4963,5.4787,5.5039,5.4084,5.3959,5.426,5.3758,5.3582,5.3532,5.308,5.2929,5.2929,5.2929,5.2929,5.303,5.3532,5.3708,5.3808,5.4386,5.4436,5.421,5.3708,5.3256,5.2929,5.2929,5.2861,5.2861,5.2861,5.2861,5.2861,5.2861,5.2861,5.2861,5.2861,5.2792,5.2953,5.357,5.3158,5.2839,5.3192,0.0,5.2576,5.3193,5.3168,5.3412,5.4386,5.4436,5.4436,5.4436,5.4938,5.5265,5.5265,5.5792,5.6093,5.6093,5.6093,5.6344,5.6897,5.7926,5.8554,5.873,5.9156,5.9408,5.9483,5.9483,5.9483,5.9483,5.9483,5.9483,5.9483,5.9483,5.9483,5.9483,5.9483,5.9483,5.9408,5.8805,5.8303,5.7801,5.6219,5.6219,5.6219,5.6219,5.6219,5.6219,5.6219,5.6219,5.6219,5.6219,5.6219,5.6219,5.6219,5.6219,5.6219,5.6219,5.6219,5.6219,5.6219,5.6219,5.6219,5.6219,5.6219,5.6219,5.6219,5.6219,5.6219,5.6219,5.6219,5.6219,5.6219,5.6219,5.6219,5.6219,5.6219,5.6219,5.6168,5.5666,5.5591,5.5767,5.4938,5.4762,5.4938,5.4386,5.416,5.4084,5.3532,5.3331,5.3306,5.303,5.2929,5.303,5.3532,5.3909,5.4285,5.4838,5.4787,5.4436,5.3858,5.3532,5.3281,5.3005,5.2792,5.2654,5.2861,5.2792,5.2723,5.2861,5.2792,5.2723,5.2861,5.2585,5.2456,5.3023,5.263,5.2511,5.3233,5.3052,5.3193,5.4252,5.4148,5.4269,5.4963,5.5013,5.5013,5.5013,5.5516,5.5842,5.5842,5.6068,5.6344,5.6646,5.6646,5.7072,5.7926,5.8453,5.8855,5.9131,5.9382,5.9483,5.9483,5.9483,5.9483,5.9483,5.9483,5.9483,5.9483,5.9483,5.9483,5.9483,5.9483,5.9483,5.9433,5.8905,5.8554,5.8252,5.6219,5.6219,5.6219,5.6219,5.6219,5.6219,5.6219,5.6219,5.6219,5.6219,5.6219,5.6219,5.6219,5.6219,5.6219,5.6219,5.6219,5.6219,5.6219,5.6219,5.6219,5.6219,5.6219,5.6219,5.6219,5.6219,5.6219,5.6219,5.6219,5.6219,5.6219,5.6219,5.6219,5.6219,5.6219,5.6219,5.6219,5.6219,5.6219,5.6168,5.5742,5.5591,5.5516,5.4963,5.4762,5.4687,5.411,5.3909,5.3833,5.3432,5.3231,5.3206,5.3733,5.421,5.4687,5.5214,5.5189,5.4787,5.4084,5.3909,5.3808,5.3406,5.3098,5.2909,5.3061,5.2898,5.2759,5.3036,5.2798,5.261,5.3011,5.2521,5.2223,5.2874,0.0,5.2614,5.3644,5.3591,5.4002,5.5265,5.5013,5.4988,5.5516,5.5591,5.5591,5.5591,5.5968,5.6219,5.6219,5.6344,5.6721,5.7399,5.7424,5.7851,5.8704,5.883,5.9106,5.9483,5.9483,5.9483,5.9483,5.9483,5.9483,5.9483,5.9483,5.9483,5.9483,5.9483,5.9483,5.9483,5.9483,5.9583,5.9633,5.9232,5.9081,5.9006,5.6219,5.6219,5.6219,5.6219,5.6219,5.6219,5.6219,5.6219,5.6219,5.6219,5.6219,5.6219,5.6219,5.6219,5.6219,5.6219,5.6219,5.6219,5.6219,5.6219,5.6219,5.6219,5.6219,5.6219,5.6219,5.6219,5.6219,5.6219,5.6219,5.6219,5.6219,5.6219,5.6219,5.6219,5.6219,5.6219,5.6219,5.6219,5.6219,5.6219,5.6168,5.6143,5.6093,5.5541,5.534,5.5265,5.4712,5.4511,5.4486,5.4461,5.4084,5.3758,5.431,5.4536,5.4687,5.5214,5.5717,5.5867,5.4787,5.4511,5.4486,5.4461,5.4436,5.431,5.3758,5.3632,5.3632,5.3658,5.3256,5.3011,5.3557,5.3187,5.3223,5.4461,5.4052,5.3998,5.5234,5.4852,5.4712,5.5315,5.5365,5.5541,5.6093,5.6143,5.6143,5.6143,5.6194,5.6219,5.6219,5.6696,5.7474,5.8554,5.8604,5.8629,5.873,5.9207,5.9458,5.9483,5.9483,5.9483,5.9483,5.9483,5.9483,5.9483,5.9483,5.9483,5.9483,5.9483,5.9483,5.9483,5.9483,5.9809,6.0261,6.0211,6.0211,6.0111,5.6219,5.6219,5.6219,5.6219,5.6219,5.6219,5.6219,5.6219,5.6219,5.6219,5.6219,5.6219,5.6219,5.6219,5.6219,5.6219,5.6219,5.6219,5.6219,5.6219,5.6219,5.6219,5.6219,5.6219,5.6219,5.6219,5.6219,5.6219,5.6219,5.6219,5.6219,5.6219,5.6219,5.6219,5.6219,5.6219,5.6219,5.6219,5.6219,5.6219,5.6219,5.6219,5.6194,5.5968,5.5892,5.5817,5.5265,5.5089,5.5039,5.4687,5.4411,5.4285,5.4486,5.4813,5.5189,5.5742,5.6043,5.6118,5.5691,5.534,5.4988,5.4637,5.4561,5.4511,5.4285,5.4235,5.4235,5.4235,5.4084,5.4009,5.421,5.4084,5.4064,5.4645,5.444,5.4516,5.5349,5.5268,5.529,5.5842,5.5892,5.5993,5.6194,5.6219,5.6219,5.6219,5.6219,5.6369,5.6696,5.7575,5.8278,5.8704,5.9031,5.9207,5.9207,5.9408,5.9483,5.9483,5.9483,5.9483,5.9483,5.9483,5.9483,5.9483,5.9483,5.9684,6.001,6.001,6.0211,6.0537,6.0537,6.0663,6.0864,6.0864,6.0864,6.0763,5.6219,5.6219,5.6219,5.6219,5.6219,5.6219,5.6219,5.6219,5.6219,5.6219,5.6219,5.6219,5.6219,5.6219,5.6219,5.6219,5.6219,5.6219,5.6219,5.6219,5.6219,5.6219,5.6219,5.6219,5.6219,5.6219,5.6219,5.6219,5.6219,5.6219,5.6219,5.6219,5.6219,5.6219,5.6219,5.6219,5.6219,5.6219,5.6219,5.6219,5.6219,5.6219,5.6219,5.6219,5.6219,5.6168,5.5792,5.5641,5.5591,5.5214,5.4963,5.4813,5.4813,5.5089,5.5491,5.6043,5.6219,5.6219,5.6219,5.5942,5.5541,5.5164,5.5089,5.5039,5.4863,5.4813,5.4813,5.4813,5.4687,5.4612,5.4787,5.4687,5.4637,5.4787,5.4813,5.5013,5.5566,5.5641,5.5792,5.6168,5.6219,5.6219,5.6219,5.6219,5.6219,5.6219,5.6219,5.652,5.7273,5.8202,5.8805,5.8956,5.9307,5.9483,5.9483,5.9483,5.9483,5.9483,5.9483,5.9483,5.9483,5.9483,5.9583,5.9759,5.9759,6.006,6.0588,6.0588,6.0839,6.119,6.119,6.1291,6.1441,6.1441,6.1542,6.1592,5.6219,5.6219,5.6219,5.6219,5.6219,5.6219,5.6219,5.6219,5.6219,5.6219,5.6219,5.6219,5.6219,5.6219,5.6219,5.6219,5.6219,5.6219,5.6219,5.6219,5.6219,5.6219,5.6219,5.6219,5.6219,5.6219,5.6219,5.6219,5.6219,5.6219,5.6219,5.6219,5.6219,5.6219,5.6219,5.6219,5.6219,5.6219,5.6219,5.6219,5.6219,5.6219,5.6219,5.6219,5.6219,5.6219,5.6219,5.6219,5.6219,5.6219,5.5842,5.539,5.539,5.539,5.5491,5.6043,5.6219,5.6219,5.6219,5.6219,5.6219,5.6219,5.6219,5.6068,5.5516,5.539,5.539,5.539,5.4963,5.4737,5.529,5.4938,5.4762,5.5315,5.539,5.5591,5.6143,5.6219,5.6219,5.6219,5.6219,5.6219,5.6219,5.6219,5.6219,5.6219,5.6219,5.6721,5.7851,5.8428,5.8956,5.9483,5.9483,5.9483,5.9483,5.9483,5.9483,5.9483,5.9483,5.9483,5.9508,5.9508,5.9809,6.0337,6.0337,6.0663,6.119,6.119,6.119,6.119,6.119,6.1542,6.2019,6.2019,6.2345,6.2672,5.6219,5.6219,5.6219,5.6219,5.6219,5.6219,5.6219,5.6219,5.6219,5.6219,5.6219,5.6219,5.6219,5.6219,5.6219,5.6219,5.6219,5.6219,5.6219,5.6219,5.6219,5.6219,5.6219,5.6219,5.6219,5.6219,5.6219,5.6219,5.6219,5.6219,5.6219,5.6219,5.6219,5.6219,5.6219,5.6219,5.6219,5.6219,5.6219,5.6219,5.6219,5.6219,5.6219,5.6219,5.6219,5.6219,5.6219,5.6219,5.6219,5.6219,5.6093,5.5968,5.5968,5.5968,5.5993,5.6168,5.6219,5.6219,5.6219,5.6219,5.6219,5.6219,5.6219,5.6168,5.6018,5.5968,5.5968,5.5968,5.5842,5.5767,5.5942,5.5842,5.5767,5.5942,5.5968,5.6018,5.6194,5.6219,5.6219,5.6219,5.6219,5.6219,5.6219,5.6219,5.6219,5.6219,5.6947,5.77,5.8428,5.8981,5.9332,5.9483,5.9483,5.9483,5.9483,5.9483,5.9483,5.9483,5.9483,5.9709,6.006,6.006,6.0387,6.0914,6.0914,6.124,6.1768,6.1768,6.1994,6.2345,6.2345,6.2446,6.2571,6.2571,6.2697,6.2722,5.6219,5.6219,5.6143,5.5917,5.5892,5.5817,5.5591,5.5566,5.5641,5.5867,5.6068,5.6294,5.652,5.6746,5.6872,5.6872,5.6872,5.6872,5.6872,5.6872,5.6771,5.6545,5.6545,5.6445,5.6219,5.6219,5.6219,5.6219,5.6219,5.6219,5.6219,5.6219,5.6219,5.6219,5.6219,5.6219,5.6219,5.6219,5.6219,5.6219,5.6219,5.6219,5.6219,5.6219,5.6219,5.6219,5.6219,5.6219,5.6219,5.6219,5.6219,5.6219,5.6219,5.6219,5.6219,5.6219,5.6219,5.6219,5.6219,5.6219,5.6219,5.6219,5.6219,5.6219,5.6219,5.6219,5.6219,5.6219,5.6219,5.6219,5.6219,5.6219,5.6219,5.6219,5.6219,5.6219,5.6219,5.6219,5.6219,5.6219,5.6219,5.6219,5.6219,5.642,5.6646,5.6872,5.7725,5.8378,5.8704,5.9207,5.9483,5.9483,5.9483,5.9483,5.9483,5.9483,5.9483,5.9483,5.9709,6.001,6.0337,6.0563,6.0964,6.1517,6.1517,6.1818,6.2345,6.2345,6.2521,6.2822,6.2822,6.2822,6.2822,6.2822,6.2822,6.2722,5.6194,5.6118,5.5917,5.5465,5.534,5.5164,5.4712,5.4637,5.4838,5.539,5.5942,5.647,5.6972,5.7549,5.7901,5.7901,5.7901,5.7901,5.7901,5.7901,5.765,5.7123,5.7123,5.6872,5.6369,5.6319,5.6294,5.6294,5.6294,5.6269,5.6219,5.6219,5.6219,5.6219,5.6219,5.6219,5.6219,5.6219,5.6219,5.6219,5.6219,5.6219,5.6219,5.6219,5.6219,5.6219,5.6219,5.6219,5.6219,5.6219,5.6219,5.6219,5.6219,5.6219,5.6219,5.6219,5.6219,5.6219,5.6219,5.6219,5.6219,5.6219,5.6219,5.6219,5.6219,5.6219,5.6219,5.6219,5.6219,5.6219,5.6219,5.6219,5.6219,5.6219,5.6219,5.6219,5.6219,5.6219,5.6219,5.6269,5.6294,5.6294,5.6369,5.6821,5.7349,5.7926,5.8428,5.873,5.878,5.9232,5.9483,5.9483,5.9483,5.9483,5.9483,5.9533,5.9558,5.9583,6.0085,6.0362,6.0487,6.1014,6.1567,6.2069,6.2069,6.237,6.2822,6.2822,6.2822,6.2822,6.2822,6.2822,6.2822,6.2822,6.2822,6.2672,5.6118,5.5516,5.5013,5.534,5.5039,5.4838,5.5164,5.5214,5.5415,5.5968,5.652,5.6897,5.7022,5.7549,5.7901,5.7901,5.7901,5.7901,5.7901,5.7901,5.7851,5.7725,5.77,5.765,5.7524,5.7097,5.6846,5.6846,5.6846,5.662,5.6219,5.6219,5.6219,5.6219,5.6219,5.6219,5.6219,5.6219,5.6219,5.6219,5.6219,5.6219,5.6219,5.6219,5.6219,5.6219,5.6219,5.6219,5.6219,5.6219,5.6219,5.6219,5.6219,5.6219,5.6219,5.6219,5.6219,5.6219,5.6219,5.6219,5.6219,5.6219,5.6219,5.6219,5.6219,5.6219,5.6219,5.6219,5.6219,5.6219,5.6219,5.6219,5.6219,5.6219,5.6219,5.6219,5.6219,5.6219,5.6369,5.6796,5.6846,5.7022,5.7499,5.765,5.7951,5.8504,5.8654,5.8905,5.9307,5.9433,5.9483,5.9483,5.9483,5.9483,5.9483,5.9935,6.0136,6.0136,6.0261,6.0788,6.1642,6.1768,6.2119,6.2647,6.2647,6.2722,6.2822,6.2822,6.2822,6.2822,6.2822,6.2822,6.2822,6.2822,6.2822,6.2672,5.5365,5.4963,5.4662,5.4938,5.4762,5.4662,5.4963,5.4988,5.5189,5.5742,5.652,5.7148,5.7424,5.8177,5.8654,5.8654,5.8654,5.8654,5.8654,5.8654,5.8554,5.8303,5.8303,5.8303,5.8303,5.8001,5.7725,5.7449,5.7173,5.6897,5.6595,5.6344,5.6219,5.6219,5.6219,5.6219,5.6219,5.6219,5.6219,5.6219,5.6219,5.6219,5.6219,5.6219,5.6219,5.6219,5.6219,5.6219,5.6219,5.6219,5.6219,5.6219,5.6219,5.6219,5.6219,5.6219,5.6219,5.6219,5.6219,5.6219,5.6219,5.6219,5.6219,5.6219,5.6219,5.6219,5.6219,5.6219,5.6219,5.6294,5.6545,5.6595,5.6595,5.6595,5.6846,5.6821,5.6294,5.6671,5.7022,5.7022,5.7273,5.7675,5.8227,5.8303,5.8504,5.9056,5.9081,5.9207,5.9483,5.9483,5.9483,5.9483,5.9483,5.9608,5.9885,6.0161,6.0588,6.1115,6.1115,6.1441,6.2019,6.227,6.2546,6.2822,6.2822,6.2672,6.2446,6.2446,6.2446,6.2446,6.2446,6.2596,6.2822,6.2822,6.2672,6.227,5.4838,5.4687,5.4587,5.4687,5.4637,5.4587,5.4687,5.4712,5.4913,5.5465,5.642,5.7223,5.77,5.8704,5.9408,5.9483,5.9483,5.9483,5.9483,5.9483,5.9307,5.888,5.8855,5.8855,5.8855,5.8855,5.8579,5.8052,5.7549,5.7223,5.7022,5.657,5.6294,5.6219,5.6219,5.6219,5.6219,5.6219,5.6219,5.6219,5.6219,5.6219,5.6219,5.6219,5.6219,5.6219,5.6219,5.6219,5.6219,5.6219,5.6219,5.6219,5.6219,5.6219,5.6219,5.6219,5.6219,5.6219,5.6219,5.6219,5.6219,5.6219,5.6219,5.6219,5.6219,5.6219,5.6219,5.6219,5.6219,5.6369,5.6922,5.7022,5.7072,5.7173,5.7575,5.7575,5.662,5.7298,5.775,5.7374,5.7826,5.8353,5.8805,5.8855,5.9031,5.9458,5.9483,5.9483,5.9483,5.9483,5.9483,5.9483,5.9583,5.9859,6.0311,6.0512,6.1065,6.1994,6.2094,6.2144,6.2169,6.2621,6.2822,6.2822,6.2722,6.2421,6.1994,6.1893,6.1868,6.1868,6.1868,6.2144,6.2546,6.2546,6.232,6.1843,5.5892,5.5214,5.4712,5.5189,5.4888,5.4737,5.5214,5.5265,5.5465,5.6018,5.6646,5.7072,5.7148,5.8152,5.9006,5.9458,5.9483,5.9483,5.9483,5.9483,5.9458,5.9382,5.9382,5.9382,5.9382,5.9382,5.9131,5.8604,5.8529,5.8001,5.7022,5.6972,5.6671,5.6219,5.6219,5.6219,5.6219,5.6219,5.6219,5.6219,5.6219,5.6219,5.6219,5.6219,5.6219,5.6219,5.6219,5.6219,5.6219,5.6219,5.6219,5.6219,5.6219,5.6219,5.6219,5.6219,5.6219,5.6219,5.6219,5.6219,5.6219,5.6219,5.6219,5.6219,5.6219,5.6219,5.6219,5.6219,5.6219,5.6369,5.6922,5.7022,5.7198,5.77,5.7851,5.7851,5.77,5.7801,5.8052,5.8453,5.8956,5.9307,5.9382,5.9382,5.9408,5.9483,5.9483,5.9483,5.9483,5.9483,5.9483,5.9483,5.996,6.0236,6.0311,6.1291,6.1843,6.2019,6.2496,6.2722,6.2722,6.2797,6.2822,6.2797,6.232,6.2069,6.1969,6.1492,6.1291,6.1291,6.1291,6.1341,6.1416,6.1416,6.1667,6.1843,5.5239,5.4888,5.4737,5.529,5.5189,5.5214,5.5767,5.5842,5.5942,5.6168,5.6696,5.7022,5.7022,5.8052,5.893,5.9458,5.9483,5.9483,5.9483,5.9483,5.9483,5.9483,5.9483,5.9483,5.9483,5.9483,5.9382,5.9156,5.8855,5.8478,5.7976,5.765,5.7399,5.7148,5.6821,5.6671,5.6646,5.6344,5.6219,5.6219,5.6219,5.6219,5.6219,5.6219,5.6219,5.6219,5.6219,5.6219,5.6219,5.6219,5.6219,5.6219,5.6219,5.6219,5.6219,5.6219,5.6219,5.6219,5.6219,5.6219,5.6219,5.6219,5.6219,5.6219,5.6219,5.6219,5.6219,5.6219,5.6219,5.647,5.7349,5.7524,5.77,5.8252,5.8604,5.8579,5.7976,5.8403,5.888,5.9131,5.9357,5.9483,5.9483,5.9483,5.9483,5.9483,5.9483,5.9483,5.9483,5.9483,5.9633,5.996,6.0186,6.0613,6.1266,6.1743,6.2169,6.2471,6.2722,6.2822,6.2822,6.2822,6.2672,6.2345,6.2119,6.1642,6.104,6.0788,6.0688,6.0688,6.0688,6.0889,6.114,6.0814,6.1065,6.1391]}]]